[[{"header":{"parameterUnit":"m.s-1","parameterCategory":1,"la1":30.6,"la2":28.766,"lo1":-90.7593,"lo2":-88.6598,"dy":0.0162,"dx":0.0183,"nx":116,"ny":114,"refTime":"2023-10-23T18:00:00:Z","depth":0,"parameterNumber":2,"parameterNumberName":"U-component_of_WINDS"},"data":[0.0,0.0,0.0,0.0,0.0,0.0,0.0,0.0,0.0,0.0,0.0,0.0,0.0,0.0,0.0,0.0,0.0,0.0,0.0,0.0,0.0,0.0,0.0,0.0,0.0,0.0,0.0,0.0,0.0,0.0,0.0,0.0,0.0,0.0,0.0,0.0,0.0,0.0,0.0,0.0,0.0,0.0,0.0,0.0,0.0,0.0,0.0,0.0,0.0,0.0,0.0,0.0,0.0,0.0,0.0,0.0,0.0,0.0,0.0,0.0,0.0,0.0,0.0,0.0,0.0,0.0,0.0,0.0,0.0,0.0,0.0,0.0,0.0,0.0,0.0,0.0,0.0,0.0,0.0,0.0,0.0,0.0,0.0,0.0,0.0,0.0,0.0,0.0,0.0,0.0,0.0,0.0,0.0,0.0,0.0,0.0,0.0,0.0,0.0,0.0,0.0,0.0,0.0,0.0,0.0,0.0,0.0,0.0,0.0,0.0,0.0,0.0,0.0,0.0,0.0,0.0,0.0,0.0,0.0,0.0,0.0,0.0,0.0,0.0,0.0,0.0,0.0,0.0,0.0,0.0,0.0,0.0,0.0,0.0,0.0,0.0,0.0,0.0,0.0,0.0,0.0,0.0,0.0,0.0,0.0,0.0,0.0,0.0,0.0,0.0,0.0,0.0,0.0,0.0,0.0,0.0,0.0,0.0,0.0,0.0,0.0,0.0,0.0,0.0,0.0,0.0,0.0,0.0,0.0,0.0,0.0,0.0,0.0,0.0,0.0,0.0,0.0,0.0,0.0,0.0,0.0,0.0,0.0,0.0,0.0,0.0,0.0,0.0,0.0,0.0,0.0,0.0,0.0,0.0,0.0,0.0,0.0,0.0,0.0,0.0,0.0,0.0,0.0,0.0,0.0,0.0,0.0,0.0,0.0,0.0,0.0,0.0,0.0,0.0,0.0,0.0,0.0,0.0,0.0,0.0,0.0,0.0,0.0,0.0,0.0,0.0,0.0,0.0,0.0,0.0,0.0,0.0,0.0,0.0,0.0,0.0,0.0,0.0,0.0,0.0,0.0,0.0,0.0,0.0,0.0,0.0,0.0,0.0,0.0,0.0,0.0,0.0,0.0,0.0,0.0,0.0,0.0,0.0,0.0,0.0,0.0,0.0,0.0,0.0,0.0,0.0,0.0,0.0,0.0,0.0,0.0,0.0,0.0,0.0,0.0,0.0,0.0,0.0,0.0,0.0,0.0,0.0,0.0,0.0,0.0,0.0,0.0,0.0,0.0,0.0,0.0,0.0,0.0,0.0,0.0,0.0,0.0,0.0,0.0,0.0,0.0,0.0,0.0,0.0,0.0,0.0,0.0,0.0,0.0,0.0,0.0,0.0,0.0,0.0,0.0,0.0,0.0,0.0,0.0,0.0,0.0,0.0,0.0,0.0,0.0,0.0,0.0,0.0,0.0,0.0,0.0,0.0,0.0,0.0,0.0,0.0,0.0,0.0,0.0,0.0,0.0,0.0,0.0,0.0,0.0,0.0,0.0,0.0,0.0,0.0,0.0,0.0,0.0,0.0,0.0,0.0,0.0,0.0,0.0,0.0,0.0,0.0,0.0,0.0,0.0,0.0,0.0,0.0,0.0,0.0,0.0,0.0,0.0,0.0,0.0,0.0,0.0,0.0,0.0,0.0,0.0,0.0,0.0,0.0,0.0,0.0,0.0,0.0,0.0,0.0,0.0,0.0,0.0,0.0,0.0,0.0,0.0,0.0,0.0,0.0,0.0,0.0,0.0,0.0,0.0,0.0,0.0,0.0,0.0,0.0,0.0,0.0,0.0,0.0,0.0,0.0,0.0,0.0,0.0,0.0,0.0,0.0,0.0,0.0,0.0,0.0,0.0,0.0,0.0,0.0,0.0,0.0,0.0,0.0,0.0,0.0,0.0,0.0,0.0,0.0,0.0,0.0,0.0,0.0,0.0,0.0,0.0,0.0,0.0,0.0,0.0,0.0,0.0,0.0,0.0,0.0,0.0,0.0,0.0,0.0,0.0,0.0,0.0,0.0,0.0,0.0,0.0,0.0,0.0,0.0,0.0,0.0,0.0,0.0,0.0,0.0,0.0,0.0,0.0,0.0,0.0,0.0,0.0,0.0,0.0,0.0,0.0,0.0,0.0,0.0,0.0,0.0,0.0,0.0,0.0,0.0,0.0,0.0,0.0,0.0,0.0,0.0,0.0,0.0,0.0,0.0,0.0,0.0,0.0,0.0,0.0,0.0,0.0,0.0,0.0,0.0,0.0,0.0,0.0,0.0,0.0,0.0,0.0,0.0,0.0,0.0,0.0,0.0,0.0,0.0,0.0,0.0,0.0,0.0,0.0,0.0,0.0,0.0,0.0,0.0,0.0,0.0,0.0,0.0,0.0,0.0,0.0,0.0,0.0,0.0,0.0,0.0,0.0,0.0,0.0,0.0,0.0,0.0,0.0,0.0,0.0,0.0,0.0,0.0,0.0,0.0,0.0,0.0,0.0,0.0,0.0,0.0,0.0,0.0,0.0,0.0,0.0,0.0,0.0,0.0,0.0,0.0,0.0,0.0,0.0,0.0,0.0,0.0,0.0,0.0,0.0,0.0,0.0,0.0,0.0,0.0,0.0,0.0,0.0,0.0,0.0,0.0,0.0,0.0,0.0,0.0,0.0,0.0,0.0,0.0,0.0,0.0,0.0,0.0,0.0,0.0,0.0,0.0,0.0,0.0,0.0,0.0,0.0,0.0,0.0,0.0,0.0,0.0,0.0,0.0,0.0,0.0,0.0,0.0,0.0,0.0,0.0,0.0,0.0,0.0,0.0,0.0,0.0,0.0,0.0,0.0,0.0,0.0,0.0,0.0,0.0,0.0,0.0,0.0,0.0,0.0,0.0,0.0,0.0,0.0,0.0,0.0,0.0,0.0,0.0,0.0,0.0,0.0,0.0,0.0,0.0,0.0,0.0,0.0,0.0,0.0,0.0,0.0,0.0,0.0,0.0,0.0,0.0,0.0,0.0,0.0,0.0,0.0,0.0,0.0,0.0,0.0,0.0,0.0,0.0,0.0,0.0,0.0,0.0,0.0,0.0,0.0,0.0,0.0,0.0,0.0,0.0,0.0,0.0,0.0,0.0,0.0,0.0,0.0,0.0,0.0,0.0,0.0,0.0,0.0,0.0,0.0,0.0,0.0,0.0,0.0,0.0,0.0,0.0,0.0,0.0,0.0,0.0,0.0,0.0,0.0,0.0,0.0,0.0,0.0,0.0,0.0,0.0,0.0,0.0,0.0,0.0,0.0,0.0,0.0,0.0,0.0,0.0,0.0,0.0,0.0,0.0,0.0,0.0,0.0,0.0,0.0,0.0,0.0,0.0,0.0,0.0,0.0,0.0,0.0,0.0,0.0,0.0,0.0,0.0,0.0,0.0,0.0,0.0,0.0,0.0,0.0,0.0,0.0,0.0,0.0,0.0,0.0,0.0,0.0,0.0,0.0,0.0,0.0,0.0,0.0,0.0,0.0,0.0,0.0,0.0,0.0,0.0,0.0,0.0,0.0,0.0,0.0,0.0,0.0,0.0,0.0,0.0,0.0,0.0,0.0,0.0,0.0,0.0,0.0,0.0,0.0,0.0,0.0,0.0,0.0,0.0,0.0,0.0,0.0,0.0,0.0,0.0,0.0,0.0,0.0,0.0,0.0,0.0,0.0,0.0,0.0,0.0,0.0,0.0,0.0,0.0,0.0,0.0,0.0,0.0,0.0,0.0,0.0,0.0,0.0,0.0,0.0,0.0,0.0,0.0,0.0,0.0,0.0,0.0,0.0,0.0,0.0,0.0,0.0,0.0,0.0,0.0,0.0,0.0,0.0,0.0,0.0,0.0,0.0,0.0,0.0,0.0,0.0,0.0,0.0,0.0,0.0,0.0,0.0,0.0,0.0,0.0,0.0,0.0,0.0,0.0,0.0,0.0,0.0,0.0,0.0,0.0,0.0,0.0,0.0,0.0,0.0,0.0,0.0,0.0,0.0,0.0,0.0,0.0,0.0,0.0,0.0,0.0,0.0,0.0,0.0,0.0,0.0,0.0,0.0,0.0,0.0,0.0,0.0,0.0,0.0,0.0,0.0,0.0,0.0,0.0,0.0,0.0,0.0,0.0,0.0,0.0,0.0,0.0,0.0,0.0,0.0,0.0,0.0,0.0,0.0,0.0,0.0,0.0,0.0,0.0,0.0,0.0,0.0,0.0,0.0,0.0,0.0,0.0,0.0,0.0,0.0,0.0,0.0,0.0,0.0,0.0,0.0,0.0,0.0,0.0,0.0,0.0,0.0,0.0,0.0,0.0,0.0,0.0,0.0,0.0,0.0,0.0,0.0,0.0,0.0,0.0,0.0,0.0,0.0,0.0,0.0,0.0,0.0,0.0,0.0,0.0,0.0,0.0,0.0,0.0,0.0,0.0,0.0,0.0,0.0,0.0,0.0,0.0,0.0,0.0,0.0,0.0,0.0,0.0,0.0,0.0,0.0,0.0,0.0,0.0,0.0,0.0,0.0,0.0,0.0,0.0,0.0,0.0,0.0,0.0,0.0,0.0,0.0,0.0,0.0,0.0,0.0,0.0,0.0,0.0,0.0,0.0,0.0,0.0,0.0,0.0,0.0,0.0,0.0,0.0,0.0,0.0,0.0,0.0,0.0,0.0,0.0,0.0,0.0,0.0,0.0,0.0,0.0,0.0,0.0,0.0,0.0,0.0,0.0,0.0,0.0,0.0,0.0,0.0,0.0,0.0,0.0,0.0,0.0,0.0,0.0,0.0,0.0,0.0,0.0,0.0,0.0,0.0,0.0,0.0,0.0,0.0,0.0,0.0,0.0,0.0,0.0,0.0,0.0,0.0,0.0,0.0,0.0,0.0,0.0,0.0,0.0,0.0,0.0,0.0,0.0,0.0,0.0,0.0,0.0,0.0,0.0,0.0,0.0,0.0,0.0,0.0,0.0,0.0,0.0,0.0,0.0,0.0,0.0,0.0,0.0,0.0,0.0,0.0,0.0,0.0,0.0,0.0,0.0,0.0,0.0,0.0,0.0,0.0,0.0,0.0,0.0,0.0,0.0,0.0,0.0,0.0,0.0,0.0,0.0,0.0,0.0,0.0,0.0,0.0,0.0,0.0,0.0,0.0,0.0,0.0,0.0,0.0,0.0,0.0,0.0,0.0,0.0,0.0,0.0,0.0,0.0,0.0,0.0,0.0,0.0,0.0,0.0,0.0,0.0,0.0,0.0,0.0,0.0,0.0,0.0,0.0,0.0,0.0,0.0,0.0,0.0,0.0,0.0,0.0,0.0,0.0,0.0,0.0,0.0,0.0,0.0,0.0,0.0,0.0,0.0,0.0,0.0,0.0,0.0,0.0,0.0,0.0,0.0,0.0,0.0,0.0,0.0,0.0,0.0,0.0,0.0,0.0,0.0,0.0,0.0,0.0,0.0,0.0,0.0,0.0,0.0,0.0,0.0,0.0,0.0,0.0,0.0,0.0,0.0,0.0,0.0,0.0,0.0,0.0,0.0,0.0,0.0,0.0,0.0,0.0,0.0,0.0,0.0,0.0,0.0,0.0,0.0,0.0,0.0,0.0,0.0,0.0,0.0,0.0,0.0,0.0,0.0,0.0,0.0,0.0,0.0,0.0,0.0,0.0,0.0,0.0,0.0,0.0,0.0,0.0,0.0,0.0,0.0,0.0,0.0,0.0,0.0,0.0,0.0,0.0,0.0,0.0,0.0,0.0,0.0,0.0,0.0,0.0,0.0,0.0,0.0,0.0,0.0,0.0,0.0,0.0,0.0,0.0,0.0,0.0,0.0,0.0,0.0,0.0,0.0,0.0,0.0,0.0,0.0,0.0,0.0,0.0,0.0,0.0,0.0,0.0,0.0,0.0,0.0,0.0,0.0,0.0,0.0,0.0,0.0,0.0,0.0,0.0,0.0,0.0,0.0,0.0,0.0,0.0,0.0,0.0,0.0,0.0,0.0,0.0,0.0,0.0,0.0,0.0,0.0,0.0,0.0,0.0,0.0,0.0,0.0,0.0,0.0,0.0,0.0,0.0,0.0,-2.315,-2.3921,0.0,0.0,0.0,0.0,0.0,0.0,0.0,0.0,0.0,0.0,0.0,0.0,0.0,0.0,0.0,0.0,0.0,0.0,0.0,0.0,0.0,0.0,0.0,0.0,0.0,0.0,0.0,0.0,0.0,0.0,0.0,0.0,0.0,0.0,0.0,0.0,0.0,0.0,-2.7974,-2.8476,-2.9471,-3.13,-3.248,-3.305,0.0,0.0,0.0,0.0,0.0,0.0,0.0,0.0,0.0,0.0,0.0,0.0,0.0,0.0,0.0,0.0,0.0,0.0,0.0,0.0,0.0,0.0,0.0,0.0,0.0,0.0,0.0,0.0,0.0,0.0,0.0,0.0,0.0,0.0,0.0,0.0,0.0,0.0,0.0,0.0,0.0,0.0,0.0,0.0,0.0,0.0,0.0,0.0,0.0,0.0,0.0,0.0,0.0,0.0,0.0,0.0,0.0,0.0,0.0,0.0,0.0,0.0,0.0,0.0,0.0,0.0,0.0,0.0,0.0,0.0,-2.1154,-2.2337,0.0,0.0,0.0,0.0,0.0,0.0,0.0,0.0,0.0,0.0,0.0,0.0,0.0,0.0,0.0,0.0,0.0,0.0,0.0,0.0,0.0,0.0,0.0,0.0,0.0,0.0,0.0,0.0,0.0,0.0,0.0,0.0,0.0,0.0,0.0,-2.5811,-2.5846,-2.5698,-2.6149,-2.6864,-2.7834,-2.9316,-3.0745,-3.2014,-3.2936,0.0,0.0,0.0,0.0,0.0,0.0,0.0,0.0,0.0,0.0,0.0,0.0,0.0,0.0,0.0,0.0,0.0,0.0,0.0,0.0,0.0,0.0,0.0,0.0,0.0,0.0,0.0,0.0,0.0,0.0,0.0,0.0,0.0,0.0,0.0,0.0,0.0,0.0,0.0,0.0,0.0,0.0,0.0,0.0,0.0,0.0,0.0,0.0,0.0,0.0,0.0,0.0,0.0,0.0,0.0,0.0,0.0,0.0,0.0,0.0,0.0,0.0,0.0,-1.4788,-1.4788,-1.4796,-1.4953,-1.5502,-1.6526,-1.9321,-2.059,-2.0703,-2.0343,0.0,0.0,0.0,0.0,0.0,0.0,0.0,0.0,0.0,0.0,0.0,0.0,0.0,0.0,0.0,0.0,0.0,0.0,0.0,0.0,0.0,-2.7431,-2.7194,-2.664,-2.6392,-2.6044,0.0,0.0,0.0,0.0,0.0,0.0,-2.4843,-2.385,-2.3651,-2.4206,-2.4585,-2.5112,-2.575,-2.7226,-2.8676,-3.0106,-3.2712,-3.4122,-3.4486,0.0,0.0,0.0,0.0,0.0,0.0,0.0,0.0,0.0,0.0,0.0,0.0,0.0,0.0,0.0,0.0,0.0,0.0,0.0,0.0,0.0,0.0,0.0,0.0,0.0,0.0,0.0,0.0,0.0,0.0,0.0,0.0,0.0,0.0,0.0,0.0,0.0,0.0,0.0,0.0,0.0,-2.1114,-2.0047,0.0,0.0,0.0,0.0,0.0,0.0,0.0,0.0,0.0,0.0,0.0,0.0,0.0,-1.4667,-1.4628,-1.4578,-1.4667,-1.4814,-1.4814,-1.4814,-1.483,-1.5093,-1.5342,-1.5524,-1.6485,0.0,-1.9482,-1.8986,0.0,0.0,0.0,0.0,0.0,0.0,0.0,0.0,0.0,0.0,0.0,0.0,0.0,0.0,0.0,0.0,0.0,0.0,0.0,0.0,0.0,-2.6071,-2.6073,-2.5956,-2.5976,-2.5778,-2.5213,0.0,0.0,0.0,0.0,-2.3339,-2.2609,-2.2314,-2.2213,-2.2314,-2.2805,-2.3211,-2.3586,-2.5289,-2.665,-2.7799,-3.0158,-3.2202,-3.3871,-3.3621,0.0,0.0,0.0,0.0,0.0,0.0,0.0,0.0,0.0,0.0,0.0,0.0,0.0,0.0,0.0,0.0,0.0,0.0,0.0,0.0,0.0,0.0,0.0,0.0,0.0,0.0,0.0,0.0,0.0,0.0,0.0,0.0,0.0,0.0,0.0,0.0,0.0,0.0,0.0,-2.0624,-1.9921,-1.9448,-1.8915,-1.8354,0.0,0.0,0.0,0.0,0.0,0.0,0.0,0.0,0.0,-1.4303,-1.4137,-1.4049,-1.4042,-1.398,-1.3902,-1.4048,-1.4048,-1.4048,-1.4055,-1.4215,-1.4482,-1.4736,-1.5059,-1.5975,-1.7136,-1.7076,-1.7077,-1.7047,0.0,0.0,0.0,0.0,-1.6793,-1.6793,0.0,0.0,0.0,0.0,0.0,0.0,0.0,0.0,0.0,0.0,0.0,0.0,-2.451,-2.4733,-2.4989,-2.5157,-2.544,-2.5408,-2.484,-2.4517,0.0,0.0,-2.2213,-2.1583,-2.0574,-2.0808,-2.0806,-2.0669,-2.1216,-2.1622,-2.1978,-2.3582,-2.4769,-2.5684,-2.7389,-2.9745,-3.2454,-3.2623,-3.2408,-3.197,0.0,0.0,0.0,0.0,0.0,0.0,0.0,0.0,0.0,0.0,0.0,0.0,0.0,0.0,0.0,0.0,0.0,0.0,0.0,0.0,0.0,0.0,0.0,0.0,0.0,0.0,0.0,0.0,0.0,0.0,0.0,0.0,0.0,0.0,0.0,0.0,0.0,-1.9171,-1.8794,-1.8451,-1.7916,-1.7389,0.0,0.0,0.0,0.0,0.0,0.0,-1.4258,-1.3961,-1.3911,-1.3971,-1.376,-1.372,-1.3755,-1.3541,-1.3512,-1.3512,-1.3512,-1.3512,-1.3519,-1.3675,-1.3913,-1.4252,-1.4365,-1.4693,-1.5202,-1.5592,-1.559,-1.5286,-1.5342,-1.5223,-1.5047,-1.5308,-1.5302,-1.5227,0.0,0.0,0.0,0.0,0.0,0.0,0.0,0.0,0.0,0.0,0.0,-2.3388,-2.3388,-2.369,-2.4023,-2.4314,-2.4657,-2.4625,-2.401,-2.37,-2.2895,-2.1454,-2.0652,-1.9993,-1.9405,-1.914,-1.9152,-1.939,-2.0083,-2.0687,-2.1301,-2.2209,-2.3095,-2.3956,-2.5206,-2.7488,-3.0493,-3.0838,-3.0855,-3.0656,-3.1401,0.0,0.0,0.0,0.0,0.0,0.0,0.0,0.0,0.0,0.0,0.0,0.0,0.0,0.0,0.0,0.0,0.0,0.0,0.0,0.0,0.0,0.0,0.0,0.0,0.0,0.0,0.0,0.0,0.0,0.0,0.0,0.0,0.0,0.0,0.0,0.0,0.0,0.0,-1.6373,-1.6084,0.0,0.0,0.0,0.0,-1.4453,-1.4265,-1.3974,-1.3605,-1.3689,-1.3671,-1.365,-1.3593,-1.3668,-1.3804,-1.3817,-1.3817,-1.3817,-1.3817,-1.3817,-1.3824,-1.398,-1.4048,-1.4135,-1.4142,-1.4142,-1.426,-1.4803,-1.5144,-1.5256,-1.4988,-1.4851,-1.4859,-1.4967,-1.5031,-1.5055,0.0,0.0,0.0,0.0,0.0,0.0,0.0,0.0,0.0,-2.1963,-2.1794,-2.1689,-2.1506,-2.1947,-2.2488,-2.3004,-2.3328,-2.3332,-2.2934,-2.2176,-2.119,-2.0019,-1.9034,-1.8222,-1.755,-1.7266,-1.7489,-1.8123,-1.8765,-1.9403,-1.9982,-2.0716,-2.1445,-2.2168,-2.3183,-2.4433,-2.5991,-2.8081,-2.8837,-2.8773,-2.9535,-2.9521,0.0,0.0,0.0,0.0,0.0,0.0,0.0,0.0,0.0,0.0,0.0,0.0,0.0,0.0,0.0,0.0,0.0,0.0,0.0,0.0,0.0,0.0,0.0,0.0,0.0,0.0,0.0,0.0,0.0,0.0,0.0,0.0,0.0,0.0,0.0,0.0,0.0,-1.5815,-1.5547,0.0,-1.4935,-1.4774,-1.4547,-1.3951,-1.4033,-1.3906,-1.3542,-1.3693,-1.378,-1.3905,-1.4007,-1.4082,-1.4136,-1.4136,-1.4136,-1.4136,-1.4136,-1.4136,-1.4136,-1.419,-1.4217,-1.4217,-1.4217,-1.4217,-1.4285,-1.44,-1.4364,-1.4189,-1.3973,-1.3886,-1.3893,-1.3951,-1.4037,-1.4117,0.0,0.0,0.0,0.0,0.0,0.0,0.0,0.0,-2.0948,-2.0265,-2.0097,-2.0037,-1.9962,-2.0507,-2.1133,-2.1742,-2.208,-2.2069,-2.1672,-2.0704,-1.9617,-1.8394,-1.7172,-1.6266,-1.5749,-1.558,-1.6,-1.7009,-1.7525,-1.8169,-1.901,-1.9635,-2.0213,-2.0773,-2.1559,-2.2184,-2.2789,-2.5072,-2.6402,-2.6994,-2.7782,-2.8056,-2.8082,0.0,0.0,0.0,0.0,0.0,0.0,0.0,0.0,0.0,0.0,0.0,0.0,0.0,0.0,0.0,0.0,0.0,0.0,0.0,0.0,0.0,0.0,0.0,0.0,0.0,0.0,0.0,0.0,0.0,0.0,0.0,0.0,0.0,0.0,-1.5867,-1.5472,-1.5186,-1.4826,-1.4559,-1.4371,-1.4445,-1.4257,-1.3811,-1.3958,-1.3928,-1.377,-1.3919,-1.4041,-1.4143,-1.4245,-1.4299,-1.4299,-1.4299,-1.4299,-1.4299,-1.4299,-1.4299,-1.4299,-1.4299,-1.4299,-1.4299,-1.4299,-1.4299,-1.4292,-1.419,-1.4034,-1.3838,-1.3627,-1.3546,-1.3553,-1.3607,-1.3688,-1.3763,0.0,0.0,0.0,0.0,0.0,0.0,0.0,-1.9834,-1.9351,-1.8796,-1.8522,-1.8429,-1.8695,-1.9328,-1.9955,-2.048,-2.09,-2.0862,-2.0154,-1.9348,-1.8237,-1.667,-1.5138,-1.4232,-1.3915,-1.4069,-1.4758,-1.5994,-1.6279,-1.7103,-1.8357,-1.8952,-1.9475,-1.9822,-2.0399,-2.0845,-2.1261,-2.2101,-2.3579,-2.538,-2.6268,-2.7008,-2.7604,0.0,0.0,0.0,0.0,0.0,0.0,0.0,0.0,0.0,0.0,0.0,0.0,0.0,0.0,0.0,0.0,0.0,0.0,0.0,0.0,0.0,0.0,0.0,0.0,0.0,0.0,0.0,0.0,0.0,0.0,0.0,0.0,0.0,-1.5697,-1.5616,-1.5202,-1.4314,-1.409,-1.3958,-1.3824,-1.3729,-1.3709,-1.3844,-1.3994,-1.4082,-1.4082,-1.4217,-1.4299,-1.4299,-1.4299,-1.4299,-1.4299,-1.4299,-1.4299,-1.4299,-1.4299,-1.4299,-1.4299,-1.4299,-1.4299,-1.4299,-1.4299,-1.4299,-1.4299,-1.4387,-1.4387,-1.436,-1.3973,-1.3858,-1.3871,-1.4021,-1.4082,-1.4082,0.0,0.0,0.0,0.0,0.0,0.0,0.0,-1.845,-1.7838,-1.7316,-1.7053,-1.7068,-1.7605,-1.8189,-1.8751,-1.933,-1.9487,-1.9291,-1.8699,-1.7487,-1.5976,-1.4176,-1.3256,-1.2673,-1.2463,-1.2516,-1.2985,-1.3973,-1.4748,-1.5747,-1.7044,-1.7877,-1.8693,-1.9476,-2.0137,-2.0555,-2.0883,-2.1566,-2.2273,-2.3157,-2.4952,-2.5622,-2.5646,0.0,0.0,0.0,0.0,0.0,0.0,0.0,0.0,0.0,0.0,0.0,0.0,0.0,0.0,0.0,0.0,0.0,0.0,0.0,0.0,0.0,0.0,0.0,0.0,0.0,0.0,0.0,0.0,0.0,0.0,0.0,-1.5981,-1.5539,-1.5335,-1.4841,-1.439,-1.4143,-1.4084,-1.4132,-1.4156,-1.4136,-1.4129,-1.417,-1.4211,-1.4238,-1.4238,-1.4278,-1.4299,-1.4299,-1.4299,-1.4299,-1.4299,-1.4299,-1.4299,-1.4299,-1.4299,-1.4299,-1.4299,-1.4299,-1.4299,-1.4299,-1.4646,-1.4822,-1.4822,-1.5521,-1.5785,-1.569,-1.4643,-1.4177,-1.4177,-1.4217,-1.4238,-1.4238,0.0,0.0,0.0,0.0,0.0,0.0,0.0,-1.7529,-1.6715,-1.6215,-1.5725,-1.5647,-1.622,-1.6901,-1.7512,-1.7961,-1.8118,-1.7882,-1.721,-1.553,-1.3871,-1.2404,-1.1946,-1.1562,-1.1315,-1.1379,-1.1885,-1.2784,-1.3614,-1.4789,-1.6257,-1.7221,-1.8257,-1.9301,-1.9794,-2.0187,-2.053,-2.0999,-2.1361,-2.1661,-2.3312,-2.4127,-2.448,-2.5588,-2.6526,-2.7211,-2.8074,-2.8646,-2.9106,-2.9581,0.0,0.0,0.0,0.0,0.0,0.0,0.0,0.0,0.0,0.0,0.0,0.0,0.0,0.0,0.0,0.0,0.0,0.0,0.0,0.0,0.0,0.0,0.0,0.0,-1.5466,-1.5127,-1.5036,-1.4579,-1.423,-1.4217,-1.4163,-1.4204,-1.4292,-1.4299,-1.4299,-1.4299,-1.4299,-1.4299,-1.4299,-1.4299,-1.4299,-1.4299,-1.4299,-1.4299,-1.4299,-1.4299,-1.4299,-1.4299,-1.4299,-1.4387,-1.4557,-1.4557,-1.4822,-1.5175,-1.5433,-1.5785,-1.6225,-1.6745,-1.7096,-1.7184,0.0,0.0,0.0,0.0,-1.4911,-1.4557,0.0,0.0,0.0,0.0,0.0,0.0,0.0,-1.7099,-1.6081,-1.5544,-1.4791,-1.4506,-1.5021,-1.5791,-1.6423,-1.6665,-1.6967,-1.6696,-1.5623,-1.3664,-1.2143,-1.1214,-1.0965,-1.0739,-1.0458,-1.0598,-1.1088,-1.1993,-1.2681,-1.3927,-1.5632,-1.6756,-1.7937,-1.9109,-1.9489,-1.9881,-2.0273,-2.0578,-2.0746,-2.0835,-2.1647,-2.2658,-2.3732,-2.3822,-2.4639,-2.5847,-2.691,-2.7712,-2.8516,-2.9498,0.0,0.0,0.0,0.0,0.0,0.0,0.0,0.0,0.0,0.0,0.0,0.0,0.0,0.0,0.0,0.0,0.0,0.0,0.0,0.0,0.0,0.0,0.0,0.0,-1.4954,-1.4525,-1.4642,-1.4625,-1.4587,-1.4374,-1.4299,-1.4299,-1.4299,-1.4299,-1.4299,-1.4299,-1.4299,-1.4299,-1.4299,-1.4299,0.0,0.0,0.0,-1.4299,-1.4299,-1.4299,-1.4299,-1.4299,-1.4387,-1.4646,-1.508,-1.5168,-1.5697,-1.6577,-1.6745,-1.7271,-1.806,-1.8235,-1.8672,-1.9012,-1.7718,-1.7279,-1.7192,-1.6753,-1.6049,-1.5344,0.0,0.0,0.0,0.0,0.0,0.0,0.0,-1.7589,-1.6519,-1.5821,-1.5035,-1.4723,-1.5272,-1.5901,-1.6417,-1.6685,-1.6812,-1.5915,-1.3637,-1.2257,-1.1247,-1.0536,-1.0332,-1.0137,-0.9956,-0.999,-1.0186,-1.0664,-1.1723,-1.2847,-1.3986,-1.5627,-1.7151,-1.8402,-1.9274,-1.9962,-2.0572,-2.0873,-2.0998,-2.1074,-2.1254,-2.1776,-2.255,-2.3366,-2.4317,-2.531,-2.5826,-2.6865,-2.8088,-2.8351,-2.8727,-2.9039,-2.8727,-2.8516,0.0,0.0,0.0,0.0,0.0,0.0,0.0,0.0,0.0,0.0,0.0,0.0,0.0,0.0,0.0,0.0,0.0,0.0,0.0,-1.4792,-1.455,-1.4472,-1.4386,-1.4346,-1.4353,-1.4299,-1.4299,-1.4299,-1.4299,-1.4299,-1.4299,-1.4299,-1.4299,-1.4299,-1.4299,-1.4299,-1.4299,-1.4299,-1.4299,-1.4299,-1.4299,-1.4299,-1.4299,-1.4299,-1.4646,0.0,-1.5616,-1.6305,-1.7008,-1.7622,-1.875,-1.9351,-1.9613,-2.1098,-2.2223,-2.2643,-1.9448,-1.8235,-1.8147,-1.7709,-1.7447,-1.7192,0.0,0.0,0.0,0.0,0.0,0.0,0.0,-1.8613,-1.7529,-1.6819,-1.5999,-1.553,-1.5559,-1.614,-1.6408,-1.6061,-1.5429,-1.4429,-1.2908,-1.1833,-1.1175,-1.0887,-1.0762,-1.0711,-1.0785,-1.0664,-1.0769,-1.1157,-1.1556,-1.2366,-1.3555,-1.4958,-1.6455,-1.7903,-1.9045,-1.9954,-2.0602,-2.0982,-2.1189,-2.1336,-2.1336,-2.1706,-2.2342,-2.2722,-2.3379,-2.419,-2.4842,-2.5652,-2.6584,-2.6906,-2.7344,-2.7752,-2.7713,-2.7671,-2.7735,0.0,0.0,0.0,0.0,0.0,0.0,0.0,0.0,0.0,0.0,0.0,0.0,0.0,0.0,-1.6264,-1.536,0.0,-1.4689,-1.4543,-1.4408,-1.4302,-1.4265,-1.4299,-1.4299,-1.4299,-1.4299,-1.4299,-1.4299,-1.4299,-1.4299,-1.4299,-1.4299,-1.4299,-1.4299,-1.4299,-1.4299,-1.4299,-1.4299,-1.4299,-1.4299,-1.4557,-1.4646,-1.4646,-1.5344,-1.6049,-1.6753,-1.7701,-1.875,-1.997,-2.0925,-2.1694,-2.2385,-2.36,-2.4286,-2.4543,-2.2643,-2.1435,-2.0578,-2.0318,-1.9622,-1.8837,0.0,0.0,0.0,0.0,0.0,0.0,0.0,0.0,-1.8718,-1.8116,-1.7337,-1.6663,-1.6253,-1.6729,-1.6612,-1.5732,-1.4372,-1.3314,-1.2822,-1.1973,-1.1537,-1.1602,-1.1603,-1.1708,-1.2051,-1.1809,-1.1837,-1.2139,-1.1985,-1.2532,-1.3667,-1.4712,-1.5964,-1.7442,-1.8916,-1.9978,-2.063,-2.1065,-2.148,-2.176,-2.176,-2.2168,-2.2687,-2.2623,-2.2942,-2.3465,-2.4232,-2.4849,-2.527,-2.5889,-2.6215,-2.6398,-2.6672,-2.6718,-2.6698,-2.7229,-2.6965,0.0,0.0,0.0,0.0,0.0,0.0,0.0,0.0,-1.8466,-1.7959,-1.6379,-1.6103,-1.5932,-1.5287,-1.4981,-1.4758,-1.4934,-1.4793,-1.4682,-1.4808,-1.4829,-1.4829,-1.4829,-1.4564,-1.4299,-1.4476,-1.4476,-1.4476,-1.4653,-1.4741,-1.4741,-1.4741,-1.4741,-1.4653,-1.4476,-1.4564,-1.4564,-1.4476,-1.4999,-1.5344,-1.5433,-1.6481,-1.7447,-1.841,-1.9535,-2.0828,-2.2395,-2.3084,-2.4115,-2.5239,-2.5665,-2.5835,-2.5921,-2.5921,-2.4971,-2.36,-2.3256,-2.2126,-2.0828,0.0,0.0,0.0,0.0,0.0,0.0,0.0,0.0,0.0,-1.9383,-1.8768,-1.8192,-1.7782,-1.7966,-1.7677,-1.6587,-1.5191,-1.3997,-1.322,-1.272,-1.2289,-1.1946,-1.2311,-1.2673,-1.297,-1.2909,-1.2881,-1.2829,-1.3245,-1.355,-1.3731,-1.4864,-1.5998,-1.7141,-1.8794,-1.9878,-2.0553,-2.1516,-2.2094,-2.2397,-2.2397,-2.2804,-2.3514,-2.4072,-2.4371,-2.4466,-2.454,-2.5226,-2.6017,-2.6048,-2.5891,-2.5764,-2.6004,-2.5689,-2.524,-2.5598,-2.5241,-2.4716,-2.4341,-2.3082,-2.1531,-2.026,-1.9422,-1.8633,0.0,-1.6963,-1.655,-1.6138,-1.5822,-1.5756,-1.6121,-1.6265,-1.639,-1.6599,-1.6697,-1.6737,-1.6753,-1.6761,-1.6761,-1.6761,-1.5352,-1.4476,-1.4911,-1.4903,-1.5256,-1.6137,-1.6137,-1.6137,-1.6137,-1.6137,-1.5785,-1.4911,-1.5352,-1.5352,-1.4911,-1.5785,-1.6481,-1.6912,-1.8226,-1.9361,-2.0327,-2.204,-2.317,-2.388,-2.5153,-2.6273,-2.722,-2.722,-2.7474,-2.7883,-2.7883,-2.7545,-2.6783,-2.5068,-2.4372,-2.4115,0.0,0.0,0.0,0.0,0.0,0.0,0.0,0.0,0.0,0.0,-2.0545,-2.0119,-1.9479,-1.8649,-1.796,-1.7337,-1.5744,-1.4703,-1.4665,-1.4033,-1.3839,-1.4291,-1.464,-1.5105,-1.5576,-1.5207,-1.506,-1.51,-1.4499,-1.4474,-1.5048,-1.5524,-1.6481,-1.7936,-1.9214,-2.0276,-2.1175,-2.2177,-2.2873,-2.344,-2.3827,-2.4663,-2.568,-2.5753,-2.6252,-2.6775,-2.553,-2.5252,0.0,-2.5206,-2.5077,-2.4952,-2.5275,-2.4785,-2.4295,-2.5017,-2.4349,-2.3163,-2.201,-2.0837,-1.9685,-1.8435,-1.7827,-1.7348,-1.6595,-1.6345,-1.6266,-1.618,-1.6435,-1.6726,-1.7069,-1.7349,-1.7639,-1.7827,-1.7921,-1.7885,-1.7885,-1.7885,-1.7885,-1.7885,-1.7184,-1.6577,-1.6225,-1.6489,-1.6753,-1.7192,-1.7447,-1.7622,-1.7622,-1.7359,-1.7008,-1.6665,-1.6577,-1.6577,-1.6665,-1.7534,-1.8313,-1.8741,-2.0395,-2.1531,-2.2223,-2.3772,-2.5068,-2.6103,-2.6953,-2.7545,-2.7897,-2.7897,-2.7981,-2.8221,-2.8221,-2.8065,-2.7812,-2.6698,-2.6006,-2.5495,0.0,0.0,0.0,0.0,0.0,0.0,0.0,0.0,0.0,0.0,0.0,-2.1585,-2.081,-1.9559,-1.866,-1.8218,-1.6756,-1.5994,-1.6255,-1.5784,-1.5887,-1.6628,-1.6997,-1.7538,-1.8175,-1.7669,-1.757,-1.7903,-1.6882,-1.6743,-1.7424,-1.7489,-1.8242,-1.9555,-2.0548,-2.1437,-2.2257,-2.3306,-2.4085,-2.4761,-2.5426,-2.651,-2.7749,-2.7441,-2.7891,-2.8455,-2.6665,-2.5862,-2.5579,-2.5231,-2.4842,-2.458,-2.4856,-2.421,-2.3431,-2.4089,-2.2976,-2.1184,-1.9708,-1.874,-1.7812,-1.6748,-1.6467,-1.6371,-1.5988,-1.6262,-1.6615,-1.6952,-1.7485,-1.8125,-1.8772,-1.9096,-1.9381,-1.9846,-1.9884,-1.9894,-2.0047,-1.9913,-1.9884,-1.9884,-1.9828,-1.9559,-1.8931,-1.8549,-1.8584,-1.9099,-1.9448,-1.9622,-1.9622,-1.9361,-1.8925,-1.841,-1.8322,-1.8322,-1.841,-1.9535,-2.0395,-2.0828,-2.2643,-2.3686,-2.4115,-2.5409,-2.6613,-2.7728,-2.8065,-2.8221,-2.8221,-2.8221,-2.8234,-2.8403,-2.8403,-2.8473,-2.8473,-2.815,-2.7461,-2.6698,0.0,0.0,0.0,0.0,0.0,0.0,0.0,0.0,0.0,0.0,0.0,0.0,0.0,-2.0926,-2.0137,-1.9241,-1.8704,-1.8217,-1.7781,-1.8167,-1.834,-1.8319,-1.8968,-1.954,-2.0107,-2.0107,-2.038,-2.0954,-2.089,-2.0903,-2.0963,-2.1306,-2.1648,-2.2003,-2.3029,-2.3714,-2.4104,-2.5062,-2.5972,-2.6672,-2.6997,-2.8,-2.9211,-2.9137,-2.9091,-2.8867,-2.7761,-2.7373,-2.7289,-2.6871,-2.5839,-2.4796,-2.4827,-2.3966,-2.2783,-2.2268,-2.0516,-1.8542,-1.7599,-1.6694,-1.5873,-1.5217,-1.5376,-1.5682,-1.5612,-1.6552,-1.7759,-1.8705,-1.9219,-1.9989,-2.1704,-2.1863,-2.204,-2.3292,-2.341,-2.3586,-2.3824,-2.3654,-2.341,-2.341,-2.3207,-2.315,-2.3388,-2.1216,-2.0568,-2.2395,-2.2568,-2.2568,-2.2568,-2.2568,-2.1704,-1.9873,-2.0752,-2.0752,-1.9873,-2.1704,-2.2826,-2.3245,-2.4629,-2.558,-2.6018,-2.6965,-2.7728,-2.815,-2.8221,-2.8221,-2.8221,-2.8221,-2.8403,-2.874,-2.874,-2.9076,-2.9481,-2.9398,-2.8894,-2.8136,0.0,0.0,0.0,0.0,0.0,0.0,0.0,0.0,0.0,0.0,0.0,0.0,0.0,0.0,0.0,0.0,-2.0054,-1.9716,-1.9449,-1.9702,-1.9891,-2.0136,-2.0767,-2.1329,-2.1729,-2.1929,-2.2143,-2.2357,-2.2377,-2.2566,-2.2742,-2.2953,-2.3426,-2.4072,-2.4452,-2.4908,-2.5494,-2.6473,-2.7202,-2.7813,-2.8842,-2.9626,-3.0218,-3.0176,-3.0057,-2.9817,0.0,-2.8119,-2.7557,-2.7199,-2.6503,-2.5746,-2.5331,-2.4174,-2.2581,-2.0668,-1.8976,-1.7585,-1.6676,-1.6069,-1.5636,-1.5523,-1.5833,-1.6302,-1.7171,-1.8035,-1.9049,-2.037,-2.1071,-2.1767,-2.2781,-2.3038,-2.3284,-2.3869,-2.3916,-2.3998,-2.4257,-2.4222,-2.4163,-2.4163,-2.4092,-2.4306,-2.4903,-2.3648,-2.3165,-2.3932,-2.4286,-2.4458,-2.4458,-2.4201,-2.3772,-2.3073,-2.3084,-2.3084,-2.3073,-2.4029,-2.4714,-2.5153,-2.6273,-2.7037,-2.7461,-2.7812,-2.8065,-2.8221,-2.8221,-2.8221,-2.8221,-2.8221,-2.8403,-2.8824,-2.9146,-2.9579,-2.9998,-3.0248,-3.015,-2.9816,0.0,0.0,0.0,0.0,0.0,0.0,0.0,0.0,0.0,0.0,0.0,0.0,0.0,0.0,0.0,0.0,0.0,-2.125,-2.126,-2.1386,-2.1603,-2.1913,-2.2348,-2.2815,-2.3466,-2.37,-2.4055,-2.4471,-2.4718,-2.5,-2.5329,-2.5532,-2.5942,-2.6487,-2.66,-2.6939,-2.7393,-2.8262,-2.8808,-2.9155,-3.0158,-3.0642,-3.0782,-3.0488,-3.0206,0.0,-2.8916,-2.8052,-2.7437,-2.7325,-2.6762,-2.6005,-2.5384,-2.3794,-2.174,-1.9781,-1.8331,-1.7194,-1.6539,-1.6146,-1.6059,-1.6311,-1.685,-1.7661,-1.8827,-1.9818,-2.0908,-2.2139,-2.2687,-2.3214,-2.376,-2.3818,-2.4009,-2.4539,-2.4676,-2.4876,-2.525,-2.53,-2.53,-2.53,-2.5213,-2.5464,-2.6173,-2.5712,-2.5443,-2.5641,-2.6006,-2.6188,-2.6188,-2.5835,-2.558,-2.5239,-2.5056,-2.5068,-2.5239,-2.5835,-2.6358,-2.6868,-2.7474,-2.7897,-2.8221,-2.8221,-2.8221,-2.8221,-2.8221,-2.8221,-2.8221,-2.8221,-2.8655,-2.9328,-2.9816,-3.0401,-3.1164,-3.1647,-3.1647,-3.1331,0.0,0.0,0.0,0.0,0.0,0.0,0.0,0.0,0.0,0.0,0.0,0.0,0.0,0.0,0.0,0.0,0.0,0.0,-2.2949,-2.314,-2.3323,-2.3486,-2.3558,-2.4089,-2.515,-2.5184,-2.5829,-2.7117,-2.7641,-2.8048,-2.8359,-2.873,-2.8924,-2.8941,-2.9297,-2.9501,-2.9537,-3.0228,-3.0518,-3.0644,-3.0995,-3.1065,-3.086,-3.0187,-2.9546,-2.8933,-2.7957,-2.7288,-2.6972,-2.7243,-2.6609,-2.5567,-2.4902,-2.2803,-2.0456,-1.9694,-1.8419,-1.7202,-1.7126,-1.6953,-1.7007,-1.7476,-1.8523,-1.9683,-2.0537,-2.1926,-2.3129,-2.3785,-2.3925,-2.4078,-2.4636,-2.4357,-2.4311,-2.5295,-2.5718,-2.6119,-2.6694,-2.6787,-2.68,-2.68,-2.6573,-2.664,-2.7215,-2.7281,-2.737,-2.7519,-2.7558,-2.7558,-2.7558,-2.7558,-2.7135,-2.6273,-2.6613,-2.6613,-2.6188,-2.7135,-2.7728,-2.8221,-2.8221,-2.8221,-2.8221,-2.8221,-2.8221,-2.8221,-2.8221,-2.8234,-2.8221,-2.8221,-2.9076,-3.0332,-3.0719,-3.1715,-3.2901,-3.3378,-3.3296,-3.2572,0.0,0.0,0.0,0.0,0.0,0.0,0.0,0.0,0.0,0.0,0.0,0.0,0.0,0.0,0.0,0.0,0.0,0.0,-2.3515,-2.387,-2.3944,-2.3651,-2.3743,-2.3997,-2.4456,-2.4951,-2.5505,-2.6172,-2.6877,-2.7275,-2.7326,-2.7705,-2.8048,-2.8396,-2.8692,-2.9076,-2.9651,-3.0301,-3.0596,-3.0656,-3.1269,-3.1015,-3.0335,-3.0161,-2.9391,-2.8254,-2.7567,-2.6734,-2.6104,-2.6662,-2.6056,-2.4928,-2.3811,-2.2334,-2.0815,-1.9802,-1.8684,-1.784,-1.8104,-1.8061,-1.8349,-1.9926,-2.0641,-2.1335,-2.2637,-2.3359,-2.3879,-2.4308,-2.4187,-2.4055,-2.4288,-2.3832,-2.3785,-2.4655,-2.5104,-2.5504,-2.6092,-2.636,-2.6507,-2.6507,-2.6627,-2.6854,-2.7228,-2.7455,-2.7749,-2.8039,-2.7981,-2.7981,-2.7981,-2.7981,-2.7897,-2.763,-2.7799,-2.7799,-2.763,-2.7883,-2.8065,-2.8221,-2.8221,-2.8221,-2.8221,-2.8221,-2.8221,-2.8221,-2.8221,-2.8403,-2.8655,-2.8655,-2.9649,-3.1233,-3.1963,-3.2886,-3.3804,-3.4294,-3.3968,-3.3164,0.0,0.0,0.0,0.0,0.0,0.0,0.0,0.0,0.0,0.0,0.0,0.0,0.0,0.0,0.0,0.0,0.0,0.0,0.0,-2.4493,-2.4411,-2.4136,-2.4002,-2.4096,-2.4405,-2.4796,-2.5264,-2.5778,-2.6436,-2.6755,-2.6774,-2.7114,-2.7508,-2.7976,-2.8365,-2.8908,-2.9575,-3.0302,-3.0701,0.0,0.0,-3.0984,-3.0131,-2.9908,-2.8998,-2.7691,-2.7031,-2.6052,-2.5218,-2.5383,-2.5093,-2.4455,-2.3459,-2.2591,-2.174,-2.1123,-2.052,-2.0094,-2.0727,-2.1068,-2.1547,-2.2992,-2.3582,-2.4082,-2.5094,-2.532,-2.5427,-2.5312,-2.4797,-2.4385,-2.4298,-2.3773,-2.3631,-2.452,-2.4978,-2.5438,-2.597,-2.6319,-2.6533,-2.64,-2.664,-2.6934,-2.7241,-2.7522,-2.7816,-2.8207,-2.8221,-2.8221,-2.8221,-2.8221,-2.8221,-2.8221,-2.8221,-2.8221,-2.8221,-2.8221,-2.8221,-2.8221,-2.8221,-2.8221,-2.8221,-2.8221,-2.8221,-2.8221,-2.8221,-2.8403,-2.8824,-2.8992,-3.015,-3.1881,-3.2952,-3.4033,-3.5027,-3.5433,-3.5109,-3.4213,0.0,0.0,0.0,0.0,0.0,0.0,0.0,0.0,0.0,0.0,0.0,0.0,0.0,0.0,0.0,0.0,0.0,0.0,0.0,0.0,-2.4808,-2.4675,-2.4212,-2.4148,-2.4591,-2.4591,-2.4899,-2.5518,-2.5937,-2.6133,-2.6133,-2.6504,-2.6934,-2.7454,-2.8021,-2.8663,-2.939,-3.0202,-3.0683,-3.0927,-3.1211,-3.0916,-3.0286,0.0,0.0,-2.75,-2.6545,-2.5461,-2.4471,-2.4034,-2.4022,-2.4141,-2.3548,-2.3206,-2.2984,-2.301,-2.2917,-2.3098,-2.4081,-2.4763,-2.5296,-2.6228,-2.6797,-2.712,-2.7341,-2.7312,-2.6929,-2.6299,-2.5496,-2.4833,-2.4477,-2.3975,-2.3818,-2.4586,-2.5195,-2.5657,-2.6007,-2.6479,-2.6747,-2.6413,-2.664,-2.6934,-2.7241,-2.7522,-2.7816,-2.8207,-2.8221,-2.8221,-2.8221,-2.8221,-2.8221,-2.8221,-2.8221,-2.8221,-2.8221,-2.8221,-2.8221,-2.8221,-2.8221,-2.8221,-2.8221,-2.8221,-2.8221,-2.8221,-2.8221,-2.8487,-2.8908,-2.9398,-3.0719,-3.2541,-3.3838,-3.5156,-3.6339,-3.6724,-3.6241,-3.5271,0.0,0.0,0.0,0.0,0.0,0.0,0.0,0.0,0.0,0.0,0.0,0.0,0.0,0.0,0.0,0.0,0.0,0.0,0.0,0.0,0.0,-2.4563,-2.4106,-2.3885,-2.3958,-2.3978,-2.4173,-2.4648,-2.4727,-2.4766,-2.4766,-2.4824,-2.5293,-2.6074,-2.6594,-2.7429,-2.8482,-2.9308,-3.0013,-3.0592,-3.0896,-3.1011,-3.0943,0.0,0.0,0.0,-2.6765,-2.5414,-2.4486,-2.4021,-2.394,-2.3888,-2.3495,-2.357,-2.3762,-2.4119,-2.4511,-2.5139,-2.6416,-2.6988,-2.7494,-2.8593,-2.8695,-2.8541,-2.8639,-2.7984,-2.7173,-2.6499,-2.5584,-2.4895,-2.4574,-2.4443,-2.4503,-2.4844,-2.5568,-2.6164,-2.6052,-2.6575,-2.6849,-2.6479,-2.664,-2.6934,-2.7241,-2.7522,-2.7816,-2.8207,-2.8221,-2.8221,-2.8221,-2.8221,-2.8221,-2.8221,-2.8221,-2.8221,-2.8221,-2.8221,-2.8221,-2.8221,-2.8221,-2.8221,-2.8221,-2.8221,-2.8221,-2.8221,-2.8221,-2.8642,-2.9398,-2.9914,-3.1565,-3.3838,-3.514,-3.6287,-3.7205,-3.7605,-3.6787,-3.5318,0.0,0.0,0.0,0.0,0.0,0.0,0.0,0.0,0.0,0.0,-2.871,-2.7655,0.0,0.0,0.0,0.0,0.0,0.0,0.0,0.0,0.0,0.0,0.0,0.0,-2.3634,-2.3634,-2.3806,-2.4102,0.0,-2.4199,-2.4414,-2.4414,-2.4766,-2.5391,-2.5821,-2.6468,-2.7366,-2.8147,-2.9034,-2.9992,-3.0685,-3.1202,0.0,0.0,0.0,0.0,-2.7472,-2.6154,-2.5235,-2.4865,-2.459,-2.4381,-2.394,-2.4195,-2.4768,-2.5781,-2.6691,-2.7733,-2.9663,-3.0565,-3.1121,-3.1804,-3.1547,-3.1007,-3.0595,-2.9625,-2.8656,-2.7917,-2.6954,-2.6229,-2.6087,-2.5674,-2.5493,-2.6095,-2.6538,-2.6763,-2.6716,-2.708,-2.712,-2.6486,-2.6626,-2.6934,-2.7241,-2.7522,-2.7816,-2.8207,-2.8221,-2.8221,-2.8221,-2.8221,-2.8318,-2.8487,-2.8487,-2.8655,-2.8894,-2.8894,-2.8894,-2.8894,-2.8894,-2.8726,-2.8487,-2.8487,-2.8403,-2.8221,-2.8221,-2.8571,-2.916,-2.9928,-3.1482,-3.3592,-3.5059,-3.6529,-3.7765,-3.8163,-3.7667,-3.6609,0.0,0.0,0.0,0.0,0.0,0.0,0.0,-2.7988,-2.9397,-3.0003,-3.0487,-3.017,-2.841,-2.7336,0.0,0.0,0.0,0.0,0.0,0.0,0.0,0.0,0.0,0.0,-2.3894,0.0,0.0,-2.4016,-2.4016,0.0,0.0,0.0,0.0,0.0,-2.5362,-2.5837,-2.6448,-2.7167,-2.8166,0.0,0.0,-3.1367,0.0,0.0,0.0,0.0,0.0,-2.7409,-2.6444,-2.5939,-2.5586,-2.5216,-2.4721,-2.495,-2.5761,-2.7232,-2.8666,-3.0193,-3.2358,-3.3586,-3.4376,-3.4566,-3.4036,-3.3233,-3.2271,-3.1101,-3.0052,-2.9253,-2.8421,-2.7773,-2.7712,-2.7152,-2.6809,-2.7467,-2.7609,-2.7629,-2.7378,-2.751,-2.7424,-2.6716,-2.6847,-2.7189,-2.7636,-2.7852,-2.8149,-2.8628,-2.8655,-2.8473,-2.8221,-2.8221,-2.8403,-2.8824,-2.8908,-2.916,-2.9663,-2.9732,-2.9816,-2.9816,-2.9649,-2.9398,-2.8992,-2.8824,-2.8571,-2.8221,-2.8221,-2.8403,-2.8908,-2.9844,-3.1316,-3.3116,-3.4815,-3.6609,-3.8163,-3.8719,-3.864,-3.8163,0.0,0.0,0.0,0.0,0.0,0.0,0.0,-2.8386,-2.9805,-3.0767,-3.1249,-3.1335,-3.0981,-2.9305,0.0,0.0,0.0,0.0,0.0,0.0,0.0,0.0,0.0,0.0,0.0,0.0,0.0,-2.4697,-2.4697,0.0,0.0,0.0,0.0,0.0,0.0,-2.5742,-2.6187,-2.6716,0.0,0.0,0.0,0.0,0.0,0.0,0.0,0.0,0.0,-2.926,-2.8131,-2.7121,-2.6519,-2.623,-2.5764,-2.6007,-2.6576,-2.7761,-2.9697,-3.1716,-3.3271,-3.4797,-3.5886,-3.5559,-3.4865,-3.3952,-3.2765,-3.1494,-3.0401,-2.9642,-2.9125,-2.8792,-2.8475,-2.8556,-2.8535,-2.8048,-2.8477,-2.8578,-2.7532,-2.768,-2.7671,-2.7179,-2.7375,-2.7913,-2.892,-2.9015,-2.9242,-2.9983,-3.0012,-2.9495,-2.8234,-2.8221,-2.8403,-2.8824,-2.923,-2.9663,-3.0095,-3.0499,-3.0651,-3.0651,-3.0332,-2.9914,-2.9398,-2.8992,-2.8571,-2.8221,-2.8221,-2.8403,-2.8908,-2.9844,-3.1482,-3.351,-3.5221,-3.701,-3.864,-3.9509,-3.9509,-3.9114,0.0,0.0,0.0,0.0,0.0,0.0,0.0,-2.8476,-3.0046,-3.0485,-3.1296,-3.1726,-3.1337,-3.0061,0.0,0.0,0.0,0.0,0.0,0.0,0.0,0.0,0.0,0.0,0.0,0.0,-2.5879,-2.5643,-2.5785,0.0,0.0,0.0,0.0,0.0,0.0,-2.5966,-2.5888,-2.6583,0.0,0.0,0.0,0.0,0.0,0.0,0.0,0.0,0.0,0.0,-2.9232,-2.8658,-2.8082,-2.758,-2.7244,-2.7442,-2.7948,-2.8884,-3.0688,-3.2765,-3.4738,-3.6201,-3.7177,-3.6713,-3.5985,-3.4975,-3.3367,-3.2308,-3.1356,-3.0517,-3.0094,-2.9804,-2.9667,-2.9443,-2.9203,-2.9177,-2.9151,-2.8977,-2.8777,-2.8435,-2.8259,-2.8377,-2.8417,-2.878,-2.9601,-3.0055,-3.0573,-3.1271,-3.1316,-3.115,-3.0553,-2.9816,-2.9579,-2.9983,-3.0484,-3.115,-3.2128,-3.2541,-3.2788,-3.2788,-3.2376,-3.1467,-3.0303,-2.983,-2.9076,-2.8221,-2.8221,-2.8318,-2.8487,-2.9411,-3.0886,-3.2772,-3.4571,-3.6592,-3.87,-3.9588,-3.9981,-3.9962,0.0,0.0,0.0,0.0,0.0,0.0,-2.6269,-2.8244,-2.9703,-2.9558,-3.0563,-3.1207,-3.088,-3.0106,-2.9768,-3.0042,0.0,0.0,0.0,0.0,0.0,0.0,0.0,0.0,0.0,0.0,-2.6968,-2.6716,-2.6777,-2.687,0.0,0.0,-2.6855,-2.6562,0.0,0.0,0.0,0.0,0.0,0.0,0.0,0.0,0.0,0.0,0.0,0.0,0.0,0.0,0.0,0.0,0.0,-2.8689,-2.8421,-2.8579,-2.8937,-2.9497,-3.1133,-3.3196,-3.5148,-3.6698,-3.7648,-3.7059,-3.6367,-3.5371,-3.3633,-3.2676,-3.1934,-3.1074,-3.0704,-3.0567,-3.0567,-3.0157,-2.9879,-3.0062,-2.9788,-2.9502,-2.9549,-2.9125,-2.8979,-2.9363,-2.9597,-3.0044,-3.0961,-3.1826,-3.2377,-3.2526,-3.2896,-3.2912,-3.2558,-3.2012,-3.1625,-3.1399,-3.1813,-3.2705,-3.4001,-3.4571,-3.4913,-3.4832,-3.4164,-3.2936,-3.1369,-3.0582,-2.9495,-2.8403,-2.8221,-2.8221,-2.8305,-2.9328,-3.0651,-3.2293,-3.4327,-3.6511,-3.8682,-3.9726,-4.0372,-4.0685,0.0,0.0,0.0,0.0,0.0,0.0,0.0,-2.7625,-2.8556,-2.8092,-2.9035,-2.9698,-2.9749,-2.9495,-2.9408,-2.9698,0.0,0.0,0.0,0.0,0.0,0.0,0.0,0.0,0.0,0.0,-2.795,-2.7855,-2.7631,-2.7461,-2.7379,-2.7094,-2.7012,-2.6992,0.0,0.0,0.0,0.0,0.0,0.0,0.0,0.0,0.0,0.0,0.0,0.0,0.0,0.0,0.0,0.0,0.0,0.0,0.0,-2.919,-2.9494,-2.9379,-3.091,-3.2973,-3.4128,-3.5807,-3.7109,-3.625,-3.5723,-3.4941,-3.3203,-3.248,-3.1934,-3.1074,-3.0898,-3.0898,-3.0898,-3.0898,-3.0762,-3.045,-3.0441,-3.0246,-2.9562,-2.9535,-2.9705,-3.0106,-3.0893,-3.2002,-3.349,-3.4657,-3.4852,-3.3599,-3.4643,-3.4852,-3.352,-3.4643,-3.4531,-3.2854,-3.3183,-3.4001,-3.5399,-3.6207,-3.6689,-3.6689,-3.5302,-3.4001,-3.2705,-3.0998,-2.9663,-2.874,-2.8403,-2.8221,-2.8305,-2.9663,-3.0915,-3.2376,-3.4977,-3.7072,-3.8761,-4.004,-4.0763,-4.1172,0.0,0.0,0.0,0.0,0.0,0.0,0.0,-2.8255,-2.8885,-2.8279,-2.8663,-2.8865,-2.8714,-2.8196,-2.795,-2.818,0.0,0.0,0.0,0.0,0.0,0.0,0.0,0.0,0.0,0.0,-2.8833,-2.8458,-2.8502,-2.8398,-2.8164,-2.8172,-2.7891,-2.7461,-2.7376,-2.7168,0.0,0.0,0.0,0.0,0.0,0.0,-3.2308,0.0,0.0,0.0,0.0,0.0,0.0,0.0,0.0,0.0,0.0,0.0,0.0,-3.0131,-3.1485,-3.3152,-3.4051,-3.5288,-3.6289,-3.5723,-3.5039,-3.4199,-3.3047,-3.2246,-3.1562,-3.0996,-3.0898,-3.0898,-3.0898,-3.0898,-3.0879,-3.0762,-3.0566,-3.0558,-3.0888,-3.0865,-3.1102,-3.2108,-3.316,-3.4284,-3.5199,-3.5955,-3.6308,-3.6142,-3.6499,-3.6517,-3.616,-3.6188,-3.5652,-3.421,-3.4861,-3.5884,-3.7188,-3.7747,-3.7986,-3.7986,-3.693,-3.5463,-3.3608,-3.2128,-3.0817,-2.9747,-2.8908,-2.8655,-2.8655,-2.9761,-3.0984,-3.2376,-3.4977,-3.7072,-3.8761,-4.004,-4.0841,-4.1172,0.0,0.0,0.0,0.0,0.0,0.0,0.0,-2.8307,-2.8612,-2.7858,-2.7914,-2.7955,-2.7672,-2.7312,0.0,-2.7431,0.0,0.0,0.0,0.0,0.0,0.0,0.0,0.0,0.0,-2.9737,-2.9532,-2.9122,-2.9317,-2.9328,-2.9062,-2.9064,-2.8694,-2.8068,-2.7944,-2.7702,0.0,0.0,0.0,0.0,0.0,0.0,-3.1449,0.0,0.0,0.0,0.0,0.0,0.0,0.0,0.0,0.0,0.0,0.0,0.0,0.0,-3.1539,-3.2612,-3.327,-3.425,-3.4941,-3.4512,-3.4004,-3.3359,-3.2519,-3.1894,-3.1406,-3.0976,-3.0898,-3.0898,-3.0898,-3.0898,-3.0898,-3.0898,-3.084,-3.1051,-3.1747,-3.1984,-3.2709,-3.4071,-3.5219,-3.6066,-3.6571,-3.7166,-3.7446,-3.7331,-3.7631,-3.7649,-3.7349,-3.7403,-3.7049,-3.628,-3.6588,-3.7427,-3.8719,-3.9114,-3.9333,-3.9254,-3.8304,-3.6912,-3.5204,-3.3592,-3.2211,-3.1164,-3.0234,-2.9732,0.0,-3.0734,-3.1813,-3.3101,-3.5706,-3.7649,-3.9017,-4.0275,-4.0919,-4.1172,0.0,0.0,0.0,0.0,0.0,0.0,0.0,0.0,0.0,0.0,0.0,-2.6982,-2.6774,-2.6861,0.0,0.0,0.0,0.0,0.0,0.0,0.0,0.0,0.0,0.0,0.0,-3.0211,-3.0112,-2.9888,-3.0092,-3.0155,-3.0099,-2.9816,-2.9396,-2.8761,-2.8344,-2.8226,0.0,0.0,0.0,0.0,-2.9626,-2.9824,0.0,0.0,0.0,0.0,0.0,0.0,0.0,0.0,0.0,0.0,0.0,0.0,0.0,0.0,0.0,0.0,0.0,-3.2739,-3.3242,-3.2851,-3.2734,-3.25,-3.1699,-3.1504,0.0,-3.0976,-3.0898,-3.0898,-3.0898,-3.0898,-3.0898,-3.0898,-3.1211,-3.1641,-3.2109,-3.3068,-3.4345,-3.6009,-3.6942,-3.7436,-3.7473,-3.8114,-3.8284,-3.7514,-3.8207,-3.8265,-3.7514,-3.8226,-3.8629,-3.8747,-3.8282,-3.871,-3.9902,-4.0275,-4.0509,-4.0509,-3.9235,-3.8268,-3.7295,-3.5221,-3.3854,-3.2952,-3.2061,-3.1399,-3.1067,-3.2376,-3.3363,-3.4409,-3.6992,-3.8524,-3.943,-4.0704,-4.1172,-4.1172,0.0,0.0,0.0,0.0,0.0,0.0,0.0,0.0,0.0,0.0,0.0,-2.6718,-2.6087,-2.6005,0.0,0.0,0.0,0.0,0.0,0.0,0.0,0.0,0.0,0.0,0.0,-3.0397,-3.0566,-3.0722,-3.1113,-3.13,-3.1227,-3.0918,-3.0422,-2.9691,-2.9116,-2.8661,0.0,0.0,0.0,0.0,-2.9626,-2.9824,0.0,0.0,0.0,0.0,-2.9793,-2.9797,0.0,0.0,0.0,0.0,0.0,0.0,0.0,0.0,-3.0957,-3.1074,-3.1171,0.0,-3.2441,-3.2344,-3.207,-3.1758,0.0,-3.1269,-3.1016,-3.0918,-3.0898,-3.0898,-3.0898,-3.0898,-3.0898,-3.0898,-3.0976,-3.1309,-3.207,-3.3784,-3.5373,-3.6472,-3.7268,-3.7753,-3.7778,-3.8258,-3.8545,-3.8355,-3.8526,-3.8545,-3.8355,-3.8526,-3.8779,-3.9038,-3.9005,-3.9337,-4.0353,-4.0431,-4.0509,-4.0509,-3.9883,-3.9175,-3.8268,-3.6752,-3.5804,-3.514,-3.3592,-3.2854,-3.2854,-3.351,-3.4083,-3.4815,-3.7472,-3.878,-3.943,-4.0704,-4.1172,-4.1172,0.0,0.0,0.0,0.0,0.0,0.0,0.0,0.0,0.0,0.0,0.0,0.0,0.0,0.0,0.0,0.0,0.0,0.0,0.0,0.0,0.0,0.0,0.0,-2.9988,-2.9715,-3.0437,-3.0839,-3.1012,-3.1802,-3.2174,-3.2145,-3.1891,-3.1249,-3.0318,-2.9343,-2.8674,0.0,0.0,0.0,0.0,-2.9626,0.0,0.0,0.0,0.0,0.0,-2.8984,-2.9101,0.0,-2.9277,-2.9394,-2.9665,0.0,0.0,0.0,0.0,-3.0064,-3.0102,-3.0181,-3.0898,-3.1582,-3.1582,-3.125,-3.0918,-3.0918,-3.0586,-3.0332,-3.0527,-3.0566,-3.0644,-3.0859,-3.0898,-3.0898,-3.0898,-3.123,-3.1992,-3.3437,-3.5156,-3.6445,-3.6894,-3.7539,-3.7851,-3.7656,-3.7851,-3.7988,-3.7988,-3.8164,-3.8281,-3.8281,-3.8476,-3.8769,-3.9199,-3.9199,-3.9651,-4.0453,-4.0356,-4.0453,-4.0841,-4.0181,-3.9772,-3.9471,-3.8365,-3.7649,-3.7152,-3.6011,-3.5366,-3.5204,-3.5706,-3.6109,-3.6672,-3.8524,-3.949,-3.9962,-4.086,-4.1172,-4.1172,0.0,0.0,0.0,0.0,0.0,0.0,0.0,0.0,0.0,0.0,0.0,0.0,0.0,0.0,0.0,0.0,0.0,0.0,0.0,0.0,0.0,0.0,0.0,-2.9185,-2.9088,-3.0208,-3.0912,-3.1125,-3.2243,-3.2869,-3.3037,-3.2836,-3.2075,-3.0943,-2.9489,-2.8674,0.0,0.0,0.0,-2.9473,-2.9607,0.0,0.0,0.0,0.0,0.0,0.0,0.0,0.0,-2.8828,-2.9062,-2.9375,-2.9453,0.0,0.0,0.0,0.0,0.0,-2.9089,-2.9795,-3.0568,-3.0743,-3.0489,-3.0138,-3.0195,-2.9863,-2.9687,-3.006,-3.0138,-3.0217,-3.0626,-3.0645,-3.0665,-3.0664,-3.1457,-3.2715,-3.4591,-3.6014,-3.6918,-3.6906,-3.7436,-3.7604,-3.7254,-3.7234,-3.7305,-3.7305,-3.7676,-3.793,-3.793,-3.834,-3.875,-3.9101,-3.9101,-3.9492,-4.0312,-4.0039,-4.0254,-4.0976,-4.0279,-4.0086,-4.0491,-3.971,-3.9198,-3.884,-3.8365,-3.795,-3.7631,-3.8029,-3.8365,-3.8761,-3.9666,-4.0216,-4.0588,-4.0997,-4.1172,-4.1172,0.0,0.0,0.0,0.0,0.0,0.0,0.0,0.0,0.0,0.0,0.0,0.0,0.0,0.0,0.0,0.0,0.0,0.0,0.0,0.0,0.0,-2.7653,-2.7821,-2.8241,-2.8981,-2.964,-3.0531,-3.1591,-3.2402,-3.3229,-3.412,-3.412,-3.3305,-3.1758,-3.0192,-2.9152,-2.868,0.0,0.0,-2.9043,-2.9414,0.0,0.0,0.0,0.0,0.0,0.0,0.0,0.0,-2.8398,-2.8437,-2.8555,-2.8906,0.0,0.0,0.0,0.0,0.0,-2.8143,-2.842,-2.906,-3.0179,-3.02,-2.9929,-3.0138,-2.9863,-2.9631,-2.9852,-2.9872,-2.9834,-2.9651,-2.9608,-2.9661,-2.9717,-3.0692,-3.169,-3.2337,-3.3842,-3.4966,-3.5304,-3.6265,-3.6849,-3.6791,-3.7074,-3.7305,-3.7305,-3.7676,-3.793,-3.793,-3.834,-3.8613,-3.8672,-3.8672,-3.8906,-3.9394,-3.9726,-3.9961,-4.0098,-3.9944,-4.0139,-4.0452,-3.999,-3.9931,-4.0197,-3.9411,-3.9017,-3.9017,-3.9096,-3.9096,-3.9254,-4.0118,-4.0431,-4.0588,-4.0997,-4.1172,-4.1172,0.0,0.0,0.0,0.0,0.0,0.0,0.0,0.0,0.0,0.0,0.0,0.0,0.0,0.0,0.0,0.0,0.0,0.0,0.0,0.0,0.0,-2.757,-2.7392,-2.7554,-2.8195,-2.9204,-3.0321,-3.1403,-3.2323,-3.3379,-3.4549,-3.4039,-3.3108,-3.194,-3.0496,-2.9416,-2.8714,-2.9238,-2.9286,-2.8891,0.0,0.0,0.0,0.0,0.0,0.0,0.0,0.0,0.0,0.0,-2.8174,-2.832,-2.8354,0.0,0.0,0.0,0.0,0.0,-2.6385,-2.6236,-2.6579,-2.7723,-2.8399,-2.8728,-2.8766,-2.8631,-2.8668,-2.9107,-2.926,-2.9255,-2.9179,-2.92,-2.9319,-2.9825,-3.0552,-3.1253,-3.1863,-3.3005,-3.3882,-3.4003,-3.4896,-3.5557,-3.5718,-3.6116,-3.6394,-3.6601,-3.6992,-3.7246,-3.7246,-3.7871,-3.8223,-3.8223,-3.8457,-3.8672,-3.8867,-3.9082,-3.9414,-3.9883,-3.9648,-3.9883,-4.0527,-4.0297,-4.0434,-4.0841,-4.0451,-4.0294,-4.0294,-4.0294,-4.0294,-4.0372,-4.0763,-4.0841,-4.0919,-4.1094,-4.1172,-4.1172,0.0,0.0,0.0,0.0,0.0,0.0,0.0,0.0,0.0,0.0,0.0,0.0,0.0,0.0,0.0,0.0,0.0,0.0,0.0,0.0,-2.7728,-2.7728,-2.7441,-2.7416,-2.7632,-2.8839,-2.9973,-3.0976,-3.198,-3.3196,-3.466,-3.369,-3.2892,-3.2165,-3.0769,-2.9627,-2.88,-2.9203,-2.9159,-2.8735,0.0,0.0,0.0,0.0,0.0,0.0,0.0,0.0,0.0,0.0,0.0,0.0,0.0,0.0,0.0,-2.6227,-2.5624,-2.5235,-2.4518,-2.4252,-2.431,-2.482,-2.6087,-2.7262,-2.7381,-2.7419,-2.7586,-2.8369,-2.8494,-2.8517,-2.8535,-2.8341,-2.8442,-2.9241,-2.9658,-3.0189,-3.0857,-3.1736,-3.2384,-3.2402,-3.3335,-3.4143,-3.4602,-3.5139,-3.5626,-3.5947,-3.6426,-3.668,-3.668,-3.7363,-3.7812,-3.791,-3.8242,-3.8476,-3.8574,-3.8574,-3.8906,-3.959,-3.9219,-3.9453,-4.0215,-4.0332,-4.0605,-4.1035,-4.1133,-4.1172,-4.1172,-4.1172,-4.1172,-4.1172,-4.1172,-4.1172,-4.1172,-4.1094,-4.1016,-4.1016,0.0,0.0,0.0,0.0,0.0,0.0,0.0,0.0,0.0,0.0,0.0,0.0,0.0,0.0,0.0,0.0,0.0,0.0,0.0,0.0,-2.7728,-2.7728,-2.8008,-2.8147,-2.8078,-2.8535,-2.926,-3.0273,-3.1266,-3.276,-3.4571,-3.3812,-3.3325,-3.293,-3.1158,-2.9869,-2.9119,-2.9311,-2.8982,-2.8379,-2.8462,0.0,0.0,0.0,0.0,0.0,0.0,0.0,0.0,0.0,0.0,0.0,0.0,0.0,-2.6082,-2.5441,-2.4834,-2.415,-2.3006,-2.2918,-2.2975,-2.215,-2.3748,-2.5804,-2.669,-2.6834,-2.6963,-2.7801,-2.7706,-2.747,-2.7293,-2.6482,-2.6053,-2.6643,-2.7112,-2.7447,-2.7802,-2.883,-2.9725,-2.9983,-3.1687,-3.3116,-3.3811,-3.4831,-3.5626,-3.5947,-3.6426,-3.668,-3.668,-3.709,-3.7519,-3.791,-3.7949,-3.8164,-3.8574,-3.8574,-3.8613,-3.8672,-3.8633,-3.8867,-3.9316,-3.9746,-4.0176,-4.0586,-4.0996,-4.1172,-4.1172,-4.1172,-4.1172,-4.1172,-4.1172,-4.1172,-4.1172,-4.0685,-4.0588,-4.0509,0.0,0.0,0.0,0.0,0.0,0.0,0.0,0.0,0.0,0.0,0.0,0.0,0.0,0.0,0.0,0.0,0.0,0.0,0.0,-2.7519,-2.7826,-2.8047,-2.8203,-2.8276,-2.8206,-2.8638,-2.9213,-3.0108,-3.1593,-3.2664,-3.331,-3.2912,-3.2416,-3.1827,-3.0821,-2.9921,-2.9079,-2.9153,-2.8866,-2.8247,-2.7755,-2.7283,0.0,0.0,0.0,0.0,0.0,0.0,0.0,0.0,-2.5734,-2.5954,-2.5323,-2.5072,-2.4694,-2.3369,-2.2812,-2.2418,-2.1373,-2.1229,-2.1335,-2.1089,-2.1762,-2.2861,-2.4417,-2.5036,-2.5671,-2.6781,-2.7112,-2.7063,-2.6577,-2.5657,-2.5191,-2.5859,-2.6072,-2.6285,-2.6613,-2.7201,-2.7936,-2.8788,-3.0134,-3.1632,-3.3243,-3.4226,-3.5113,-3.5928,-3.6172,-3.6269,-3.6269,-3.668,-3.6973,-3.7148,-3.7402,-3.7617,-3.7773,-3.7773,-3.7773,-3.7793,-3.832,-3.8789,-3.9199,-3.9394,-3.9707,-4.0156,-4.0586,-4.0762,-4.0781,-4.1055,-4.1172,-4.1172,-4.1172,-4.1172,-4.1172,-4.0666,-4.0509,-4.0431,0.0,0.0,0.0,0.0,0.0,0.0,0.0,0.0,0.0,0.0,0.0,0.0,0.0,0.0,0.0,0.0,0.0,0.0,-2.6797,-2.7226,-2.7656,-2.8066,-2.8223,-2.8301,-2.8301,-2.8711,-2.9196,-2.9849,-3.1374,-3.2143,-3.2225,-3.1785,-3.1324,-3.0829,-3.0391,-2.9711,-2.8973,-2.8973,-2.8708,-2.8247,-2.7422,-2.6881,0.0,0.0,0.0,0.0,0.0,0.0,0.0,0.0,-2.4038,-2.4264,-2.3549,-2.327,-2.295,-2.1573,-2.1122,-2.0892,-2.0229,-2.0019,-2.003,-2.0242,-2.034,-2.0785,-2.2257,-2.3348,-2.4403,-2.5665,-2.6198,-2.6295,-2.5843,-2.495,-2.4437,-2.5149,-2.5031,-2.5013,-2.5327,-2.5862,-2.6589,-2.7592,-2.9116,-3.0804,-3.2655,-3.3771,-3.4796,-3.5733,-3.5937,-3.6016,-3.6016,-3.6309,-3.6523,-3.666,-3.6953,-3.7168,-3.7305,-3.7305,-3.7305,-3.7305,-3.7891,-3.8398,-3.8809,-3.8945,-3.9258,-3.9707,-4.0137,-4.0391,-4.0547,-4.084,-4.1055,-4.1172,-4.1172,-4.1172,-4.1094,-4.0529,-4.0275,-4.0197,0.0,0.0,0.0,0.0,0.0,0.0,0.0,0.0,0.0,0.0,0.0,0.0,0.0,0.0,0.0,0.0,0.0,0.0,-2.6387,-2.6777,-2.7207,-2.7708,-2.8066,-2.8281,-2.8301,-2.8711,-2.9141,-2.9626,-3.0359,-3.101,-3.1534,-3.0635,-3.0207,-3.0261,-2.9811,-2.9258,-2.8674,-2.8674,-2.8568,-2.8247,-2.7638,-2.7098,-2.6427,0.0,0.0,0.0,0.0,0.0,0.0,0.0,-2.1566,-2.1561,-2.1278,-2.1024,-2.0698,-2.0372,-2.0099,-1.9802,-1.9514,-1.9371,-1.9396,-1.9408,-1.9586,-1.9939,-2.0583,-2.1918,-2.3394,-2.4381,-2.4844,-2.5069,-2.5099,-2.4237,-2.3686,-2.4302,-2.3802,-2.342,-2.3714,-2.4734,-2.5662,-2.6428,-2.8799,-3.083,-3.187,-3.3719,-3.4969,-3.5391,-3.5781,-3.6016,-3.6016,-3.6016,-3.6211,-3.6641,-3.666,-3.6855,-3.7266,-3.7285,-3.7285,-3.7285,-3.7285,-3.75,-3.793,-3.8359,-3.8789,-3.9199,-3.9687,-4.0117,-4.0508,-4.0508,-4.0781,-4.1172,-4.1172,-4.1172,-4.1094,-4.0216,-3.9902,-3.9745,0.0,0.0,0.0,0.0,0.0,0.0,0.0,0.0,0.0,0.0,0.0,0.0,0.0,0.0,0.0,0.0,0.0,0.0,-2.6816,-2.666,-2.6894,-2.7689,-2.7793,-2.7988,-2.8281,-2.8711,-2.9141,-2.9626,-2.9819,-2.9833,-2.9683,-2.9664,-2.9493,-2.9173,-2.9245,-2.9026,-2.8674,-2.8674,-2.8568,-2.8247,-2.7422,-2.6862,-2.6373,0.0,0.0,0.0,0.0,0.0,0.0,0.0,0.0,0.0,-2.0155,-1.9886,-1.9682,-1.8932,-1.8803,-1.8891,-1.8808,-1.8883,-1.9112,-1.935,-1.9586,-1.988,-2.0281,-2.1396,-2.2822,-2.4222,-2.4442,-2.4355,-2.4355,-2.3623,-2.3144,-2.3323,-2.3133,-2.3033,-2.3113,-2.4094,-2.5149,-2.6132,-2.8277,-3.0254,-3.1815,-3.3189,-3.4332,-3.5351,-3.5508,-3.5586,-3.5586,-3.5586,-3.5488,-3.5293,-3.5605,-3.584,-3.5957,-3.625,-3.6406,-3.6406,-3.6406,-3.6777,-3.748,-3.7617,-3.7734,-3.791,-3.8652,-3.9043,-3.9219,-4.0137,-4.0781,-4.1172,-4.1172,-4.1172,-4.1094,-4.0529,-4.0353,-4.0197,0.0,0.0,0.0,0.0,0.0,0.0,0.0,0.0,0.0,0.0,-2.791,-2.8008,0.0,0.0,0.0,0.0,0.0,0.0,0.0,-2.6426,-2.6699,-2.7383,-2.763,-2.7871,-2.8281,-2.8535,-2.8789,-2.9062,-2.9238,-2.918,-2.8906,-2.8932,-2.8824,-2.8568,-2.8708,-2.8628,-2.8311,-2.8311,-2.8107,-2.774,-2.7088,-2.6645,-2.6201,0.0,0.0,0.0,0.0,0.0,0.0,0.0,0.0,0.0,-1.9124,-1.8862,-1.8727,-1.8071,-1.8076,-1.832,-1.8465,-1.8704,-1.9025,-1.9439,-1.976,-2.0107,-2.0641,-2.1447,-2.2462,-2.3784,-2.3865,-2.3806,-2.3941,-2.3537,-2.3092,-2.2969,-2.2836,-2.2645,-2.2525,-2.3454,-2.4523,-2.5571,-2.7589,-2.9555,-3.1322,-3.2622,-3.3798,-3.4824,-3.5019,-3.5117,-3.5117,-3.5117,-3.498,-3.4707,-3.4961,-3.5117,-3.5117,-3.5371,-3.5488,-3.5508,-3.5684,-3.6035,-3.6562,-3.6894,-3.7148,-3.7344,-3.8203,-3.8574,-3.8672,-3.998,-4.0684,-4.0937,-4.1113,-4.1172,-4.1172,-4.0666,-4.0509,-4.0431,0.0,0.0,0.0,0.0,0.0,0.0,0.0,0.0,0.0,0.0,-2.8301,-2.8281,0.0,0.0,0.0,0.0,0.0,0.0,0.0,0.0,-2.6582,-2.6992,-2.75,-2.793,-2.8281,-2.834,-2.834,-2.8301,-2.8672,-2.8867,-2.8848,-2.8476,-2.8301,-2.8301,-2.8262,-2.8027,-2.7728,-2.7669,-2.7383,-2.6961,-2.6705,-2.6429,-2.605,-2.4961,0.0,0.0,0.0,0.0,0.0,0.0,0.0,0.0,-1.8376,-1.8069,-1.7964,-1.774,-1.7809,-1.8062,-1.841,-1.8718,-1.9105,-1.9666,-2.004,-2.0494,-2.1363,-2.1764,-2.223,-2.3066,-2.3256,-2.3392,-2.3732,-2.3528,-2.3161,-2.2969,-2.2579,-2.2285,-2.2017,-2.2897,-2.3941,-2.4963,-2.6933,-2.8857,-3.0573,-3.2055,-3.3237,-3.3984,-3.4394,-3.4648,-3.4648,-3.4648,-3.4629,-3.459,-3.4609,-3.4648,-3.4648,-3.4687,-3.4707,-3.4707,-3.5176,-3.5391,-3.543,-3.625,-3.6836,-3.7285,-3.8066,-3.8457,-3.8672,-3.9863,-4.041,-4.0566,-4.0957,-4.1133,-4.1172,-4.0763,-4.0588,-4.0509,0.0,0.0,0.0,0.0,0.0,0.0,0.0,0.0,0.0,0.0,0.0,0.0,0.0,0.0,0.0,0.0,0.0,0.0,0.0,0.0,-2.6582,-2.6992,-2.8066,-2.8535,-2.8301,-2.8613,-2.8633,-2.8301,-2.8379,-2.8437,-2.8418,-2.834,-2.8301,-2.8281,-2.7949,-2.7806,-2.7689,-2.7305,-2.7109,-2.6961,-2.6705,-2.6532,-2.6429,-2.5707,-2.5084,0.0,0.0,0.0,0.0,0.0,0.0,0.0,-1.9217,-1.8698,-1.8265,-1.8016,-1.7969,-1.8062,-1.841,-1.8878,-1.9359,-1.9706,-2.0187,-2.0748,-2.1467,-2.1668,-2.1815,-2.223,-2.2311,-2.2311,-2.2443,-2.2377,-2.2284,-2.2217,-2.215,-2.2058,-2.1991,-2.2897,-2.3876,-2.464,-2.6742,-2.8626,-2.9797,-3.1433,-3.2729,-3.3472,-3.3965,-3.4219,-3.4219,-3.4219,-3.4043,-3.3711,-3.4023,-3.4219,-3.4219,-3.4531,-3.4707,-3.4707,-3.5176,-3.5391,-3.541,-3.5918,-3.6406,-3.6816,-3.6992,-3.7656,-3.8594,-3.8887,-3.9609,-4.0527,-4.0625,-4.0879,-4.1172,-4.1094,-4.1094,-4.1016,0.0,0.0,0.0,0.0,0.0,0.0,0.0,0.0,0.0,0.0,0.0,0.0,0.0,0.0,0.0,0.0,0.0,0.0,0.0,0.0,0.0,-2.7305,-2.8164,-2.8516,-2.8301,-2.8388,-2.8334,-2.8121,-2.796,-2.8033,-2.8301,-2.8301,-2.8184,-2.7988,-2.7806,-2.7493,-2.7031,-2.6816,-2.6602,-2.6356,-2.6256,-2.6137,-2.6106,-2.5686,-2.5282,-2.4826,-2.4248,0.0,0.0,0.0,0.0,0.0,0.0,0.0,-1.8893,-1.8318,-1.8331,-1.8454,-1.8506,-1.9025,-1.9679,-2.0107,-2.0548,-2.0962,-2.1269,-2.1336,-2.1376,-2.1537,-2.179,-2.1991,-2.1991,-2.1991,-2.1937,-2.1804,-2.1777,-2.1789,-2.1784,-2.2401,-2.3299,-2.4429,-2.5988,-2.7627,-2.9241,-3.0384,-3.1442,-3.2483,-3.2971,-3.333,-3.3457,-3.3652,-3.3574,-3.3144,-3.3535,-3.3672,-3.3457,-3.3887,-3.4082,-3.4101,-3.4746,-3.5273,-3.5703,-3.5918,-3.6152,-3.6367,-3.6582,-3.7168,-3.7988,-3.8398,-3.9238,-4.0234,-4.0449,-4.0781,-4.1172,-4.1172,-4.1172,-4.1172,0.0,0.0,0.0,0.0,0.0,0.0,0.0,0.0,0.0,0.0,0.0,0.0,0.0,0.0,0.0,0.0,0.0,0.0,0.0,0.0,0.0,0.0,-2.8184,-2.8359,-2.8247,-2.8037,-2.7837,-2.763,-2.7384,-2.7492,-2.797,-2.8155,-2.8052,-2.7826,-2.7669,-2.7168,-2.6484,-2.6348,-2.6074,-2.5693,-2.5693,-2.5693,-2.5693,-2.543,-2.5186,-2.4922,-2.448,-2.4134,-2.3737,-2.3088,0.0,0.0,0.0,0.0,-1.9724,-1.8893,-1.8775,-1.8851,-1.8643,-1.9229,-2.0,-2.0548,-2.0895,-2.1109,-2.1109,-2.1109,-2.1109,-2.1109,-2.1496,-2.183,-2.183,-2.183,-2.175,-2.1574,-2.1534,-2.1518,-2.1579,-2.1915,-2.2793,-2.4409,-2.5272,-2.6594,-2.881,-2.9404,-3.0214,-3.1485,-3.1969,-3.2324,-3.2695,-3.3008,-3.3047,-3.2695,-3.3027,-3.3047,-3.2695,-3.3105,-3.332,-3.332,-3.4258,-3.5156,-3.6016,-3.6016,-3.6016,-3.6035,-3.6406,-3.6836,-3.7344,-3.8066,-3.8926,-3.9824,-4.0254,-4.0684,-4.1074,-4.1152,-4.1172,-4.1172,0.0,0.0,0.0,0.0,0.0,0.0,0.0,0.0,0.0,0.0,-2.7728,-2.7519,0.0,0.0,0.0,0.0,0.0,0.0,0.0,0.0,0.0,0.0,-2.8613,-2.8563,-2.796,-2.8,-2.7557,-2.6574,-2.666,-2.6695,-2.6699,-2.7519,-2.8048,-2.8184,-2.7441,-2.7031,-2.6875,-2.6083,-2.5752,-2.5693,-2.5693,-2.5693,-2.5693,-2.5645,-2.5479,-2.5235,-2.5186,-2.4843,-2.4381,-2.4282,-2.3737,0.0,0.0,0.0,-2.0585,-1.9776,-1.9257,-1.8902,-1.8851,-1.9479,-2.0254,-2.0588,-2.0895,-2.1109,-2.1109,-2.1109,-2.1109,-2.1109,-2.1176,-2.1229,-2.1229,-2.1229,-2.1216,-2.1176,-2.1162,-2.1276,-2.1551,-2.2167,-2.3043,-2.4456,-2.5623,-2.6935,-2.8433,-2.9439,-3.0344,-3.1024,-3.1507,-3.196,-3.2246,-3.2305,-3.2305,-3.2246,-3.2305,-3.2305,-3.2246,-3.2676,-3.2871,-3.2891,-3.4121,-3.5156,-3.6016,-3.6016,-3.6016,-3.6016,-3.6074,-3.6562,-3.7305,-3.7422,-3.8184,-3.9336,-3.9805,-4.0234,-4.0644,-4.1035,-4.1172,-4.1172,0.0,0.0,0.0,0.0,0.0,0.0,0.0,0.0,0.0,0.0,0.0,-2.7226,0.0,0.0,0.0,0.0,0.0,0.0,0.0,0.0,0.0,0.0,-2.834,-2.8369,-2.7906,-2.7257,-2.6513,-2.5736,-2.5201,-2.504,-2.5255,-2.5953,-2.6742,-2.7453,-2.7226,-2.6833,-2.6369,-2.6151,-2.5957,-2.5693,-2.5693,-2.5693,-2.5654,-2.5449,-2.5304,-2.514,-2.4888,-2.4803,-2.4823,-2.463,-2.444,-2.4084,-2.3388,0.0,0.0,0.0,-2.0001,-1.9564,-1.9402,-1.9577,-1.9893,-2.0521,-2.0775,-2.0909,-2.1069,-2.1109,-2.1109,-2.1109,-2.1109,-2.1109,-2.1109,-2.1109,-2.1109,-2.1109,-2.1109,-2.1299,-2.1803,-2.2292,-2.323,-2.4949,-2.5823,-2.6857,-2.8379,-2.8919,-2.955,-3.0306,-3.0825,-3.1315,-3.1797,-3.2031,-3.2051,-3.1816,-3.2031,-3.2051,-3.1816,-3.2461,-3.3027,-3.3516,-3.4316,-3.5039,-3.5684,-3.5918,-3.6016,-3.6016,-3.6016,-3.6504,-3.7305,-3.7305,-3.8047,-3.9258,-3.9726,-4.0156,-4.0586,-4.1016,-4.1172,-4.1172,0.0,0.0,0.0,0.0,0.0,0.0,0.0,0.0,0.0,0.0,0.0,0.0,0.0,0.0,0.0,0.0,0.0,0.0,0.0,0.0,0.0,0.0,0.0,-2.8024,-2.7799,-2.6507,-2.5557,-2.4845,-2.3855,-2.3536,-2.386,-2.4324,-2.5129,-2.6203,-2.6729,-2.6588,-2.5951,-2.6176,-2.6034,-2.5674,-2.5557,-2.5566,-2.5527,-2.5078,-2.4902,-2.4863,-2.4668,-2.4785,-2.5078,-2.4976,-2.4986,-2.4892,-2.4233,-2.342,0.0,0.0,0.0,-2.0008,-1.9682,-1.953,-1.9636,-2.0234,-2.0454,-2.0641,-2.0935,-2.1002,-2.1015,-2.1096,-2.1109,-2.1109,-2.1109,-2.1109,-2.1109,-2.1109,-2.1109,-2.1362,-2.1992,-2.2418,-2.3355,-2.5378,-2.5945,-2.6857,-2.8457,-2.8696,-2.9112,-2.9981,-3.0325,-3.0753,-3.1308,-3.166,-3.1699,-3.1367,-3.168,-3.168,-3.1367,-3.2207,-3.3066,-3.3906,-3.4336,-3.4766,-3.5234,-3.5664,-3.5859,-3.5859,-3.5976,-3.6504,-3.7305,-3.7305,-3.7988,-3.9101,-3.9668,-4.0098,-4.043,-4.0976,-4.1172,-4.1172,0.0,0.0,0.0,0.0,0.0,0.0,0.0,0.0,0.0,0.0,0.0,0.0,-2.7012,-2.6641,-2.6211,-2.5732,0.0,0.0,0.0,0.0,0.0,0.0,0.0,0.0,-2.7422,-2.6223,-2.5023,-2.3805,-2.2938,-2.2564,-2.2527,-2.2906,-2.3563,-2.4505,-2.5774,-2.6218,-2.6096,-2.597,-2.5817,-2.5654,-2.5273,-2.5145,-2.5106,-2.4609,-2.4453,-2.4492,-2.4902,-2.5106,-2.5184,-2.5518,-2.5479,-2.5235,-2.4941,-2.4282,-2.3488,0.0,0.0,0.0,-1.9155,-1.9319,-1.9707,-1.9542,-1.9853,-2.0334,-2.0628,-2.0695,-2.0775,-2.1056,-2.1109,-2.1109,-2.1109,-2.1109,-2.1109,-2.1109,-2.1109,-2.1362,-2.1992,-2.2418,-2.3355,-2.5378,-2.6128,-2.7159,-2.8797,-2.9272,-2.9686,-3.0333,-3.0411,-3.0547,-3.0918,-3.0937,-3.0957,-3.0918,-3.0937,-3.0957,-3.0918,-3.1777,-3.2617,-3.3457,-3.3887,-3.4336,-3.4746,-3.5215,-3.543,-3.5449,-3.584,-3.6504,-3.7305,-3.7305,-3.7812,-3.8691,-3.9551,-3.9902,-4.0019,-4.0859,-4.1172,-4.1172,0.0,0.0,0.0,0.0,0.0,0.0,0.0,0.0,0.0,0.0,0.0,0.0,0.0,-2.6641,-2.6211,-2.5732,-2.5693,0.0,0.0,0.0,0.0,0.0,0.0,0.0,-2.7422,-2.5947,-2.4632,-2.3453,-2.2143,-2.1296,-2.0986,-2.1542,-2.2104,-2.2712,-2.4686,-2.5522,-2.5326,-2.5661,-2.5566,-2.5167,-2.5014,-2.4948,-2.4821,-2.4686,-2.4528,-2.4434,-2.459,-2.4824,-2.5145,-2.5254,-2.5392,-2.5499,-2.5235,-2.4843,-2.4233,-2.2887,-2.1587,-2.0508,-1.9841,-1.9571,-1.9487,-1.9614,-1.9798,-2.0037,-2.0281,-2.0363,-2.0398,-2.0503,-2.0485,-2.0552,-2.0729,-2.0919,-2.1109,-2.1109,-2.1109,-2.1235,-2.174,-2.2041,-2.2856,-2.4456,-2.5378,-2.6493,-2.7882,-2.8737,-2.945,-3.0039,-3.0274,-3.0567,-3.0898,-3.0898,-3.0898,-3.0898,-3.0898,-3.1016,-3.1289,-3.1601,-3.2168,-3.3027,-3.3457,-3.3887,-3.4316,-3.4746,-3.5117,-3.541,-3.5547,-3.625,-3.7305,-3.7305,-3.7793,-3.8672,-3.9551,-3.9902,-4.0,-4.0859,-4.1172,-4.1172,0.0,0.0,0.0,0.0,0.0,0.0,0.0,0.0,0.0,0.0,0.0,0.0,0.0,0.0,-2.6062,-2.5469,-2.543,-2.5479,-2.5547,-2.5868,0.0,0.0,0.0,0.0,-2.7584,-2.6088,-2.472,-2.3453,-2.1892,-2.0742,-2.0021,-2.0455,-2.0893,-2.1319,-2.315,-2.4187,-2.4491,-2.5084,-2.5039,-2.4627,-2.4478,-2.4417,-2.4412,-2.4279,-2.4173,-2.4175,-2.4404,-2.4683,-2.5003,-2.5234,-2.5488,-2.5693,-2.5479,-2.5186,-2.4627,-2.327,-2.2266,-2.1401,-2.0711,-2.0182,-1.9847,-1.9766,-1.9722,-1.9729,-1.9978,-1.9913,-1.9807,-2.0002,-1.9949,-1.9952,-2.0266,-2.0516,-2.073,-2.0949,-2.0882,-2.0967,-2.1388,-2.1652,-2.2304,-2.376,-2.4702,-2.5867,-2.734,-2.8439,-2.9272,-3.0039,-3.0392,-3.0704,-3.0898,-3.0898,-3.0898,-3.0898,-3.0898,-3.1035,-3.1309,-3.1445,-3.1797,-3.2363,-3.2949,-3.3359,-3.3652,-3.4238,-3.4726,-3.5176,-3.5332,-3.6113,-3.7305,-3.7305,-3.7793,-3.8652,-3.9375,-3.9766,-3.998,-4.0703,-4.1055,-4.1172,0.0,0.0,0.0,0.0,0.0,0.0,0.0,0.0,0.0,-2.7728,0.0,0.0,0.0,0.0,0.0,-2.493,-2.4892,-2.499,-2.5235,-2.5284,0.0,0.0,0.0,0.0,-2.7887,-2.6667,-2.5306,-2.3807,-2.2277,-2.0907,-1.9687,-1.9765,-1.9971,-2.0314,-2.1198,-2.2316,-2.3559,-2.4193,-2.4271,-2.4035,-2.3651,-2.3632,-2.3836,-2.3465,-2.3486,-2.3805,-2.4459,-2.4689,-2.4794,-2.5509,-2.5693,-2.5693,-2.5693,-2.5333,-2.4775,-2.3985,-2.337,-2.2719,0.0,0.0,0.0,-1.9953,-1.9542,-1.9375,-1.9702,-1.9332,-1.9037,-1.9624,-1.9498,-1.9376,-1.9707,-1.9755,-1.9968,-2.0601,-2.0414,-2.0456,-2.1047,-2.1163,-2.1768,-2.3373,-2.4147,-2.5317,-2.722,-2.8379,-2.939,-3.0333,-3.0704,-3.0898,-3.0898,-3.0898,-3.0898,-3.0898,-3.0898,-3.0898,-3.0898,-3.1289,-3.1504,-3.1523,-3.2363,-3.2773,-3.2832,-3.3652,-3.4277,-3.4707,-3.5176,-3.6094,-3.7266,-3.7285,-3.7793,-3.8594,-3.9023,-3.9492,-3.9941,-4.0371,-4.0801,-4.1172,0.0,0.0,0.0,0.0,0.0,0.0,0.0,0.0,-2.8125,0.0,0.0,0.0,-2.748,-2.641,-2.5459,-2.4826,-2.4498,-2.4332,-2.443,-2.4627,-2.5301,-2.6666,-2.6705,-2.7091,-2.7887,-2.6846,-2.5589,-2.407,-2.254,-2.0977,-1.9418,-1.9434,-1.9388,-1.9334,-2.026,-2.0955,-2.1499,-2.2759,-2.3305,-2.3392,-2.3237,-2.334,-2.3503,-2.3934,-2.3999,-2.4036,-2.4956,-2.5214,-2.5179,-2.5557,-2.5693,-2.5693,-2.5693,-2.5479,-2.5088,-2.4677,-2.4183,-2.3587,-2.2719,0.0,0.0,0.0,0.0,0.0,-1.9514,-1.9095,-1.8816,-1.8795,-1.8674,-1.8778,-1.9315,-1.921,-1.9288,-1.9967,-2.0147,-2.0254,-2.0469,-2.0658,-2.108,-2.1768,-2.3083,-2.4394,-2.5623,-2.7504,-2.8957,-2.9608,-3.045,-3.0898,-3.0898,-3.0898,-3.0898,-3.0898,-3.0898,-3.0898,-3.0898,-3.0996,-3.1211,-3.1523,-3.1758,-3.2187,-3.2793,-3.3047,-3.3555,-3.4277,-3.4707,-3.5449,-3.6426,-3.7051,-3.7617,-3.8184,-3.8906,-3.9492,-3.9941,-4.0371,-4.0801,-4.1172,0.0,0.0,0.0,0.0,0.0,0.0,-2.8613,-2.8555,-2.8496,0.0,0.0,0.0,-2.6935,-2.6012,-2.5076,-2.4128,-2.371,-2.3447,-2.3438,-2.3687,-2.4482,-2.6031,-2.6224,-2.6779,-2.7887,-2.6962,-2.5844,-2.458,-2.2808,-2.1174,-1.9681,-1.9287,-1.9029,-1.8901,-1.9718,-2.0172,-2.0345,-2.1347,-2.2002,-2.2371,-2.2371,-2.2613,-2.2921,-2.3457,-2.3739,-2.3889,-2.4849,-2.5296,-2.5503,-2.5849,-2.6016,-2.5977,-2.5752,-2.5577,-2.543,-2.5137,-2.4843,-2.443,-2.3786,-2.317,-2.2569,-2.1767,0.0,0.0,-1.9783,-1.9099,-1.8612,-1.8446,-1.8164,-1.8155,-1.8672,-1.8693,-1.8829,-1.9309,-1.9679,-1.992,-2.004,-2.0307,-2.0658,-2.1149,-2.2482,-2.3852,-2.501,-2.7021,-2.8582,-2.9353,-3.0333,-3.0898,-3.0898,-3.0898,-3.0898,-3.0898,-3.0898,-3.0898,-3.0898,-3.0898,-3.1016,-3.125,-3.1426,-3.1777,-3.2266,-3.2637,-3.3164,-3.3828,-3.4258,-3.4941,-3.5801,-3.6484,-3.7226,-3.7969,-3.8476,-3.918,-3.9922,-4.0176,-4.0644,-4.1172,0.0,0.0,0.0,0.0,0.0,-2.9381,-2.8898,-2.882,0.0,0.0,-2.8013,-2.7342,-2.6124,-2.5577,-2.4733,-2.3255,-2.2703,-2.2415,-2.235,-2.2569,-2.3456,-2.5133,-2.5485,-2.6293,-2.7672,-2.6935,-2.5955,-2.4968,-2.3017,-2.1387,-2.007,-1.9277,-1.8876,0.0,-1.9445,-1.971,-1.971,-1.9998,-2.0527,-2.1239,-2.1294,-2.1674,-2.2269,-2.2608,-2.3001,-2.3462,-2.4404,-2.5061,-2.561,-2.6218,-2.6387,-2.6328,-2.5937,-2.5732,-2.5645,-2.543,-2.5333,-2.5235,-2.4745,-2.4233,-2.3637,-2.282,-2.1861,0.0,-2.0302,-1.928,-1.8482,-1.8386,-1.7984,-1.7704,-1.8023,-1.8315,-1.8582,-1.8918,-1.9202,-1.947,-1.9706,-2.0027,-2.0395,-2.1019,-2.2281,-2.3542,-2.4887,-2.6762,-2.8283,-2.9313,-3.0274,-3.0898,-3.0898,-3.0898,-3.0898,-3.0898,-3.0898,-3.0898,-3.0898,-3.0898,-3.0898,-3.0898,-3.1269,-3.1465,-3.1543,-3.2363,-3.2949,-3.3379,-3.3867,-3.4551,-3.5351,-3.5781,-3.6699,-3.7851,-3.791,-3.873,-3.9902,-3.9902,-4.043,-4.1172,-3.1054,0.0,0.0,0.0,0.0,0.0,-2.839,-2.8333,-2.8296,-2.822,-2.8306,-2.8164,-2.7706,-2.6332,-2.4863,-2.3385,-2.2261,-2.1534,-2.1248,-2.1525,-2.2388,-2.3947,-2.458,-2.5326,-2.6409,-2.6045,-2.5265,-2.4034,-2.2479,-2.0925,-1.9452,-1.907,-1.8659,-1.8182,-1.8827,-1.9068,-1.9068,-1.9182,-1.9521,-2.0145,-2.0643,-2.121,-2.1846,-2.2616,-2.3043,-2.3351,-2.4715,-2.5117,-2.5161,-2.612,-2.6387,-2.6367,-2.6289,-2.6016,-2.5693,-2.5645,-2.5645,-2.5528,-2.5235,-2.4892,-2.448,-2.3687,-2.282,0.0,-2.0639,-1.9774,-1.9078,-1.8372,-1.8353,-1.8469,-1.8523,-1.8892,-1.9125,-1.9203,-1.9299,-1.9334,-1.947,-1.9907,-2.0254,-2.0368,-2.1768,-2.3106,-2.4193,-2.6034,-2.7744,-2.8975,-3.0235,-3.0898,-3.0898,-3.0898,-3.0898,-3.0898,-3.0898,-3.0898,-3.0898,-3.0898,-3.0898,-3.0898,-3.0976,-3.1191,-3.1543,-3.2051,-3.2519,-3.2969,-3.373,-3.4355,-3.4863,-3.5332,-3.6269,-3.7461,-3.7793,-3.873,-3.9902,-3.9902,-4.043,-4.1172,-3.0898,-3.0645,-3.0256,-2.989,0.0,0.0,0.0,0.0,-2.7755,-2.7726,-2.794,-2.7955,-2.7678,-2.6391,-2.4931,-2.3238,-2.228,0.0,0.0,0.0,-2.1578,-2.2792,-2.3298,-2.4111,-2.5423,-2.4872,-2.4344,-2.3828,-2.2025,-2.0684,-1.9771,-1.903,-1.8521,-1.8277,-1.8571,-1.8704,-1.8718,-1.8865,-1.9055,-1.9374,-2.0042,-2.0615,-2.1246,-2.2199,-2.2727,-2.3065,-2.4543,-2.5317,-2.5767,-2.6462,-2.6699,-2.666,-2.6465,-2.625,-2.6016,-2.5752,-2.5693,-2.5693,-2.5528,-2.5284,-2.499,-2.443,-2.3669,0.0,0.0,-2.0825,-1.9918,-1.9345,-1.8993,-1.8803,-1.8803,-1.9141,-1.9409,-1.9405,-1.9722,-1.9977,-2.0032,-2.0128,-2.0167,-2.0167,-2.1616,-2.2918,-2.3775,-2.5729,-2.7744,-2.9568,-3.047,-3.0898,-3.0898,-3.0898,-3.0898,-3.0898,-3.0898,-3.0898,-3.0898,-3.0898,-3.0898,-3.0898,-3.0898,-3.0996,-3.123,-3.1875,-3.2285,-3.2519,-3.3379,-3.4101,-3.4726,-3.4961,-3.5937,-3.7324,-3.7539,-3.8555,-3.9902,-3.9902,-4.043,-4.1172,-3.0644,-3.0277,-2.9889,-2.9672,-2.8906,0.0,0.0,0.0,-2.6929,-2.7155,-2.7298,-2.7288,-2.712,-2.6185,-2.4959,-2.3248,-2.2487,0.0,-2.0354,-2.0515,-2.0978,-2.1693,0.0,-2.2855,-2.415,-2.3424,-2.3143,-2.3368,-2.1455,-2.0411,-2.0089,-1.9014,-1.8464,-1.841,-1.841,-1.841,-1.8424,-1.8718,-1.8878,-1.8945,-1.9527,-2.0097,-2.0716,-2.1645,-2.2284,-2.2872,-2.4313,-2.552,-2.6445,-2.6875,-2.7012,-2.6953,-2.6621,-2.6445,-2.6309,-2.581,-2.5693,-2.5693,-2.5693,-2.5528,-2.5333,-2.5039,-2.443,-2.375,0.0,0.0,0.0,-2.0719,-2.0148,-1.9597,-1.9499,-1.981,-2.0034,-1.9888,-2.0479,-2.0926,-2.0873,-2.0725,-2.0556,-2.0388,-2.1581,-2.2707,-2.3514,-2.5818,-2.8104,-3.0079,-3.0645,-3.0898,-3.0898,-3.0898,-3.0898,-3.0898,-3.0898,-3.0898,-3.0898,-3.0898,-3.0898,-3.0898,-3.0898,-3.0898,-3.0918,-3.1777,-3.2229,-3.2226,-3.3144,-3.3984,-3.4707,-3.4883,-3.5879,-3.7305,-3.7305,-3.8359,-3.9902,-3.9902,-4.043,-4.1172,-2.9783,-2.905,-2.8462,-2.8468,0.0,0.0,0.0,0.0,-2.5725,-2.6902,-2.6678,-2.6531,-2.6836,-2.5881,-2.4882,-2.3871,-2.2763,-2.1759,-2.1063,-2.0858,-2.0788,-2.0832,-2.1365,-2.1756,-2.1957,-2.1843,-2.1729,-2.1517,-2.0401,-1.9752,-1.947,-1.8791,-1.8343,-1.8049,-1.8049,-1.8049,-1.8062,-1.841,-1.8691,-1.8945,-1.931,-1.9822,-2.0443,-2.1345,-2.2102,-2.2911,-2.4368,-2.555,-2.6445,-2.6875,-2.7012,-2.7012,-2.6953,-2.6699,-2.6309,-2.581,-2.5693,-2.5693,-2.5693,-2.5693,-2.5577,-2.5333,-2.499,-2.4534,-2.3724,0.0,-2.2743,-2.2196,0.0,-2.2226,-2.1737,0.0,0.0,-2.1186,-2.1437,-2.1682,-2.144,-2.1907,-2.1935,-2.1187,-2.1441,-2.219,-2.3475,-2.6456,-2.8659,-2.9431,-3.0392,-3.0898,-3.0898,-3.0898,-3.0898,-3.0898,-3.0898,-3.0898,-3.0898,-3.0898,-3.0898,-3.0898,-3.0898,-3.0898,-3.0918,-3.1777,-3.2229,-3.2307,-3.3457,-3.4258,-3.4766,-3.5547,-3.6426,-3.7305,-3.7305,-3.8359,-3.9902,-3.9902,-4.043,-4.1172,-2.9194,-2.8728,-2.7991,-2.7315,0.0,0.0,0.0,0.0,-2.4517,-2.521,-2.5294,-2.5361,-2.5692,-2.5326,-2.471,-2.3918,-2.3445,-2.2735,-2.1689,-2.141,-2.1082,-2.07,-2.0759,-2.0945,-2.106,-2.0945,0.0,-2.0888,-2.013,-1.9649,-1.9371,0.0,-1.8584,-1.8303,-1.8303,-1.8303,-1.833,-1.8611,-1.8811,-1.8945,-1.9252,-1.9649,-2.0155,-2.1159,-2.2585,-2.4036,-2.4735,-2.5462,-2.6113,-2.6797,-2.7012,-2.7012,-2.7012,-2.6894,-2.6621,-2.5888,-2.5693,-2.5693,-2.5693,-2.5693,-2.5693,-2.5547,-2.5333,-2.5031,-2.4665,-2.4082,-2.357,-2.3356,0.0,0.0,0.0,0.0,0.0,0.0,-2.2758,-2.2991,-2.2825,-2.2966,-2.2744,-2.1817,-2.2126,-2.3007,-2.4499,-2.6579,-2.8126,-2.8953,-2.993,-3.0488,-3.0488,-3.0742,-3.0898,-3.0898,-3.0898,-3.0898,-3.0898,-3.0898,-3.0898,-3.0898,-3.0898,-3.0898,-3.0918,-3.1777,-3.2229,-3.2307,-3.3516,-3.4316,-3.4766,-3.5644,-3.6523,-3.7324,-3.7559,-3.8574,-3.9902,-3.9902,-4.043,-4.1172,-2.7976,-2.7772,-2.7171,-2.6179,-2.487,0.0,0.0,-2.2951,-2.3101,-2.3612,-2.3824,-2.4058,-2.4373,-2.447,-2.4375,-2.3871,-2.3918,-2.3536,-2.2464,-2.2122,-2.1631,-2.0902,-2.0673,-2.05,-2.0429,-2.027,-2.0213,0.0,-1.9924,-1.9598,-1.938,0.0,0.0,0.0,-1.8531,-1.849,-1.8504,-1.8798,-1.8918,-1.8945,-1.9252,-1.9649,-2.0199,-2.1356,-2.2889,-2.449,-2.4969,-2.5332,-2.5693,-2.6532,-2.6836,-2.6836,-2.6836,-2.6836,-2.6699,-2.5908,-2.5693,-2.5693,-2.5693,-2.5693,-2.5693,-2.5693,-2.5528,-2.5382,-2.5382,-2.4938,-2.4468,-2.4468,-2.4097,0.0,0.0,0.0,-2.3742,-2.3596,0.0,-2.4143,-2.4041,-2.4017,-2.3617,-2.258,-2.3021,-2.3848,-2.5136,-2.6544,-2.7746,-2.8502,-2.9448,-3.0078,-3.0195,-3.0508,-3.0762,-3.0879,-3.0898,-3.0898,-3.0898,-3.0898,-3.0898,-3.0898,-3.0898,-3.0898,-3.0918,-3.1777,-3.2229,-3.2307,-3.3633,-3.4414,-3.4785,-3.5918,-3.6738,-3.7344,-3.7891,-3.8769,-3.9726,-3.9844,-4.0371,-4.1016,-2.5476,-2.5549,-2.5617,-2.5026,-2.3399,-2.1994,-2.1374,-2.13,-2.1596,-2.2548,-2.2628,-2.2654,-2.3005,-2.332,-2.3669,-2.3991,-2.3937,-2.3761,-2.3457,-2.314,-2.2456,-2.1261,-2.1146,-2.0744,-1.9866,-1.9809,-1.9707,-1.943,-1.943,-1.9417,-1.9403,0.0,0.0,0.0,-1.8624,-1.849,-1.8504,-1.8798,-1.8918,-1.8945,-1.9252,-1.9924,-2.0802,-2.1942,-2.2841,-2.3685,-2.4696,-2.5182,-2.5459,-2.6151,-2.6406,0.0,0.0,-2.6406,-2.6328,-2.581,-2.5693,-2.5693,-2.5693,-2.5693,-2.5693,-2.5693,-2.5693,-2.5693,-2.5693,-2.5674,-2.5674,-2.5674,-2.5606,-2.5538,-2.5294,-2.5216,-2.5069,-2.4559,-2.4814,0.0,0.0,-2.4984,-2.477,-2.3629,-2.393,-2.4444,-2.4853,-2.6584,-2.7803,-2.8163,-2.9085,-2.9766,-3.0176,-3.0215,-3.043,-3.0879,-3.0898,-3.0898,-3.0898,-3.0898,-3.0898,-3.0898,-3.0898,-3.0898,-3.0918,-3.1777,-3.2229,-3.2266,-3.3945,-3.4687,-3.4824,-3.6543,-3.7266,-3.7383,-3.8223,-3.8828,-3.9277,-3.9726,-4.0176,-4.0605,-2.4206,-2.376,-2.3456,-2.3133,-2.2196,-2.1263,-2.0659,-2.0894,-2.1235,-2.1576,-2.1937,-2.2208,-2.2057,-2.2769,-2.3273,-2.3332,-2.3355,-2.3302,-2.3215,-2.2871,-2.2343,-2.1489,-2.1489,-2.1131,-2.0429,-2.0213,-1.9982,-1.9649,-1.9475,-1.943,-1.9417,-1.9265,0.0,0.0,-1.9118,-1.9078,-1.9078,-1.9172,-1.9212,-1.9225,-1.9332,-1.9707,-2.0256,-2.1439,-2.2577,-2.3705,-2.4385,-2.4969,0.0,-2.5979,-2.6237,-2.6387,-2.6387,-2.6387,-2.6309,-2.581,-2.5693,-2.5693,0.0,0.0,-2.5693,-2.5693,-2.5693,-2.5693,-2.5693,-2.5693,-2.5693,-2.5693,-2.5693,0.0,0.0,-2.5547,-2.5499,-2.5333,-2.5399,-2.5446,0.0,-2.5332,-2.5101,-2.463,-2.4898,-2.532,-2.5887,-2.6884,-2.7619,-2.7948,-2.871,-2.9199,-2.9336,-2.9883,-3.0273,-3.043,-3.0723,-3.0898,-3.0898,-3.0898,-3.0898,-3.0898,-3.0898,-3.1035,-3.1328,-3.1894,-3.2324,-3.2656,-3.4082,-3.4707,-3.4805,-3.6269,-3.7051,-3.7363,-3.793,-3.8398,-3.8887,-3.9629,-4.0156,-4.0586,-2.3165,-2.2517,-2.213,-2.1831,-2.1276,-2.0723,-2.0281,-2.0735,-2.1145,-2.124,-2.1723,-2.1997,-2.1783,-2.2335,-2.2771,-2.2848,-2.2871,-2.2886,-2.2853,-2.2775,-2.2528,-2.194,-2.2063,-2.1816,-2.1189,-2.0888,-2.05,-1.9982,-1.9707,-1.9475,-1.943,-1.943,0.0,0.0,-1.943,-1.943,-1.943,-1.943,-1.943,-1.943,-1.943,-1.9533,-1.9924,-2.0773,-2.1928,-2.3146,-2.3975,-2.4717,-2.533,-2.5705,-2.6018,-2.6198,-2.6161,-2.6152,-2.6094,-2.5771,-2.5693,-2.5693,-2.5693,-2.5693,0.0,-2.5693,-2.5693,0.0,-2.5937,0.0,-2.6016,0.0,0.0,0.0,0.0,-2.5791,-2.5693,-2.5693,0.0,-2.5693,0.0,-2.5528,-2.5487,-2.5559,-2.5689,-2.5929,-2.6387,-2.698,-2.7409,-2.7622,-2.814,-2.8535,-2.8691,-2.9512,-3.0039,-3.0195,-3.0644,-3.0898,-3.0898,-3.0898,-3.0898,-3.0898,-3.0898,-3.1113,-3.1543,-3.1973,-3.2402,-3.2871,-3.4141,-3.4707,-3.4805,-3.6133,-3.6914,-3.7344,-3.7754,-3.8184,-3.8672,-3.9375,-4.0019,-4.0586,-2.2285,-2.1757,-2.1475,-2.122,-2.0681,-2.0278,-2.0227,-2.0762,-2.1243,-2.1601,-2.183,-2.1991,-2.1964,-2.2049,-2.2194,-2.2488,-2.2477,-2.2425,-2.2562,-2.2809,-2.2852,-2.2488,-2.2871,-2.2812,-2.2173,-2.1858,-2.1231,-2.0385,-1.9982,-1.9707,-1.943,-1.943,-1.943,-1.943,-1.943,-1.943,-1.943,-1.943,-1.943,-1.943,-1.943,-1.9533,-1.9822,-2.0155,-2.0927,-2.1985,-2.3507,-2.4365,-2.4943,-2.5312,-2.5686,-2.586,-2.5771,-2.5752,-2.5752,-2.5664,-2.5664,-2.5664,-2.5645,-2.5645,-2.5645,-2.5645,-2.5664,0.0,0.0,0.0,-2.6523,0.0,0.0,0.0,0.0,0.0,0.0,-2.5693,0.0,-2.5693,-2.5693,-2.5693,-2.5898,-2.6309,-2.6263,-2.6253,-2.6352,-2.6864,-2.7179,-2.7179,-2.7532,-2.7904,-2.8242,-2.9101,-2.9746,-3.0156,-3.0644,-3.0898,-3.0898,-3.0898,-3.0898,-3.0898,-3.0898,-3.1133,-3.1562,-3.1973,-3.2402,-3.2891,-3.416,-3.4707,-3.4805,-3.6094,-3.6894,-3.7344,-3.7734,-3.8164,-3.8633,-3.9043,-3.9766,-4.0586,-2.2023,-2.1138,-2.0536,-2.0446,-2.0307,-2.0355,-2.0802,-2.1203,-2.155,-2.1844,-2.2124,-2.2151,-2.1775,-2.1921,-2.1957,-2.1892,-2.1617,-2.1581,-2.1826,-2.2362,-2.2629,-2.2503,-2.3492,-2.3788,-2.3135,-2.2821,-2.2184,-2.1288,-2.0558,-1.9982,-1.9707,-1.9475,-1.943,-1.943,-1.943,-1.943,-1.943,-1.943,-1.943,-1.943,-1.943,-1.943,-1.9533,-1.9822,-2.0272,-2.0914,-2.234,-2.344,-2.4383,-2.4891,-2.5488,-2.6034,-2.6009,-2.6174,-2.6218,-2.5471,-2.5227,-2.517,-2.4672,-2.4529,-2.4578,-2.4775,-2.502,-2.5415,0.0,0.0,0.0,0.0,0.0,0.0,0.0,0.0,0.0,-2.5752,-2.5693,-2.5693,-2.5693,-2.5693,-2.5732,-2.5898,-2.619,-2.6466,-2.6769,-2.6962,-2.7065,-2.7065,-2.7428,-2.7767,-2.7865,-2.8926,-2.9685,-2.9726,-3.0488,-3.0898,-3.0898,-3.0898,-3.0898,-3.0898,-3.0898,-3.1269,-3.2012,-3.217,-3.2559,-3.332,-3.4277,-3.4707,-3.4766,-3.5781,-3.6621,-3.7305,-3.7422,-3.791,-3.8633,-3.9043,-3.9766,-4.0547,-2.1875,-2.0964,-2.0468,-2.0588,-2.0615,-2.0722,-2.1056,-2.1577,-2.1991,-2.2151,-2.2432,-2.2485,-2.2231,-2.2044,-2.1909,-2.1781,-2.1348,-2.1167,-2.1354,-2.2169,-2.2692,-2.2928,-2.4136,-2.4634,-2.4338,-2.397,-2.3199,-2.2013,-2.1117,-2.0385,-1.9809,-1.9533,-1.943,-1.943,-1.943,-1.943,-1.943,-1.943,-1.943,-1.943,-1.943,-1.943,0.0,-1.9591,-1.9822,-2.0199,-2.1139,-2.241,-2.3744,-2.4507,-2.5338,-2.6035,-2.6093,-2.6224,-2.6218,-2.5428,-2.4969,-2.4615,-2.4126,-2.3971,-2.4021,-2.4172,-2.4583,-2.5135,-2.5802,-2.6337,-2.6825,0.0,-2.737,-2.7226,0.0,0.0,-2.625,-2.5752,-2.5693,-2.5693,-2.5693,-2.5693,-2.5693,-2.5693,-2.5908,-2.6269,-2.6699,-2.6738,-2.6816,-2.7012,-2.7246,-2.7461,-2.7708,-2.8691,-2.9375,-2.957,-3.0234,-3.0684,-3.0898,-3.0898,-3.0898,-3.0898,-3.0898,-3.1348,-3.2229,-3.2229,-3.2617,-3.3476,-3.4336,-3.4707,-3.4766,-3.5644,-3.6523,-3.7324,-3.7715,-3.8144,-3.8613,-3.8848,-3.9355,-4.0,-2.1698,-2.1094,-2.0828,-2.1122,-2.1203,-2.1256,-2.1323,-2.1951,-2.2432,-2.2472,-2.2699,-2.2846,-2.2806,-2.2311,-2.1977,-2.1937,-2.143,-2.1109,-2.1109,-2.21,-2.2911,-2.3475,-2.4745,-2.5451,-2.5474,-2.5095,-2.4223,-2.2749,-2.1729,-2.0773,-1.9924,-1.9533,-1.943,-1.943,-1.943,-1.943,-1.943,-1.943,-1.943,-1.943,-1.943,-1.943,-1.943,-1.943,-1.9533,-1.9822,-2.0097,-2.1345,-2.2983,-2.4073,-2.5057,-2.5843,-2.5986,-2.6064,-2.5942,-2.5227,-2.4591,-2.4047,-2.3565,-2.3444,-2.3444,-2.353,-2.4052,-2.4756,-2.5539,-2.6252,-2.6899,-2.7615,-2.7723,-2.7734,-2.7676,0.0,0.0,-2.5908,-2.581,-2.5791,-2.5849,-2.581,-2.5771,-2.5771,-2.5732,0.0,-2.6348,-2.6328,-2.6504,-2.6973,-2.7012,-2.7207,-2.7689,-2.8457,-2.9121,-2.9607,-2.998,-3.043,-3.0879,-3.0898,-3.0898,-3.0898,-3.0898,-3.1348,-3.2229,-3.2229,-3.2617,-3.3476,-3.4336,-3.4707,-3.4766,-3.5723,-3.6601,-3.7461,-3.8262,-3.8574,-3.8574,-3.8574,-3.8848,-3.9316,-2.1407,-2.1092,-2.1122,-2.1494,-2.167,-2.1991,-2.2485,-2.2472,-2.2512,-2.2752,-2.2832,-2.2766,-2.2525,-2.2191,-2.1884,-2.1722,-2.1309,-2.1109,-2.1109,-2.2313,-2.3148,-2.3475,-2.521,-2.6127,-2.6056,-2.5708,-2.5,-2.3983,-2.2353,-2.1159,-2.0544,-1.9764,-1.943,-1.943,-1.943,-1.943,-1.943,-1.943,-1.943,-1.943,-1.943,-1.943,-1.943,-1.943,-1.943,-1.9533,-1.9822,-2.0716,-2.2013,-2.3175,-2.4399,-2.539,-2.5665,-2.5919,-2.5793,-2.4105,-2.3428,-2.2933,-2.1818,-2.1471,-2.1632,-2.2044,-2.2694,-2.3478,-2.4557,-2.5541,-2.6427,-2.7025,-2.7527,-2.7748,-2.7328,0.0,0.0,-2.6758,-2.6504,-2.6387,-2.6738,-2.6484,-2.6269,-2.6269,-2.5957,-2.5849,-2.6348,-2.6055,-2.6172,-2.6953,-2.7012,-2.7207,-2.7689,-2.8457,-2.9121,-2.9607,-2.998,-3.043,0.0,0.0,-3.0898,-3.0898,-3.0898,-3.1348,-3.2229,-3.2229,-3.2617,-3.3476,-3.4336,-3.4707,-3.4805,-3.6035,-3.7051,-3.7871,-3.8379,-3.8574,-3.8574,-3.8574,-3.8848,-3.9277,-2.1464,-2.1456,-2.1617,-2.175,-2.2138,-2.2539,-2.2887,-2.3006,-2.3113,-2.31,-2.31,-2.2979,-2.2686,-2.2245,-2.1924,-2.179,-2.1363,-2.1109,-2.1109,-2.2167,-2.3032,-2.3549,-2.538,-2.6319,-2.6241,-2.6249,-2.5597,-2.4317,-2.2805,-2.1616,-2.0658,-1.9924,-1.9533,-1.943,-1.943,-1.943,-1.943,-1.943,-1.943,-1.943,-1.943,-1.943,-1.943,-1.943,-1.943,-1.943,-1.9533,-2.004,-2.0888,-2.241,-2.3871,-2.5055,-2.5569,-2.5789,-2.5643,-2.4226,-2.3161,-2.223,-2.1289,-2.0968,-2.0913,-2.1188,-2.189,-2.2696,-2.3331,-2.4531,-2.5624,-2.6172,-2.7043,-2.7611,-2.7453,-2.7273,0.0,0.0,0.0,-2.6777,-2.6992,-2.6836,-2.6641,-2.6406,-2.6211,-2.625,-2.668,-2.6328,-2.6426,-2.7285,-2.7344,-2.7539,-2.7969,-2.8379,-2.8887,-2.9607,0.0,0.0,-3.0879,0.0,-3.0898,-3.0898,-3.0898,-3.1348,-3.2229,-3.2229,-3.2754,-3.3789,-3.4434,-3.4844,-3.5156,-3.6465,-3.7363,-3.7988,-3.8652,-3.8906,-3.8926,-3.918,-3.9394,-3.959,-2.1708,-2.1884,-2.2098,-2.2164,-2.2605,-2.3006,-2.3126,-2.3554,-2.3728,-2.338,-2.3327,-2.3207,-2.2899,-2.2392,-2.2058,-2.1991,-2.151,-2.1176,-2.1109,-2.2041,-2.2856,-2.3479,-2.5222,-2.6184,-2.6117,-2.6289,-2.566,-2.4206,-2.303,-2.1858,-2.0658,-2.0097,-1.9649,-1.943,-1.943,-1.943,-1.943,-1.943,-1.943,-1.943,-1.943,-1.9417,-1.9475,-1.9475,-1.9533,-1.9591,-1.9533,-1.9649,-2.0155,-2.1616,-2.3143,-2.4556,-2.5165,-2.5459,-2.5293,-2.4317,-2.3007,-2.176,-2.1033,-2.0654,-2.0429,-2.0485,-2.1126,-2.1816,-2.2127,-2.3311,-2.4501,-2.5183,-2.6391,-2.7381,-2.7693,-2.7715,0.0,0.0,0.0,0.0,0.0,-2.7207,-2.6992,-2.6562,-2.6445,-2.6523,-2.6855,-2.666,-2.6836,-2.7669,-2.7728,-2.7904,-2.8262,-2.8301,-2.8691,0.0,-2.9626,-3.0,-3.0879,0.0,-3.0898,-3.0898,-3.0976,-3.1426,-3.2229,-3.2344,-3.3027,-3.4101,-3.4629,-3.5215,-3.5879,-3.6875,-3.7598,-3.8144,-3.8906,-3.9199,-3.9258,-3.9726,-3.9961,-4.0019,-2.1951,-2.2178,-2.2458,-2.2739,-2.306,-2.346,-2.3995,-2.4128,-2.3968,-2.3407,-2.3327,-2.3207,-2.2899,-2.2565,-2.2271,-2.2004,-2.1762,-2.1403,-2.1122,-2.2041,-2.2731,-2.3106,-2.4617,-2.5476,-2.5461,-2.5434,-2.493,-2.3927,-2.2724,-2.1645,-2.0658,-2.0097,-1.9649,-1.943,-1.943,-1.943,0.0,-1.943,-1.943,-1.943,-1.943,-1.9533,-1.9764,-1.9764,-1.9924,-2.0155,-1.988,-1.9982,-2.0328,-2.0716,-2.19,-2.3311,-2.415,-2.4667,-2.4667,-2.348,-2.2451,-2.14,-2.0228,-1.9723,-1.955,-1.9825,-2.0199,-2.0615,-2.1174,-2.2013,-2.2974,-2.3888,-2.5661,-2.7187,-2.7795,-2.7752,-2.7773,0.0,0.0,0.0,0.0,-2.7851,-2.7441,-2.7012,-2.6621,-2.6406,-2.6445,-2.6758,-2.7148,-2.7689,-2.7728,-2.7904,-2.8262,-2.8301,0.0,-2.9607,-2.9626,-3.0,-3.0879,-3.0898,-3.0898,-3.0898,-3.1269,-3.1699,-3.2187,-3.2949,-3.3574,-3.4121,-3.4961,-3.6016,-3.7129,-3.7246,-3.7773,-3.8555,-3.9023,-3.9199,-3.9258,-3.9726,-4.0137,-4.0469,-2.2512,-2.2899,-2.3273,-2.338,-2.3661,-2.3928,-2.4168,-2.4356,-2.4315,-2.3901,-2.3701,-2.3474,-2.318,-2.2712,-2.2378,-2.2258,-2.1817,-2.1561,-2.139,-2.1773,-2.2167,-2.248,-2.384,-2.4535,-2.4274,-2.4654,-2.4351,-2.3368,-2.2498,-2.1645,-2.0716,-2.027,-1.988,0.0,0.0,-1.943,-1.943,-1.943,-1.9475,-1.9649,-1.9649,-1.9924,-2.0328,-2.0328,-2.0558,-2.0788,-2.0429,-2.0443,-2.0544,-2.0658,-2.1729,-2.3143,-2.4039,-2.4667,-2.4889,-2.4039,-2.303,-2.19,-2.0658,-1.9982,-1.9649,-1.9591,-1.9764,-2.004,-2.0328,-2.1174,-2.2184,-2.2918,-2.4982,-2.6971,-2.7745,-2.7985,-2.8105,-2.8262,0.0,0.0,0.0,-2.8144,-2.7793,-2.709,-2.6875,-2.666,-2.6406,-2.6777,-2.7187,-2.7689,-2.7891,-2.8125,-2.8281,0.0,0.0,-2.9607,0.0,-3.0,-3.0879,-3.0898,-3.0898,-3.0898,-3.1328,-3.1758,-3.2268,-3.3047,-3.3945,-3.4902,-3.5508,-3.6348,-3.7305,-3.7305,-3.7793,-3.8652,-3.9336,-3.9609,-3.9707,-4.041,-4.0607,-4.0492,-2.3126,-2.3541,-2.3901,-2.3901,-2.4142,-2.4329,-2.4329,-2.4502,-2.4569,-2.4356,-2.4008,-2.3661,-2.3367,-2.2859,-2.2512,-2.2432,-2.2044,-2.1802,-2.1628,-2.1669,-2.1837,-2.1929,-2.3029,-2.3504,-2.3126,-2.3554,-2.3329,-2.2451,-2.1976,-2.1246,-2.0429,0.0,0.0,0.0,-1.943,-1.943,-1.9533,-1.9533,-1.9707,-2.0097,-2.0155,-2.0601,-2.1231,-2.1345,-2.1559,-2.1786,-2.1388,-2.1117,-2.0945,-2.0945,-2.1801,-2.303,-2.3871,-2.4667,-2.511,-2.4612,-2.3592,-2.2353,-2.1174,-2.0328,-1.9764,-1.9488,-1.9533,-1.9707,-1.9751,-2.0544,-2.1559,-2.2692,-2.4855,-2.6808,-2.7584,-2.8067,-2.8301,-2.8301,0.0,0.0,0.0,-2.8301,-2.8027,-2.7285,-2.7207,-2.7031,-2.6621,-2.6953,-2.7383,-2.7812,-2.8242,-2.8418,-2.8301,0.0,0.0,0.0,0.0,0.0,-3.0879,-3.0898,-3.0957,-3.1074,-3.1504,-3.1992,-3.2578,-3.3555,-3.457,-3.5586,-3.5898,-3.6504,-3.7305,-3.7305,-3.7793,-3.8672,-3.9551,-3.9902,-4.0,-4.0859,-4.0919,-4.0509,-2.3754,-2.3995,-2.4195,-2.4195,-2.4436,-2.4636,-2.4636,-2.4636,-2.4636,-2.4636,-2.4128,-2.3661,-2.3367,-2.3046,-2.2739,-2.2445,-2.2405,-2.2164,-2.1655,-2.1937,-2.1929,-2.1628,-2.223,-2.2462,-2.2133,-2.212,-2.186,-2.1247,0.0,0.0,-1.9809,0.0,-1.943,-1.943,-1.943,-1.9533,-1.9809,-1.9809,-2.0155,-2.0716,-2.106,-2.1672,-2.2523,-2.2862,-2.3143,-2.3311,-2.2692,-2.2127,-2.1559,-2.1588,-2.1972,-2.2692,-2.3592,-2.4501,-2.5165,-2.4889,-2.3927,-2.2749,-2.1517,-2.0486,-1.9764,-1.9488,-1.943,-1.9475,-1.9764,-2.004,-2.1002,-2.3368,-2.5331,-2.6772,-2.7314,-2.7906,-2.8301,-2.8301,0.0,0.0,0.0,-2.8301,0.0,-2.7767,-2.7708,-2.748,-2.7051,-2.7402,-2.7885,-2.8262,-2.8672,-2.873,-2.832,0.0,0.0,-2.9607,-2.9626,0.0,-3.0879,-3.0898,-3.1094,-3.1523,-3.1953,-3.2598,-3.3457,-3.4766,-3.5605,-3.6016,-3.6016,-3.6504,-3.7305,-3.7305,-3.7793,-3.8672,-3.9551,-3.9902,-4.0,-4.0859,-4.0919,-4.0509,-2.4062,-2.4302,-2.4502,-2.4502,-2.4569,-2.4636,-2.4636,-2.4636,-2.4636,-2.4636,-2.4128,-2.3728,-2.3647,-2.3166,-2.2887,-2.2726,-2.2539,-2.2258,-2.1871,-2.1787,-2.1609,-2.1249,-2.1677,-2.1777,-2.141,-2.1469,-2.1279,-2.085,0.0,0.0,0.0,-1.9533,-1.9475,-1.9649,-1.9649,-1.9924,-2.0429,-2.0658,-2.1231,-2.1957,-2.2297,-2.3087,-2.4094,-2.4223,-2.439,-2.4539,-2.3927,-2.3328,-2.2765,-2.24,-2.2667,-2.3287,-2.3944,-2.4944,-2.5789,-2.5514,-2.4834,-2.3927,-2.2467,-2.1288,-2.037,-2.0068,-1.9856,-1.9805,-2.0302,-2.1335,-2.2658,-2.4557,-2.6069,-2.7253,-2.8106,-2.8774,-2.9062,-2.8769,-2.8711,0.0,-2.834,0.0,-2.8144,-2.7767,-2.7728,-2.75,-2.7051,-2.7402,-2.7779,-2.7941,-2.8365,-2.8784,-2.916,0.0,0.0,0.0,-3.0,0.0,-3.0879,-3.0898,-3.1094,-3.1523,-3.1953,-3.291,-3.4316,-3.5059,-3.5625,-3.6035,-3.6328,-3.6777,-3.7324,-3.7598,-3.8066,-3.8633,-3.9199,-3.9609,-3.9961,-4.0527,-4.0434,-4.0059,-2.4369,-2.4516,-2.4636,-2.4636,-2.4636,-2.4636,-2.4636,-2.4636,-2.4636,-2.4636,-2.4128,-2.3768,-2.3768,-2.322,-2.2928,-2.2928,-2.2699,-2.2458,-2.2164,-2.1884,-2.1577,-2.1296,-2.1353,-2.133,-2.1078,-2.104,0.0,-2.0722,-2.0309,-1.9932,-1.9649,-1.9591,-1.9707,-1.9982,-2.0213,-2.0716,-2.1388,-2.1744,-2.2467,-2.3368,-2.3704,-2.4484,-2.5441,-2.5551,-2.5661,-2.5661,-2.5165,-2.4547,-2.3933,-2.361,-2.3804,-2.4374,-2.4924,-2.5937,-2.6736,-2.6043,-2.5404,-2.4701,-2.3416,-2.2154,-2.1148,-2.0889,-2.0642,-2.0721,-2.1612,-2.301,-2.448,-2.5686,-2.6911,-2.8015,-2.8728,-2.9234,-2.9473,-2.9199,-2.9023,-2.8828,-2.8574,0.0,-2.8203,0.0,-2.7785,-2.7641,-2.7281,-2.7511,-2.7733,-2.7974,-2.8276,-2.871,0.0,0.0,-2.9597,-3.0024,-3.0138,-3.0488,-3.1113,-3.1133,-3.1426,-3.2012,-3.2754,-3.3672,-3.4726,-3.5351,-3.5859,-3.6289,-3.6543,-3.6992,-3.7559,-3.7812,-3.8184,-3.8613,-3.8895,-3.9268,-3.9695,-3.997,-3.9853,-3.9666,-2.4784,-2.471,-2.471,-2.471,-2.471,-2.471,-2.4784,-2.471,-2.471,-2.471,-2.4227,-2.3866,-2.3839,-2.3316,-2.2954,-2.2928,-2.2928,-2.2739,-2.2432,-2.2151,-2.1857,-2.1628,-2.1269,-2.1109,-2.1109,-2.0828,-2.0668,-2.0641,-2.0094,-1.9693,-1.9484,-1.9761,-2.0109,-2.0513,-2.1046,-2.1831,-2.2667,-2.299,-2.3815,-2.4944,-2.5221,-2.5826,-2.6645,-2.6916,-2.6935,-2.6663,-2.6282,-2.5649,-2.502,-2.4963,-2.5256,-2.5676,-2.6255,-2.7308,-2.7957,-2.6645,-2.5805,-2.5211,-2.4383,-2.3257,-2.2228,-2.1917,-2.1884,-2.2289,-2.361,-2.5019,-2.6273,-2.6924,-2.7954,-2.8842,-2.9162,-2.9443,-2.9704,-2.9646,-2.9219,-2.8945,-2.8887,-2.8535,-2.8194,-2.7945,-2.7891,0.0,-2.7567,-2.7549,-2.7714,-2.8141,-2.8195,-2.8377,0.0,0.0,-2.9336,-2.9834,-3.016,-3.0723,-3.1562,-3.1562,-3.1973,-3.2812,-3.4082,-3.4707,-3.4661,-3.5538,-3.6181,-3.6591,-3.6699,-3.7098,-3.7858,-3.7949,-3.8203,-3.8613,-3.8619,-3.8819,-3.9146,-3.926,-3.9212,-3.9193,-2.596,-2.5726,-2.558,-2.5946,-2.596,-2.6093,-2.6371,-2.6166,-2.596,-2.596,-2.5188,-2.4497,-2.4195,-2.3574,-2.3252,-2.3283,-2.3065,-2.2739,-2.2432,-2.2151,-2.1857,-2.1628,-2.1269,-2.1109,-2.1109,-2.0828,-2.0561,-2.0334,-2.0201,-2.0214,-2.0387,-2.0732,-2.1327,-2.2142,-2.2473,-2.3273,-2.4341,-2.4563,-2.5221,-2.6154,-2.6427,-2.6971,-2.7565,-2.7638,-2.7638,-2.753,-2.6989,-2.6591,-2.619,-2.5757,-2.6,-2.6659,-2.7061,-2.7822,-2.8465,-2.7883,-2.7471,-2.6981,-2.6082,-2.4945,-2.3932,-2.3638,-2.3896,-2.4519,-2.5611,-2.6486,-2.7323,-2.8226,-2.9031,-2.9661,-3.0026,-3.0393,-3.0351,-2.9744,-2.9492,-2.918,-2.8535,-2.8179,-2.7968,0.0,-2.7565,-2.7289,-2.7298,-2.7032,-2.6902,0.0,0.0,-2.7063,-2.7538,-2.8268,-2.9237,-3.0382,-3.0986,-3.1496,-3.2012,-3.2012,-3.2285,-3.2812,-3.3843,-3.4313,-3.4332,-3.4863,-3.5425,-3.5826,-3.6432,-3.7016,-3.759,-3.8209,-3.8476,-3.8613,-3.8619,-3.8649,-3.8766,-3.8798,-3.8587,-3.8322,-2.7215,-2.7027,-2.6954,-2.71,-2.7172,-2.7245,-2.7463,-2.7318,-2.71,-2.6896,-2.6316,-2.5698,-2.5385,-2.4679,-2.4358,-2.4594,-2.3708,-2.3134,-2.3106,-2.2551,-2.2173,-2.2011,-2.14,-2.1109,-2.1109,-2.0949,-2.0735,-2.0441,-2.0441,-2.0544,-2.0711,-2.1194,-2.202,-2.3152,-2.3891,-2.4911,-2.604,-2.6198,-2.6756,-2.7414,-2.7389,-2.7691,-2.8067,-2.8067,-2.8014,-2.7872,-2.7758,-2.7548,-2.734,-2.72,-2.7564,-2.8064,-2.8239,-2.8818,-2.9412,-2.924,-2.8747,-2.8029,-2.7276,-2.6382,-2.5645,-2.549,-2.5813,-2.6423,-2.7417,-2.8141,-2.8719,-2.9427,-2.9949,-3.0374,-3.0587,-3.0762,-3.0664,-2.998,-2.9595,-2.9114,-2.8474,-2.7879,-2.7465,-2.7364,-2.6807,-2.6363,-2.6231,-2.6025,-2.5784,-2.5558,-2.5675,0.0,-2.6575,-2.7727,-2.902,-3.0344,-3.1351,-3.2092,-3.2461,-3.2656,-3.2887,-3.3126,-3.3693,-3.388,-3.3736,-3.3985,-3.4459,-3.5034,-3.5684,-3.6493,-3.7445,-3.8059,-3.8302,-3.834,-3.808,-3.7896,-3.7678,-3.7558,-3.7406,-3.7348,-2.8607,-2.8501,-2.846,-2.8604,-2.8604,-2.8676,-2.8819,-2.8676,-2.846,-2.8171,-2.7727,-2.7244,-2.6899,-2.6237,-2.5991,-2.6354,-2.4939,-2.4132,-2.4241,-2.3315,-2.269,-2.2635,-2.1778,-2.1212,-2.1172,-2.1109,-2.0989,-2.0735,-2.0735,-2.08,-2.0909,-2.1637,-2.2647,-2.396,-2.5194,-2.6458,-2.7591,-2.7753,-2.8142,-2.8619,-2.8308,-2.8315,-2.8476,-2.8476,-2.8369,-2.8211,-2.8468,-2.8537,-2.8482,-2.8762,-2.9212,-2.9549,-2.9549,-2.9962,-3.045,-3.045,-2.9757,-2.8937,-2.837,-2.7741,-2.7263,-2.7357,-2.7564,-2.8062,-2.8975,-2.9627,-3.0098,-3.0392,-3.0704,-3.0898,-3.0898,-3.0898,-3.0723,-3.0195,-2.9523,-2.8912,-2.8432,0.0,-2.6774,-2.6489,-2.5913,-2.5352,-2.496,-2.4855,-2.4672,-2.4396,-2.4619,-2.5058,-2.5749,-2.7262,-2.8666,-3.0067,-3.1584,-3.2647,-3.3086,-3.3437,-3.3597,-3.3642,-3.3539,-3.3315,-3.2902,-3.2887,-3.3286,-3.4108,-3.4631,-3.5739,-3.7255,-3.7715,-3.7936,-3.7827,-3.7409,-3.6892,-3.6368,-3.6071,-3.6137,-3.6385,-3.0472,-3.0248,-3.025,-3.0872,-3.0943,-3.1226,-3.1877,-3.1367,-3.0943,-3.0872,-2.9686,-2.8774,-2.8475,-2.7762,-2.7427,-2.7555,-2.7293,-2.6625,-2.5447,-2.4444,-2.3705,-2.3434,-2.2498,-2.181,-2.1551,-2.1235,-2.1082,-2.1042,-2.1042,-2.133,-2.1902,-2.2835,-2.4009,-2.5323,-2.6584,-2.7678,-2.8589,-2.8804,-2.9082,-2.9417,-2.9339,-2.9375,-2.9375,-2.9375,-2.9375,-2.9319,-2.9119,-2.9258,-2.9508,-2.9317,-2.9678,-3.0255,-3.0255,-3.0509,-3.082,-3.082,-3.0665,-3.0413,-2.9749,-2.912,-2.8706,-2.8998,-2.9057,-2.9313,-3.0039,-3.0274,-3.0392,-3.0762,-3.0879,-3.0898,-3.0898,-3.0898,-3.0625,-2.9805,-2.9329,-2.8742,-2.7685,0.0,-2.6151,-2.5984,-2.5109,-2.4624,-2.4593,-2.431,-2.4004,-2.3659,-2.3717,-2.4058,-2.4796,-2.6417,-2.818,-2.9854,-3.1877,-3.3415,-3.4394,-3.4473,-3.4335,-3.4085,-3.3487,-3.2829,-3.2167,-3.1564,-3.1722,-3.2509,-3.3584,-3.4921,-3.6442,-3.7181,-3.7495,-3.7459,-3.6641,-3.5882,-3.5106,-3.5123,-3.5113,-3.5271,-3.238,-3.2333,-3.2316,-3.2666,-3.2736,-3.2876,-3.3242,-3.2945,-3.2648,-3.2438,-3.1789,-3.1245,-3.0935,-3.0198,-2.9851,-3.0123,-2.9593,-2.9135,-2.8871,-2.6749,-2.5402,-2.5056,-2.3818,-2.2793,-2.1861,-2.157,-2.1299,-2.1109,-2.1299,-2.174,-2.2418,-2.3417,-2.4656,-2.6189,-2.7227,-2.8328,-2.9367,-2.9413,-2.9639,-2.9883,-2.9668,-2.9626,-2.9626,-2.9626,-2.9626,-2.959,-2.9655,-2.9812,-3.0025,-3.0142,-3.0413,-3.0704,-3.0704,-3.0762,-3.0898,-3.0898,-3.0762,-3.0567,-3.0274,-2.9804,-2.9568,-2.9844,-2.9962,-3.0079,-3.0567,-3.0704,-3.0704,-3.0879,-3.0898,-3.0898,-3.0898,-3.0898,-3.0626,-2.9849,-2.9298,0.0,-2.7214,-2.6101,-2.5377,-2.5055,-2.4193,-2.3673,-2.3665,-2.3542,-2.328,-2.2949,-2.3185,-2.3786,-2.4742,-2.6306,-2.809,-3.0088,-3.2454,-3.4117,-3.5078,-3.4824,-3.4561,-3.4213,-3.3286,-3.2325,-3.1425,-3.0684,-3.064,-3.1277,-3.2657,-3.4236,-3.5903,-3.6738,-3.696,-3.6701,-3.5793,-3.4633,-3.3457,-3.3531,-3.3726,-3.418,-3.3954,-3.402,-3.4094,-3.4163,-3.4232,-3.4232,-3.4301,-3.4232,-3.4075,-3.378,-3.3572,-3.3363,-3.3103,-3.2438,-3.2158,-3.2456,-3.1704,-3.1496,-3.2081,-2.9665,-2.7896,-2.6968,-2.5356,-2.3875,-2.2613,-2.2052,-2.1647,-2.1343,-2.1515,-2.1915,-2.2606,-2.3604,-2.4964,-2.651,-2.7539,-2.8677,-2.9785,-2.9872,-3.0084,-3.0332,-3.0,-2.9883,-2.9883,-2.9883,-2.9883,-2.9922,-3.0234,-3.0351,-3.041,-3.0762,-3.0898,-3.0898,-3.0898,-3.0957,-3.1035,-3.1035,-3.0917,-3.0779,-3.0683,-3.0487,-3.0388,-3.072,-3.0798,-3.0877,-3.1113,-3.1191,-3.1191,-3.1191,-3.1191,-3.1191,-3.1191,-3.1113,-3.0782,-3.0046,0.0,-2.8321,-2.6942,-2.5771,-2.4843,-2.4394,-2.361,-2.3057,-2.3018,-2.294,-2.2822,-2.2619,-2.306,-2.3773,-2.4804,-2.6179,-2.8138,-3.0732,-3.3096,-3.4662,-3.5412,-3.5129,-3.4776,-3.4448,-3.3363,-3.2228,-3.1111,-3.0284,-3.014,-3.0623,-3.2077,-3.3742,-3.553,-3.6201,-3.6201,-3.5716,-3.4626,-3.3248,-3.1871,-3.191,-3.2429,-3.3265,-3.4739,-3.4793,-3.4921,-3.5333,-3.5333,-3.547,-3.5811,-3.5538,-3.5333,-3.5333,-3.4715,-3.4301,-3.4301,-3.3886,-3.3659,-3.3678,-3.3572,-3.3528,-3.3533,-3.3015,-3.1644,-2.9265,-2.6842,-2.5062,-2.3948,-2.3014,-2.2346,-2.2038,-2.1751,-2.1915,-2.2606,-2.3604,-2.4841,-2.6189,-2.7461,-2.854,-2.949,-3.0119,-3.0529,-3.084,-3.0801,-3.0801,-3.0801,-3.0801,-3.0801,-3.0801,-3.082,-3.084,-3.084,-3.0879,-3.0898,-3.0898,-3.0898,-3.1152,-3.1465,-3.1465,-3.1758,-3.1973,-3.1522,-3.1405,-3.1503,-3.1973,-3.207,-3.207,-3.207,-3.207,-3.207,-3.207,-3.207,-3.207,-3.207,-3.1738,-3.121,-3.047,0.0,0.0,-2.696,-2.6049,-2.5101,-2.4147,-2.3702,-2.3339,-2.2914,-2.293,-2.3021,-2.3233,-2.33,-2.3588,-2.4282,-2.5727,-2.8231,-3.1842,-3.3863,-3.5051,-3.55,-3.5734,-3.5529,-3.4883,-3.4058,-3.2896,-3.1426,-3.0713,-3.0564,-3.0898,-3.2193,-3.3592,-3.5082,-3.553,-3.5231,-3.4406,-3.2816,-3.1558,-3.056,-3.059,-3.1335,-3.2541,-3.552,-3.5559,-3.5606,-3.5743,-3.5811,-3.5811,-3.5947,-3.5879,-3.5811,-3.5811,-3.5538,-3.5401,-3.5401,-3.5059,-3.4853,-3.4853,-3.4646,-3.4571,-3.4831,-3.447,-3.312,-3.0537,-2.8641,-2.7083,-2.5784,-2.4535,-2.3508,-2.273,-2.2813,-2.3078,-2.3577,-2.4789,-2.5991,-2.7119,-2.8009,-2.8877,-2.9804,-3.0035,-3.0411,-3.0898,-3.0898,-3.0898,-3.0898,-3.0898,-3.0898,-3.0898,-3.0898,-3.0898,-3.0898,-3.0898,-3.0898,-3.0937,-3.1191,-3.1387,-3.1562,-3.1836,-3.2031,-3.2187,-3.2285,-3.2109,-3.1953,-3.219,-3.2229,-3.2229,-3.2229,-3.2229,-3.2229,-3.2229,-3.2229,-3.2229,-3.2229,-3.2031,-3.1675,-3.1019,0.0,-2.9113,-2.7574,-2.6313,-2.5184,-2.4098,-2.3544,-2.3104,-2.2944,-2.3035,-2.3193,-2.3313,-2.3661,-2.4058,-2.4597,-2.6243,-2.8357,-3.0938,-3.2667,-3.4176,-3.5489,-3.5811,-3.5879,-3.5647,-3.4611,-3.3661,-3.2595,-3.1811,-3.1404,-3.1324,-3.2517,-3.359,-3.4632,-3.4782,-3.4406,-3.35,-3.1807,-3.0482,-2.9334,-2.9295,-3.0048,-3.1265,-3.5957,-3.6016,-3.6016,-3.6016,-3.6016,-3.6016,-3.6016,-3.6016,-3.6016,-3.6016,-3.6016,-3.6016,-3.6016,-3.5811,-3.5694,-3.5694,-3.5401,-3.5333,-3.5606,-3.5401,-3.424,-3.1962,-3.053,-2.9123,-2.7812,-2.6187,-2.4805,-2.3708,-2.3738,-2.3956,-2.4281,-2.543,-2.6583,-2.7727,-2.8348,-2.9231,-3.0232,-3.0253,-3.06,-3.1094,-3.1094,-3.1016,-3.0898,-3.0898,-3.0898,-3.0898,-3.0898,-3.0898,-3.0898,-3.0898,-3.0976,-3.1133,-3.1426,-3.1699,-3.2012,-3.2441,-3.2559,-3.2617,-3.291,-3.2793,-3.2559,-3.2559,-3.2559,-3.2559,-3.2559,-3.2559,-3.2559,-3.2559,-3.2559,-3.2559,-3.2559,-3.2461,-3.218,-3.1484,-3.0816,-2.9795,-2.8106,-2.6792,-2.5597,-2.4326,-2.3655,-2.3229,-2.3048,-2.3207,-2.3407,-2.3594,-2.3981,-2.438,-2.4898,-2.643,-2.8155,-2.9977,-3.1632,-3.3376,-3.5161,-3.5855,-3.6216,-3.6297,-3.5496,-3.4702,-3.3795,-3.3163,-3.2509,-3.209,-3.2868,-3.35,-3.4029,-3.4029,-3.3575,-3.2664,-3.1132,-2.9859,-2.8856,-2.8688,-2.9324,-3.0527,-3.6016,-3.6016,-3.6016,-3.6016,-3.6016,-3.6016,-3.6016,-3.6016,-3.6016,-3.6016,-3.6016,-3.6016,-3.6016,-3.6016,-3.6035,-3.6035,-3.6035,-3.6016,-3.6016,-3.6016,-3.5345,-3.3891,-3.2356,-3.0994,-2.9931,-2.7802,-2.6187,-2.5135,-2.4428,-2.4281,-2.462,-2.5381,-2.6472,-2.7744,-2.842,-2.944,-3.0741,-3.1049,-3.129,-3.1523,-3.1523,-3.1269,-3.0898,-3.0898,-3.0898,-3.0898,-3.0898,-3.0898,-3.0898,-3.0898,-3.1172,-3.1523,-3.1523,-3.2129,-3.2891,-3.3301,-3.3437,-3.3418,-3.3418,-3.3418,-3.3418,-3.3418,-3.3418,-3.3437,-3.3437,-3.3437,-3.3437,-3.3437,-3.3437,-3.3418,-3.3418,-3.3086,-3.2607,-3.1903,-3.1189,-3.0142,-2.8455,-2.7599,-2.6448,-2.4687,-2.4175,-2.3818,-2.337,-2.3327,-2.3581,-2.4155,-2.4209,-2.4488,-2.5152,-2.6256,-2.76,-2.9116,-3.1007,-3.2745,-3.4415,-3.592,-3.672,-3.672,-3.6785,-3.6178,-3.4972,-3.4606,-3.3954,-3.3196,-3.3196,-3.3196,-3.3196,-3.3196,-3.274,-3.1916,-3.0593,-2.9781,-2.9239,-2.8768,-2.9324,-3.046,-3.6016,-3.6016,-3.6016,-3.6016,-3.6016,-3.6016,-3.6016,-3.6016,-3.6016,-3.6016,-3.6016,-3.6016,-3.6016,-3.6289,-3.6484,-3.6484,-3.6484,-3.6348,-3.6035,-3.6016,-3.5821,-3.5345,-3.4115,-3.2814,-3.147,-2.9811,-2.8163,-2.6546,-2.6401,-2.6355,-2.6471,-2.7638,-2.868,-2.9567,-3.0212,-3.0858,-3.1483,-3.155,-3.1725,-3.1973,-3.1973,-3.1894,-3.1777,-3.1777,-3.1777,-3.1777,-3.1777,-3.1777,-3.1777,-3.1777,-3.1875,-3.207,-3.2676,-3.3437,-3.4101,-3.3926,-3.3887,-3.3809,-3.3496,-3.3418,-3.3418,-3.3418,-3.3652,-3.3887,-3.3887,-3.4101,-3.4238,-3.3945,-3.3887,-3.3789,-3.3476,-3.332,-3.3087,-3.2739,-3.204,-3.1089,-2.9926,-2.864,-2.7254,-2.5446,-2.4899,-2.4274,-2.341,-2.3701,-2.4008,-2.4195,-2.4583,-2.4938,-2.5093,-2.5903,-2.706,-2.855,-3.0015,-3.1902,-3.4355,-3.5627,-3.657,-3.7163,-3.7225,-3.6856,-3.6257,-3.5253,-3.4255,-3.312,-3.2283,-3.213,-3.2375,-3.2053,-3.213,-3.2299,-3.1363,-3.0717,-3.0234,-2.97,-2.9946,-3.0528,-3.6016,-3.6016,-3.6016,-3.6016,-3.6016,-3.6016,-3.6016,-3.6016,-3.6016,-3.6016,-3.6016,-3.6094,-3.625,-3.6504,-3.6738,-3.6894,-3.6914,-3.6738,-3.6309,-3.6289,-3.6191,-3.6035,-3.5355,-3.4315,-3.301,-3.1519,-2.9997,-2.8494,-2.8178,-2.7979,-2.7833,-2.8954,-2.987,-3.0584,-3.1248,-3.179,-3.2213,-3.2214,-3.227,-3.2422,-3.2422,-3.2324,-3.2229,-3.2229,-3.2229,-3.2229,-3.2229,-3.2229,-3.2229,-3.2229,-3.2383,-3.2812,-3.3652,-3.4277,-3.4648,-3.4394,-3.4316,-3.4258,-3.4004,-3.3926,-3.3926,-3.3926,-3.4004,-3.4121,-3.4277,-3.4512,-3.4629,-3.4375,-3.4316,-3.4238,-3.3984,-3.3926,-3.3811,-3.3497,-3.288,-3.1963,-3.0802,-2.9388,-2.7862,-2.621,-2.5466,-2.4862,-2.417,-2.434,-2.4434,-2.4529,-2.4877,-2.513,-2.5251,-2.5913,-2.6773,-2.7865,-2.9211,-3.1049,-3.3407,-3.475,-3.6178,-3.7624,-3.7822,-3.7594,-3.7034,-3.5754,-3.4481,-3.312,-3.19,-3.1456,-3.1533,-3.1593,-3.213,-3.2816,-3.2283,-3.2037,-3.184,-3.0949,-3.1148,-3.1806,-3.6016,-3.6016,-3.6016,-3.6016,-3.6016,-3.6016,-3.6016,-3.6016,-3.6016,-3.6016,-3.6055,-3.623,-3.6621,-3.6738,-3.6934,-3.7324,-3.7344,-3.7168,-3.6758,-3.6699,-3.6484,-3.6094,-3.6035,-3.5481,-3.4469,-3.3028,-3.1756,-3.0632,-2.9931,-2.9476,-2.907,-2.9757,-3.0408,-3.1138,-3.1763,-3.2403,-3.2912,-3.2912,-3.2889,-3.2851,-3.2851,-3.2617,-3.2285,-3.2285,-3.2285,-3.2285,-3.2285,-3.2285,-3.2285,-3.2385,-3.2871,-3.3672,-3.4492,-3.4785,-3.4805,-3.4766,-3.4766,-3.4746,-3.4707,-3.4707,-3.4707,-3.4746,-3.4473,-3.4297,-3.4668,-3.4785,-3.4805,-3.4766,-3.4766,-3.4746,-3.4707,-3.4707,-3.4576,-3.4305,-3.3643,-3.271,-3.1331,-2.9899,-2.8366,-2.6958,-2.6146,-2.5641,-2.5468,-2.5077,-2.4902,-2.5112,-2.5104,-2.5251,-2.5531,-2.6225,-2.6776,-2.715,-2.8647,-3.0191,-3.1884,-3.3483,-3.553,-3.7862,-3.8375,-3.8136,-3.7329,-3.6126,-3.4707,-3.312,-3.1916,-3.1164,-3.0933,-3.1686,-3.2528,-3.3348,-3.3424,-3.3651,-3.3837,-3.2626,-3.2908,-3.3835,-3.6016,-3.6016,-3.6016,-3.6016,-3.6016,-3.6016,-3.6016,-3.6016,-3.6016,-3.6016,-3.6309,-3.6562,-3.666,-3.7266,-3.7695,-3.7773,-3.7793,-3.7617,-3.7187,-3.6855,-3.6621,-3.6543,-3.6211,-3.5908,-3.5675,-3.4421,-3.3315,-3.2175,-3.1715,-3.1384,-3.1294,-3.1653,-3.2083,-3.2466,-3.2912,-3.3165,-3.3292,-3.3292,-3.3316,-3.3281,-3.3281,-3.3242,-3.3144,-3.3144,-3.3144,-3.3144,-3.3144,-3.3144,-3.3203,-3.3535,-3.4004,-3.4512,-3.5078,-3.5469,-3.5664,-3.5332,-3.5234,-3.5156,-3.4805,-3.4707,-3.4785,-3.5156,-3.5176,-3.5137,-3.5215,-3.5508,-3.5644,-3.5312,-3.5234,-3.5137,-3.4766,-3.4707,-3.4673,-3.4709,-3.4029,-3.3311,-3.2452,-3.1005,-2.9498,-2.8115,-2.7391,-2.6748,-2.5855,-2.5344,-2.5133,-2.5125,-2.5291,-2.5545,-2.5838,-2.6224,-2.6608,-2.7001,-2.8011,-2.9353,-3.0963,-3.2952,-3.5007,-3.7034,-3.7789,-3.7862,-3.7329,-3.6126,-3.4707,-3.312,-3.1517,-3.0978,-3.1318,-3.1824,-3.3028,-3.4632,-3.4932,-3.5306,-3.5623,-3.502,-3.4907,-3.525,-3.6016,-3.6016,-3.6016,-3.6016,-3.6016,-3.6016,-3.6016,-3.6016,-3.6016,-3.6016,-3.6406,-3.6738,-3.6953,-3.7539,-3.8008,-3.8223,-3.8223,-3.8047,-3.7617,-3.7383,-3.7187,-3.6973,-3.6562,-3.6328,-3.6328,-3.5559,-3.4642,-3.3736,-3.3123,-3.2693,-3.2506,-3.2611,-3.274,-3.2912,-3.3228,-3.3418,-3.3418,-3.3418,-3.3418,-3.3418,-3.3418,-3.3418,-3.3418,-3.3418,-3.3418,-3.3418,-3.3418,-3.3555,-3.3789,-3.4238,-3.4668,-3.5117,-3.5547,-3.584,-3.5976,-3.5762,-3.5684,-3.5644,-3.5391,-3.5332,-3.5391,-3.5625,-3.5684,-3.5684,-3.5684,-3.5859,-3.5957,-3.5742,-3.5859,-3.5937,-3.5684,-3.5801,-3.5889,-3.5724,-3.4952,-3.4057,-3.3363,-3.1754,-3.0414,-2.965,-2.8869,-2.7837,-2.659,-2.6135,-2.5791,-2.534,-2.5558,-2.5852,-2.6146,-2.6306,-2.6465,-2.6716,-2.7333,-2.8353,-2.9819,-3.1654,-3.3634,-3.568,-3.7255,-3.7862,-3.7642,-3.6442,-3.5082,-3.3727,-3.2283,-3.167,-3.1763,-3.2495,-3.3785,-3.5381,-3.5903,-3.6516,-3.696,-3.6349,-3.6417,-3.6925,-3.6016,-3.6016,-3.6016,-3.6016,-3.6016,-3.6016,-3.6016,-3.6016,-3.6016,-3.6016,-3.6406,-3.6836,-3.7246,-3.7734,-3.8184,-3.8555,-3.8574,-3.8418,-3.8066,-3.7969,-3.7773,-3.7422,-3.7012,-3.6738,-3.668,-3.6309,-3.5782,-3.5066,-3.4375,-3.3794,-3.3516,-3.3194,-3.3091,-3.3091,-3.333,-3.3418,-3.3418,-3.3418,-3.3418,-3.3418,-3.3418,-3.3418,-3.3437,-3.3496,-3.3535,-3.3535,-3.3613,-3.3867,-3.4238,-3.4668,-3.5078,-3.5469,-3.5879,-3.6016,-3.6016,-3.6016,-3.6016,-3.6016,-3.6016,-3.6016,-3.6016,-3.6016,-3.6016,-3.6016,-3.6016,-3.6016,-3.6035,-3.6113,-3.6337,-3.663,-3.6688,-3.693,-3.6976,-3.6627,-3.5781,-3.4948,-3.4106,-3.2597,-3.1534,-3.1304,-3.0176,-2.8806,-2.7261,-2.692,-2.6472,-2.5648,-2.5812,-2.6079,-2.6373,-2.6386,-2.6386,-2.6386,-2.6795,-2.7569,-2.8822,-3.0423,-3.219,-3.4255,-3.6423,-3.7642,-3.7862,-3.6886,-3.5754,-3.4556,-3.3424,-3.2664,-3.2375,-3.3424,-3.4481,-3.568,-3.6423,-3.7181,-3.7789,-3.7107,-3.7484,-3.8385,-3.6016,-3.6016,-3.6016,-3.6016,-3.6016,-3.6016,-3.6016,-3.6016,-3.6016,-3.6016,-3.6406,-3.6836,-3.7246,-3.8008,-3.8516,-3.8574,-3.8574,-3.8555,-3.8496,-3.8125,-3.791,-3.7851,-3.7441,-3.7051,-3.668,-3.6621,-3.6367,-3.5869,-3.5373,-3.514,-3.5062,-3.431,-3.392,-3.3901,-3.3594,-3.3418,-3.3418,-3.3418,-3.3418,-3.3418,-3.3418,-3.3418,-3.3457,-3.3848,-3.3984,-3.4023,-3.4394,-3.457,-3.4687,-3.5137,-3.5351,-3.5469,-3.5879,-3.6016,-3.6016,-3.6016,-3.6016,-3.6016,-3.6016,-3.6016,-3.6016,-3.6016,-3.6016,-3.6016,-3.6016,-3.6016,-3.6133,-3.6504,-3.6413,-3.6271,-3.6637,-3.6469,-3.6223,-3.6167,-3.6077,-3.5755,-3.4968,-3.4414,-3.3622,-3.2608,-3.0852,-2.9223,-2.7938,-2.7154,-2.6475,-2.5956,-2.5932,-2.6079,-2.6373,-2.6386,-2.6386,-2.6386,-2.6795,-2.7425,-2.8353,-2.9974,-3.1654,-3.3348,-3.4782,-3.6126,-3.7495,-3.7329,-3.659,-3.5381,-3.4556,-3.3954,-3.3575,-3.3727,-3.4481,-3.568,-3.6126,-3.6812,-3.7495,-3.7329,-3.7858,-3.8652,-3.6016,-3.6211,-3.6387,-3.6387,-3.6582,-3.666,-3.6426,-3.6387,-3.6289,-3.6055,-3.6601,-3.709,-3.7266,-3.8066,-3.8574,-3.8574,-3.8574,-3.8574,-3.8574,-3.8398,-3.8281,-3.8281,-3.7871,-3.7461,-3.7031,-3.6797,-3.6465,-3.6016,-3.5605,-3.5391,-3.5391,-3.4726,-3.4414,-3.4414,-3.4219,-3.4141,-3.4141,-3.4141,-3.4141,-3.4141,-3.4141,-3.4141,-3.416,-3.4355,-3.4414,-3.4453,-3.4629,-3.4863,-3.5117,-3.5332,-3.5547,-3.5781,-3.5957,-3.6016,-3.6016,-3.6016,-3.6016,-3.6016,-3.6016,-3.6016,-3.6016,-3.6016,-3.6016,-3.6094,-3.6328,-3.6387,-3.6445,-3.6641,-3.677,-3.6784,-3.6742,-3.6629,-3.6415,-3.619,-3.6008,-3.5627,-3.5045,-3.4523,-3.3709,-3.2543,-3.122,-2.9809,-2.8372,-2.7625,-2.6878,-2.6023,-2.6106,-2.6253,-2.6386,-2.6386,-2.6386,-2.6386,-2.6544,-2.6939,-2.7583,-2.8964,-3.0268,-3.1485,-3.318,-3.5082,-3.7034,-3.6812,-3.6442,-3.5903,-3.5082,-3.4406,-3.3802,-3.3802,-3.4105,-3.4632,-3.5306,-3.6052,-3.6757,-3.698,-3.7445,-3.8003]},{"header":{"parameterUnit":"m.s-1","parameterCategory":1,"la1":30.6,"la2":28.766,"lo1":-90.7593,"lo2":-88.6598,"dy":0.0162,"dx":0.0183,"nx":116,"ny":114,"refTime":"2023-10-23T18:00:00:Z","depth":0,"parameterNumber":3,"parameterNumberName":"V-component_of_WINDS"},"data":[0.0,0.0,0.0,0.0,0.0,0.0,0.0,0.0,0.0,0.0,0.0,0.0,0.0,0.0,0.0,0.0,0.0,0.0,0.0,0.0,0.0,0.0,0.0,0.0,0.0,0.0,0.0,0.0,0.0,0.0,0.0,0.0,0.0,0.0,0.0,0.0,0.0,0.0,0.0,0.0,0.0,0.0,0.0,0.0,0.0,0.0,0.0,0.0,0.0,0.0,0.0,0.0,0.0,0.0,0.0,0.0,0.0,0.0,0.0,0.0,0.0,0.0,0.0,0.0,0.0,0.0,0.0,0.0,0.0,0.0,0.0,0.0,0.0,0.0,0.0,0.0,0.0,0.0,0.0,0.0,0.0,0.0,0.0,0.0,0.0,0.0,0.0,0.0,0.0,0.0,0.0,0.0,0.0,0.0,0.0,0.0,0.0,0.0,0.0,0.0,0.0,0.0,0.0,0.0,0.0,0.0,0.0,0.0,0.0,0.0,0.0,0.0,0.0,0.0,0.0,0.0,0.0,0.0,0.0,0.0,0.0,0.0,0.0,0.0,0.0,0.0,0.0,0.0,0.0,0.0,0.0,0.0,0.0,0.0,0.0,0.0,0.0,0.0,0.0,0.0,0.0,0.0,0.0,0.0,0.0,0.0,0.0,0.0,0.0,0.0,0.0,0.0,0.0,0.0,0.0,0.0,0.0,0.0,0.0,0.0,0.0,0.0,0.0,0.0,0.0,0.0,0.0,0.0,0.0,0.0,0.0,0.0,0.0,0.0,0.0,0.0,0.0,0.0,0.0,0.0,0.0,0.0,0.0,0.0,0.0,0.0,0.0,0.0,0.0,0.0,0.0,0.0,0.0,0.0,0.0,0.0,0.0,0.0,0.0,0.0,0.0,0.0,0.0,0.0,0.0,0.0,0.0,0.0,0.0,0.0,0.0,0.0,0.0,0.0,0.0,0.0,0.0,0.0,0.0,0.0,0.0,0.0,0.0,0.0,0.0,0.0,0.0,0.0,0.0,0.0,0.0,0.0,0.0,0.0,0.0,0.0,0.0,0.0,0.0,0.0,0.0,0.0,0.0,0.0,0.0,0.0,0.0,0.0,0.0,0.0,0.0,0.0,0.0,0.0,0.0,0.0,0.0,0.0,0.0,0.0,0.0,0.0,0.0,0.0,0.0,0.0,0.0,0.0,0.0,0.0,0.0,0.0,0.0,0.0,0.0,0.0,0.0,0.0,0.0,0.0,0.0,0.0,0.0,0.0,0.0,0.0,0.0,0.0,0.0,0.0,0.0,0.0,0.0,0.0,0.0,0.0,0.0,0.0,0.0,0.0,0.0,0.0,0.0,0.0,0.0,0.0,0.0,0.0,0.0,0.0,0.0,0.0,0.0,0.0,0.0,0.0,0.0,0.0,0.0,0.0,0.0,0.0,0.0,0.0,0.0,0.0,0.0,0.0,0.0,0.0,0.0,0.0,0.0,0.0,0.0,0.0,0.0,0.0,0.0,0.0,0.0,0.0,0.0,0.0,0.0,0.0,0.0,0.0,0.0,0.0,0.0,0.0,0.0,0.0,0.0,0.0,0.0,0.0,0.0,0.0,0.0,0.0,0.0,0.0,0.0,0.0,0.0,0.0,0.0,0.0,0.0,0.0,0.0,0.0,0.0,0.0,0.0,0.0,0.0,0.0,0.0,0.0,0.0,0.0,0.0,0.0,0.0,0.0,0.0,0.0,0.0,0.0,0.0,0.0,0.0,0.0,0.0,0.0,0.0,0.0,0.0,0.0,0.0,0.0,0.0,0.0,0.0,0.0,0.0,0.0,0.0,0.0,0.0,0.0,0.0,0.0,0.0,0.0,0.0,0.0,0.0,0.0,0.0,0.0,0.0,0.0,0.0,0.0,0.0,0.0,0.0,0.0,0.0,0.0,0.0,0.0,0.0,0.0,0.0,0.0,0.0,0.0,0.0,0.0,0.0,0.0,0.0,0.0,0.0,0.0,0.0,0.0,0.0,0.0,0.0,0.0,0.0,0.0,0.0,0.0,0.0,0.0,0.0,0.0,0.0,0.0,0.0,0.0,0.0,0.0,0.0,0.0,0.0,0.0,0.0,0.0,0.0,0.0,0.0,0.0,0.0,0.0,0.0,0.0,0.0,0.0,0.0,0.0,0.0,0.0,0.0,0.0,0.0,0.0,0.0,0.0,0.0,0.0,0.0,0.0,0.0,0.0,0.0,0.0,0.0,0.0,0.0,0.0,0.0,0.0,0.0,0.0,0.0,0.0,0.0,0.0,0.0,0.0,0.0,0.0,0.0,0.0,0.0,0.0,0.0,0.0,0.0,0.0,0.0,0.0,0.0,0.0,0.0,0.0,0.0,0.0,0.0,0.0,0.0,0.0,0.0,0.0,0.0,0.0,0.0,0.0,0.0,0.0,0.0,0.0,0.0,0.0,0.0,0.0,0.0,0.0,0.0,0.0,0.0,0.0,0.0,0.0,0.0,0.0,0.0,0.0,0.0,0.0,0.0,0.0,0.0,0.0,0.0,0.0,0.0,0.0,0.0,0.0,0.0,0.0,0.0,0.0,0.0,0.0,0.0,0.0,0.0,0.0,0.0,0.0,0.0,0.0,0.0,0.0,0.0,0.0,0.0,0.0,0.0,0.0,0.0,0.0,0.0,0.0,0.0,0.0,0.0,0.0,0.0,0.0,0.0,0.0,0.0,0.0,0.0,0.0,0.0,0.0,0.0,0.0,0.0,0.0,0.0,0.0,0.0,0.0,0.0,0.0,0.0,0.0,0.0,0.0,0.0,0.0,0.0,0.0,0.0,0.0,0.0,0.0,0.0,0.0,0.0,0.0,0.0,0.0,0.0,0.0,0.0,0.0,0.0,0.0,0.0,0.0,0.0,0.0,0.0,0.0,0.0,0.0,0.0,0.0,0.0,0.0,0.0,0.0,0.0,0.0,0.0,0.0,0.0,0.0,0.0,0.0,0.0,0.0,0.0,0.0,0.0,0.0,0.0,0.0,0.0,0.0,0.0,0.0,0.0,0.0,0.0,0.0,0.0,0.0,0.0,0.0,0.0,0.0,0.0,0.0,0.0,0.0,0.0,0.0,0.0,0.0,0.0,0.0,0.0,0.0,0.0,0.0,0.0,0.0,0.0,0.0,0.0,0.0,0.0,0.0,0.0,0.0,0.0,0.0,0.0,0.0,0.0,0.0,0.0,0.0,0.0,0.0,0.0,0.0,0.0,0.0,0.0,0.0,0.0,0.0,0.0,0.0,0.0,0.0,0.0,0.0,0.0,0.0,0.0,0.0,0.0,0.0,0.0,0.0,0.0,0.0,0.0,0.0,0.0,0.0,0.0,0.0,0.0,0.0,0.0,0.0,0.0,0.0,0.0,0.0,0.0,0.0,0.0,0.0,0.0,0.0,0.0,0.0,0.0,0.0,0.0,0.0,0.0,0.0,0.0,0.0,0.0,0.0,0.0,0.0,0.0,0.0,0.0,0.0,0.0,0.0,0.0,0.0,0.0,0.0,0.0,0.0,0.0,0.0,0.0,0.0,0.0,0.0,0.0,0.0,0.0,0.0,0.0,0.0,0.0,0.0,0.0,0.0,0.0,0.0,0.0,0.0,0.0,0.0,0.0,0.0,0.0,0.0,0.0,0.0,0.0,0.0,0.0,0.0,0.0,0.0,0.0,0.0,0.0,0.0,0.0,0.0,0.0,0.0,0.0,0.0,0.0,0.0,0.0,0.0,0.0,0.0,0.0,0.0,0.0,0.0,0.0,0.0,0.0,0.0,0.0,0.0,0.0,0.0,0.0,0.0,0.0,0.0,0.0,0.0,0.0,0.0,0.0,0.0,0.0,0.0,0.0,0.0,0.0,0.0,0.0,0.0,0.0,0.0,0.0,0.0,0.0,0.0,0.0,0.0,0.0,0.0,0.0,0.0,0.0,0.0,0.0,0.0,0.0,0.0,0.0,0.0,0.0,0.0,0.0,0.0,0.0,0.0,0.0,0.0,0.0,0.0,0.0,0.0,0.0,0.0,0.0,0.0,0.0,0.0,0.0,0.0,0.0,0.0,0.0,0.0,0.0,0.0,0.0,0.0,0.0,0.0,0.0,0.0,0.0,0.0,0.0,0.0,0.0,0.0,0.0,0.0,0.0,0.0,0.0,0.0,0.0,0.0,0.0,0.0,0.0,0.0,0.0,0.0,0.0,0.0,0.0,0.0,0.0,0.0,0.0,0.0,0.0,0.0,0.0,0.0,0.0,0.0,0.0,0.0,0.0,0.0,0.0,0.0,0.0,0.0,0.0,0.0,0.0,0.0,0.0,0.0,0.0,0.0,0.0,0.0,0.0,0.0,0.0,0.0,0.0,0.0,0.0,0.0,0.0,0.0,0.0,0.0,0.0,0.0,0.0,0.0,0.0,0.0,0.0,0.0,0.0,0.0,0.0,0.0,0.0,0.0,0.0,0.0,0.0,0.0,0.0,0.0,0.0,0.0,0.0,0.0,0.0,0.0,0.0,0.0,0.0,0.0,0.0,0.0,0.0,0.0,0.0,0.0,0.0,0.0,0.0,0.0,0.0,0.0,0.0,0.0,0.0,0.0,0.0,0.0,0.0,0.0,0.0,0.0,0.0,0.0,0.0,0.0,0.0,0.0,0.0,0.0,0.0,0.0,0.0,0.0,0.0,0.0,0.0,0.0,0.0,0.0,0.0,0.0,0.0,0.0,0.0,0.0,0.0,0.0,0.0,0.0,0.0,0.0,0.0,0.0,0.0,0.0,0.0,0.0,0.0,0.0,0.0,0.0,0.0,0.0,0.0,0.0,0.0,0.0,0.0,0.0,0.0,0.0,0.0,0.0,0.0,0.0,0.0,0.0,0.0,0.0,0.0,0.0,0.0,0.0,0.0,0.0,0.0,0.0,0.0,0.0,0.0,0.0,0.0,0.0,0.0,0.0,0.0,0.0,0.0,0.0,0.0,0.0,0.0,0.0,0.0,0.0,0.0,0.0,0.0,0.0,0.0,0.0,0.0,0.0,0.0,0.0,0.0,0.0,0.0,0.0,0.0,0.0,0.0,0.0,0.0,0.0,0.0,0.0,0.0,0.0,0.0,0.0,0.0,0.0,0.0,0.0,0.0,0.0,0.0,0.0,0.0,0.0,0.0,0.0,0.0,0.0,0.0,0.0,0.0,0.0,0.0,0.0,0.0,0.0,0.0,0.0,0.0,0.0,0.0,0.0,0.0,0.0,0.0,0.0,0.0,0.0,0.0,0.0,0.0,0.0,0.0,0.0,0.0,0.0,0.0,0.0,0.0,0.0,0.0,0.0,0.0,0.0,0.0,0.0,0.0,0.0,0.0,0.0,0.0,0.0,0.0,0.0,0.0,0.0,0.0,0.0,0.0,0.0,0.0,0.0,0.0,0.0,0.0,0.0,0.0,0.0,0.0,0.0,0.0,0.0,0.0,0.0,0.0,0.0,0.0,0.0,0.0,0.0,0.0,0.0,0.0,0.0,0.0,0.0,0.0,0.0,0.0,0.0,0.0,0.0,0.0,0.0,0.0,0.0,0.0,0.0,0.0,0.0,0.0,0.0,0.0,0.0,0.0,0.0,0.0,0.0,0.0,0.0,0.0,0.0,0.0,0.0,0.0,0.0,0.0,0.0,0.0,0.0,0.0,0.0,0.0,0.0,0.0,0.0,0.0,0.0,0.0,0.0,0.0,0.0,0.0,0.0,0.0,0.0,0.0,0.0,0.0,0.0,0.0,0.0,0.0,0.0,0.0,0.0,0.0,0.0,0.0,0.0,0.0,0.0,0.0,0.0,0.0,0.0,0.0,0.0,0.0,0.0,0.0,0.0,0.0,0.0,0.0,0.0,0.0,0.0,0.0,0.0,0.0,0.0,0.0,0.0,0.0,0.0,0.0,0.0,0.0,0.0,0.0,0.0,0.0,0.0,0.0,0.0,0.0,0.0,0.0,0.0,0.0,0.0,0.0,0.0,0.0,0.0,0.0,0.0,0.0,0.0,0.0,0.0,0.0,0.0,0.0,0.0,0.0,0.0,0.0,0.0,0.0,0.0,0.0,0.0,0.0,0.0,5.8769,5.829,0.0,0.0,0.0,0.0,0.0,0.0,0.0,0.0,0.0,0.0,0.0,0.0,0.0,0.0,0.0,0.0,0.0,0.0,0.0,0.0,0.0,0.0,0.0,0.0,0.0,0.0,0.0,0.0,0.0,0.0,0.0,0.0,0.0,0.0,0.0,0.0,0.0,0.0,4.8575,4.751,4.5928,4.5225,4.4095,4.2685,0.0,0.0,0.0,0.0,0.0,0.0,0.0,0.0,0.0,0.0,0.0,0.0,0.0,0.0,0.0,0.0,0.0,0.0,0.0,0.0,0.0,0.0,0.0,0.0,0.0,0.0,0.0,0.0,0.0,0.0,0.0,0.0,0.0,0.0,0.0,0.0,0.0,0.0,0.0,0.0,0.0,0.0,0.0,0.0,0.0,0.0,0.0,0.0,0.0,0.0,0.0,0.0,0.0,0.0,0.0,0.0,0.0,0.0,0.0,0.0,0.0,0.0,0.0,0.0,0.0,0.0,0.0,0.0,0.0,0.0,6.1874,6.075,0.0,0.0,0.0,0.0,0.0,0.0,0.0,0.0,0.0,0.0,0.0,0.0,0.0,0.0,0.0,0.0,0.0,0.0,0.0,0.0,0.0,0.0,0.0,0.0,0.0,0.0,0.0,0.0,0.0,0.0,0.0,0.0,0.0,0.0,0.0,4.9582,5.0048,5.03,4.9051,4.7724,4.6438,4.6351,4.5368,4.3661,4.3216,0.0,0.0,0.0,0.0,0.0,0.0,0.0,0.0,0.0,0.0,0.0,0.0,0.0,0.0,0.0,0.0,0.0,0.0,0.0,0.0,0.0,0.0,0.0,0.0,0.0,0.0,0.0,0.0,0.0,0.0,0.0,0.0,0.0,0.0,0.0,0.0,0.0,0.0,0.0,0.0,0.0,0.0,0.0,0.0,0.0,0.0,0.0,0.0,0.0,0.0,0.0,0.0,0.0,0.0,0.0,0.0,0.0,0.0,0.0,0.0,0.0,0.0,0.0,6.602,6.602,6.6058,6.7104,6.7821,6.8182,6.602,6.4324,6.3014,6.2844,0.0,0.0,0.0,0.0,0.0,0.0,0.0,0.0,0.0,0.0,0.0,0.0,0.0,0.0,0.0,0.0,0.0,0.0,0.0,0.0,0.0,4.3476,4.3625,4.401,4.4251,4.4547,0.0,0.0,0.0,0.0,0.0,0.0,4.9288,4.9863,5.0433,5.1035,4.9853,4.902,4.8556,4.7878,4.7024,4.6028,4.5231,4.467,4.4339,0.0,0.0,0.0,0.0,0.0,0.0,0.0,0.0,0.0,0.0,0.0,0.0,0.0,0.0,0.0,0.0,0.0,0.0,0.0,0.0,0.0,0.0,0.0,0.0,0.0,0.0,0.0,0.0,0.0,0.0,0.0,0.0,0.0,0.0,0.0,0.0,0.0,0.0,0.0,0.0,0.0,5.3945,5.5265,0.0,0.0,0.0,0.0,0.0,0.0,0.0,0.0,0.0,0.0,0.0,0.0,0.0,6.6847,6.8454,6.8585,6.9005,6.9693,6.9693,6.9693,6.9769,7.1391,7.2176,7.2257,7.2485,0.0,6.7112,6.567,0.0,0.0,0.0,0.0,0.0,0.0,0.0,0.0,0.0,0.0,0.0,0.0,0.0,0.0,0.0,0.0,0.0,0.0,0.0,0.0,0.0,4.4259,4.4485,4.5185,4.5219,4.5331,4.5603,0.0,0.0,0.0,0.0,4.7984,4.8763,4.9971,5.0784,5.1166,5.0478,4.9776,4.9036,4.8709,4.8201,4.7548,4.7111,4.6311,4.5153,4.4314,0.0,0.0,0.0,0.0,0.0,0.0,0.0,0.0,0.0,0.0,0.0,0.0,0.0,0.0,0.0,0.0,0.0,0.0,0.0,0.0,0.0,0.0,0.0,0.0,0.0,0.0,0.0,0.0,0.0,0.0,0.0,0.0,0.0,0.0,0.0,0.0,0.0,0.0,0.0,5.5345,5.6845,5.7915,5.8215,5.8435,0.0,0.0,0.0,0.0,0.0,0.0,0.0,0.0,0.0,6.8762,7.0272,7.1444,7.2241,7.2771,7.3223,7.3553,7.3553,7.3553,7.3592,7.4873,7.5379,7.537,7.6142,7.5157,7.2775,6.9455,6.724,6.5917,0.0,0.0,0.0,0.0,6.4934,6.4934,0.0,0.0,0.0,0.0,0.0,0.0,0.0,0.0,0.0,0.0,0.0,0.0,4.5142,4.5199,4.5549,4.6213,4.6371,4.6433,4.6473,4.66,0.0,0.0,4.6965,4.7773,4.847,5.0236,5.1335,5.1642,5.1378,5.0784,4.9949,4.9861,4.9544,4.9076,4.8907,4.7834,4.6134,4.5005,4.4099,4.3403,0.0,0.0,0.0,0.0,0.0,0.0,0.0,0.0,0.0,0.0,0.0,0.0,0.0,0.0,0.0,0.0,0.0,0.0,0.0,0.0,0.0,0.0,0.0,0.0,0.0,0.0,0.0,0.0,0.0,0.0,0.0,0.0,0.0,0.0,0.0,0.0,0.0,5.7925,5.9607,6.1307,6.1466,6.1657,0.0,0.0,0.0,0.0,0.0,0.0,6.8173,6.9789,7.1153,7.2295,7.4243,7.5402,7.5595,7.6308,7.663,7.663,7.663,7.663,7.6669,7.7553,7.7908,7.7847,7.8461,7.8321,7.7308,7.2962,7.0324,6.8951,6.8498,6.7964,6.7523,6.8345,6.8667,6.8684,0.0,0.0,0.0,0.0,0.0,0.0,0.0,0.0,0.0,0.0,0.0,4.5778,4.5778,4.6369,4.6769,4.6707,4.7365,4.7557,4.6995,4.7021,4.6941,4.6672,4.7075,4.7825,4.895,5.0853,5.2265,5.3093,5.2835,5.2518,5.2229,5.185,5.1419,5.0937,5.0417,4.921,4.7407,4.6153,4.5105,4.4293,4.372,0.0,0.0,0.0,0.0,0.0,0.0,0.0,0.0,0.0,0.0,0.0,0.0,0.0,0.0,0.0,0.0,0.0,0.0,0.0,0.0,0.0,0.0,0.0,0.0,0.0,0.0,0.0,0.0,0.0,0.0,0.0,0.0,0.0,0.0,0.0,0.0,0.0,0.0,6.5363,6.5113,0.0,0.0,0.0,0.0,6.8731,6.9727,7.1061,7.2961,7.3859,7.5133,7.6923,7.7092,7.7515,7.8284,7.8361,7.8361,7.8361,7.8361,7.8361,7.84,7.9285,7.9669,7.9654,7.9692,7.9692,7.9354,7.5715,7.3614,7.2554,7.0894,7.0244,7.0282,7.1178,7.1483,7.1598,0.0,0.0,0.0,0.0,0.0,0.0,0.0,0.0,0.0,4.6305,4.6472,4.6779,4.7464,4.7606,4.8088,4.9053,4.877,4.8508,4.8352,4.8103,4.7734,4.7306,4.771,4.8736,5.0432,5.1231,5.2269,5.358,5.3359,5.313,5.2915,5.259,5.2255,5.191,5.1465,5.0796,4.9929,4.779,4.6374,4.5492,4.5048,4.4496,0.0,0.0,0.0,0.0,0.0,0.0,0.0,0.0,0.0,0.0,0.0,0.0,0.0,0.0,0.0,0.0,0.0,0.0,0.0,0.0,0.0,0.0,0.0,0.0,0.0,0.0,0.0,0.0,0.0,0.0,0.0,0.0,0.0,0.0,0.0,0.0,0.0,6.9192,6.9413,0.0,7.1025,7.1417,7.1902,7.2617,7.3476,7.4574,7.5831,7.6677,7.7654,7.8861,7.9438,7.9862,8.0169,8.0169,8.0169,8.0169,8.0169,8.0169,8.0169,8.0477,8.0631,8.0631,8.0631,8.0631,8.05,7.8653,7.7031,7.5634,7.4482,7.4021,7.4059,7.4367,7.4827,7.525,0.0,0.0,0.0,0.0,0.0,0.0,0.0,0.0,4.5701,4.6605,4.706,4.7637,4.8641,4.8753,4.9336,5.0605,5.0032,4.9567,4.94,4.8924,4.8402,4.7919,4.866,4.9875,5.1513,5.1973,5.2744,5.3944,5.3738,5.3524,5.3314,5.3045,5.2828,5.2568,5.2208,5.1946,5.164,4.9742,4.8249,4.7111,4.6697,4.6121,4.5602,0.0,0.0,0.0,0.0,0.0,0.0,0.0,0.0,0.0,0.0,0.0,0.0,0.0,0.0,0.0,0.0,0.0,0.0,0.0,0.0,0.0,0.0,0.0,0.0,0.0,0.0,0.0,0.0,0.0,0.0,0.0,0.0,0.0,0.0,6.6733,6.943,7.3008,7.3281,7.3613,7.4804,7.5187,7.5541,7.5902,7.6709,7.7508,7.8092,7.8938,7.9631,8.0208,8.0785,8.1093,8.1093,8.1093,8.1093,8.1093,8.1093,8.1093,8.1093,8.1093,8.1093,8.1093,8.1093,8.1093,8.1054,8.0477,7.9592,7.8477,7.7284,7.6823,7.6861,7.7169,7.763,7.8054,0.0,0.0,0.0,0.0,0.0,0.0,0.0,4.5344,4.6146,4.6375,4.7325,4.8324,4.9184,4.9862,5.0497,5.1171,5.1085,5.0678,5.0039,4.9434,4.8939,4.8587,4.9903,5.1102,5.216,5.2968,5.3672,5.4213,5.4088,5.3833,5.3501,5.3334,5.3146,5.3017,5.2798,5.2581,5.2457,5.2066,5.0854,4.9146,4.8633,4.8226,4.7932,0.0,0.0,0.0,0.0,0.0,0.0,0.0,0.0,0.0,0.0,0.0,0.0,0.0,0.0,0.0,0.0,0.0,0.0,0.0,0.0,0.0,0.0,0.0,0.0,0.0,0.0,0.0,0.0,0.0,0.0,0.0,0.0,0.0,6.7656,7.0078,7.3084,7.6763,7.6486,7.6709,7.84,7.7861,7.7746,7.8515,7.9361,7.9862,7.9862,8.0631,8.1093,8.1093,8.1093,8.1093,8.1093,8.1093,8.1093,8.1093,8.1093,8.1093,8.1093,8.1093,8.1093,8.1093,8.1093,8.1093,8.1093,8.1077,8.1077,8.0923,7.9246,7.8592,7.8669,7.9515,7.9862,7.9862,0.0,0.0,0.0,0.0,0.0,0.0,0.0,4.4405,4.5285,4.6781,4.7334,4.8366,5.0413,5.0662,5.0998,5.17,5.1098,5.042,4.9683,4.9212,4.9353,5.0266,5.0799,5.1792,5.3449,5.3677,5.4088,5.4769,5.4565,5.4245,5.3851,5.3622,5.3715,5.406,5.3859,5.4077,5.4579,5.4228,5.3773,5.31,5.1587,5.0558,5.0063,0.0,0.0,0.0,0.0,0.0,0.0,0.0,0.0,0.0,0.0,0.0,0.0,0.0,0.0,0.0,0.0,0.0,0.0,0.0,0.0,0.0,0.0,0.0,0.0,0.0,0.0,0.0,0.0,0.0,0.0,0.0,6.787,7.0455,7.1379,7.3357,7.5794,7.87,7.8869,7.9138,8.0285,8.0169,8.0131,8.0362,8.0592,8.0746,8.0746,8.0977,8.1093,8.1093,8.1093,8.1093,8.1093,8.1093,8.1093,8.1093,8.1093,8.1093,8.1093,8.1093,8.1093,8.1093,8.0991,8.0959,8.0959,8.0788,8.0737,8.0716,8.0475,8.04,8.04,8.0631,8.0746,8.0746,0.0,0.0,0.0,0.0,0.0,0.0,0.0,4.3937,4.5004,4.6595,4.7339,4.8516,5.067,5.0694,5.0858,5.1612,5.0812,5.0149,4.9806,4.9823,5.0229,5.1174,5.2005,5.2972,5.4103,5.4409,5.474,5.5099,5.4859,5.4716,5.4665,5.441,5.4566,5.5075,5.4942,5.5089,5.5463,5.5245,5.5106,5.4989,5.4097,5.3095,5.2201,5.2755,5.277,5.2552,5.2938,5.2898,5.278,5.3365,0.0,0.0,0.0,0.0,0.0,0.0,0.0,0.0,0.0,0.0,0.0,0.0,0.0,0.0,0.0,0.0,0.0,0.0,0.0,0.0,0.0,0.0,0.0,0.0,7.1231,7.3937,7.5589,7.6792,7.8208,8.0115,8.0323,8.0554,8.1054,8.1093,8.1093,8.1093,8.1093,8.1093,8.1093,8.1093,8.1093,8.1093,8.1093,8.1093,8.1093,8.1093,8.1093,8.1093,8.1093,8.1077,8.1007,8.1007,8.0959,8.0893,8.0805,8.0737,8.065,8.0503,8.043,8.0411,0.0,0.0,0.0,0.0,8.0943,8.1007,0.0,0.0,0.0,0.0,0.0,0.0,0.0,4.3687,4.4944,4.6123,4.7271,4.8584,5.0305,5.0274,5.0358,5.1101,5.0343,4.9898,5.0121,5.0772,5.1317,5.1648,5.3298,5.43,5.4434,5.5163,5.5425,5.5236,5.5203,5.5345,5.5659,5.5453,5.5616,5.6092,5.6003,5.5948,5.589,5.5778,5.5674,5.5725,5.621,5.5557,5.4255,5.4301,5.4064,5.3887,5.5022,5.5279,5.522,5.6515,0.0,0.0,0.0,0.0,0.0,0.0,0.0,0.0,0.0,0.0,0.0,0.0,0.0,0.0,0.0,0.0,0.0,0.0,0.0,0.0,0.0,0.0,0.0,0.0,7.4331,7.6962,7.9483,7.9883,8.0168,8.1,8.1093,8.1093,8.1093,8.1093,8.1093,8.1093,8.1093,8.1093,8.1093,8.1093,0.0,0.0,0.0,8.1093,8.1093,8.1093,8.1093,8.1093,8.1077,8.0991,8.0871,8.0855,8.0754,8.0578,8.0503,8.0392,8.0219,8.0179,8.0078,7.9958,8.0335,8.043,8.0449,8.0542,8.0685,8.0822,0.0,0.0,0.0,0.0,0.0,0.0,0.0,4.2859,4.4035,4.5946,4.662,4.7783,5.0148,5.0239,5.0155,5.0231,5.0065,4.9906,4.9807,5.0808,5.1801,5.2667,5.3782,5.4693,5.5401,5.5594,5.5638,5.5508,5.6053,5.6207,5.6095,5.635,5.6762,5.7272,5.6985,5.7162,5.7692,5.7542,5.7496,5.751,5.7611,5.6914,5.5812,5.6237,5.6599,5.6847,5.7,5.7123,5.7272,5.7491,5.7304,5.6839,5.6078,5.522,0.0,0.0,0.0,0.0,0.0,0.0,0.0,0.0,0.0,0.0,0.0,0.0,0.0,0.0,0.0,0.0,0.0,0.0,0.0,7.4363,7.6639,7.8561,8.0561,8.0846,8.0885,8.1093,8.1093,8.1093,8.1093,8.1093,8.1093,8.1093,8.1093,8.1093,8.1093,8.1093,8.1093,8.1093,8.1093,8.1093,8.1093,8.1093,8.1093,8.1093,8.0991,0.0,8.0809,8.0593,8.0448,8.0316,8.002,7.9836,7.9773,7.9433,7.9126,7.8966,7.9853,8.0179,8.0199,8.0297,8.0354,8.0449,0.0,0.0,0.0,0.0,0.0,0.0,0.0,4.268,4.3937,4.559,4.6463,4.7445,4.879,4.8766,4.8511,4.8174,4.8749,4.9502,5.0364,5.151,5.2575,5.3513,5.4415,5.5101,5.5485,5.5508,5.5727,5.6089,5.6486,5.6954,5.7566,5.7581,5.7862,5.833,5.7967,5.795,5.8179,5.8042,5.8217,5.8621,5.8621,5.8443,5.8203,5.8055,5.8047,5.8221,5.888,5.9171,5.9187,5.9556,5.9828,5.9856,5.8926,5.8341,5.7661,0.0,0.0,0.0,0.0,0.0,0.0,0.0,0.0,0.0,0.0,0.0,0.0,0.0,0.0,6.6155,6.8574,0.0,7.3428,7.66,7.8215,7.9584,8.09,8.1093,8.1093,8.1093,8.1093,8.1093,8.1093,8.1093,8.1093,8.1093,8.1093,8.1093,8.1093,8.1093,8.1093,8.1093,8.1093,8.1093,8.1093,8.1007,8.0991,8.0991,8.0822,8.0685,8.0542,8.0258,8.002,7.9724,7.9479,7.9232,7.904,7.8726,7.8517,7.8437,7.8966,7.9303,7.9569,7.9636,7.9811,7.9999,0.0,0.0,0.0,0.0,0.0,0.0,0.0,0.0,4.3699,4.4838,4.6064,4.6893,4.7037,4.7077,4.6911,4.6513,4.7564,4.9045,5.095,5.2119,5.3137,5.4002,5.4881,5.5377,5.5504,5.5556,5.5989,5.6803,5.6996,5.7718,5.8904,5.8732,5.8809,5.9121,5.8872,5.8643,5.8459,5.847,5.8817,5.9381,5.9381,5.9688,6.0078,5.9517,5.9186,5.919,6.0356,6.0738,6.0818,6.1364,6.1947,6.2379,6.1709,6.1263,6.0675,5.9065,5.7335,0.0,0.0,0.0,0.0,0.0,0.0,0.0,0.0,6.4397,6.6444,6.7253,6.8724,7.0407,7.2308,7.4046,7.5923,7.8196,7.9335,8.019,8.0882,8.0997,8.0997,8.0997,8.1045,8.1093,8.1061,8.1061,8.1061,8.1029,8.1013,8.1013,8.1013,8.1013,8.1029,8.1061,8.1045,8.1045,8.1061,8.0926,8.0822,8.0805,8.0558,8.0354,8.0139,7.9832,7.9464,7.9077,7.8879,7.857,7.8257,7.8118,7.8062,7.8034,7.8034,7.8302,7.8726,7.8828,7.9112,7.9464,0.0,0.0,0.0,0.0,0.0,0.0,0.0,0.0,0.0,4.328,4.4484,4.5312,4.5433,4.62,4.6812,4.7168,4.7636,4.8814,5.0889,5.1982,5.2968,5.3887,5.4686,5.5445,5.6178,5.6193,5.664,5.7572,5.8239,5.869,5.8889,5.9338,5.9447,5.929,5.9607,5.9625,5.9479,5.9926,6.009,6.0103,6.0103,5.9992,5.9885,6.0336,6.0511,6.0557,6.0738,6.109,6.1479,6.1551,6.1744,6.2009,6.2586,6.1828,6.0746,6.1232,5.9645,5.7703,5.7693,5.8039,5.8757,6.0115,6.2071,6.4186,0.0,6.8034,6.9943,7.1682,7.2872,7.4125,7.5844,7.6932,7.7944,7.8938,7.9835,8.0465,8.0542,8.058,8.058,8.058,8.086,8.1061,8.0943,8.0904,8.0838,8.0667,8.0667,8.0667,8.0667,8.0667,8.0737,8.0943,8.086,8.086,8.0943,8.0737,8.0558,8.0428,8.0141,7.9874,7.9674,7.9137,7.8854,7.8723,7.8285,7.7957,7.7673,7.7673,7.7584,7.7396,7.7396,7.7517,7.7783,7.8312,7.8491,7.857,0.0,0.0,0.0,0.0,0.0,0.0,0.0,0.0,0.0,0.0,4.3562,4.4147,4.3878,4.4068,4.4732,4.6064,4.6715,4.8279,5.1142,5.2371,5.3513,5.4767,5.5605,5.6128,5.6404,5.6505,5.6949,5.7867,5.8423,5.8872,5.9252,5.9492,5.968,5.983,5.9801,5.9945,6.0213,6.0725,6.1176,6.1463,6.1272,6.1235,6.124,6.0488,6.0017,5.9786,6.0328,6.0403,0.0,6.0295,6.0729,6.1371,6.2168,6.1734,6.1088,6.1725,6.0267,5.8428,5.8287,5.9669,6.1496,6.2738,6.567,6.8622,7.0134,7.2236,7.4135,7.4913,7.5697,7.6633,7.7798,7.8256,7.8752,7.959,8.001,8.0258,8.0258,8.0258,8.0258,8.0258,8.0411,8.0578,8.065,8.0596,8.0542,8.0449,8.0354,8.0316,8.0316,8.0373,8.0448,8.056,8.0578,8.0578,8.056,8.0335,8.0121,7.9982,7.9576,7.9317,7.9126,7.8674,7.8312,7.8014,7.7725,7.7517,7.7433,7.7433,7.7402,7.7273,7.7273,7.7372,7.7463,7.7813,7.8006,7.8174,0.0,0.0,0.0,0.0,0.0,0.0,0.0,0.0,0.0,0.0,0.0,4.3057,4.2786,4.2427,4.2915,4.467,4.5572,4.7455,5.0782,5.2238,5.3634,5.5247,5.6033,5.648,5.6566,5.6685,5.7247,5.833,5.8633,5.912,5.9778,5.9759,5.9901,6.0184,6.01,6.0328,6.0738,6.1514,6.2136,6.2458,6.2148,6.2076,6.1961,6.0214,5.8971,5.818,5.9022,5.8951,5.8478,5.8374,5.888,5.9709,6.0567,6.0491,6.0253,6.096,6.0051,5.88,5.89,6.1056,6.3689,6.5349,6.8919,7.235,7.3636,7.5695,7.7337,7.7264,7.7665,7.812,7.857,7.8411,7.8462,7.9232,7.9383,7.9421,7.9665,7.9497,7.9383,7.9383,7.9156,7.9182,7.9616,7.9946,8.0099,7.9937,7.9853,7.9811,7.9811,7.9874,7.9979,8.0139,8.0159,8.0159,8.0139,7.9832,7.9576,7.9464,7.8966,7.87,7.857,7.8202,7.7842,7.7493,7.7372,7.7273,7.7273,7.7273,7.731,7.7248,7.7248,7.7181,7.7181,7.7341,7.7547,7.7813,0.0,0.0,0.0,0.0,0.0,0.0,0.0,0.0,0.0,0.0,0.0,0.0,0.0,4.1857,4.1983,4.3343,4.4469,4.6395,4.9355,5.1126,5.2887,5.4751,5.548,5.615,5.6779,5.6779,5.7553,5.9173,5.9196,5.9646,6.0453,6.0374,6.0294,6.0248,6.0784,6.0981,6.0996,6.2422,6.2895,6.2644,6.2462,6.1976,6.1242,5.9411,5.7558,5.605,5.6606,5.6751,5.6575,5.5865,5.6049,5.6689,5.7613,5.768,5.7654,5.8775,5.8954,5.9031,6.0134,6.2577,6.5486,6.8286,7.157,7.458,7.631,7.787,7.8885,7.8666,7.8542,7.8349,7.7932,7.7198,7.6863,7.7391,7.7478,7.7751,7.8536,7.7976,7.7478,7.7478,7.6805,7.6618,7.7403,7.8836,7.9532,7.9077,7.9028,7.9028,7.9028,7.9028,7.927,7.9708,7.9524,7.9524,7.9708,7.927,7.8954,7.8791,7.841,7.8146,7.8043,7.7762,7.7493,7.7341,7.7273,7.7273,7.7273,7.7273,7.7248,7.7124,7.7124,7.6998,7.6801,7.6834,7.7024,7.7304,0.0,0.0,0.0,0.0,0.0,0.0,0.0,0.0,0.0,0.0,0.0,0.0,0.0,0.0,0.0,0.0,4.3877,4.548,4.7838,5.0177,5.1988,5.3149,5.4456,5.5202,5.534,5.5849,5.6394,5.694,5.8105,5.8786,5.9053,5.96,6.0045,6.0336,6.052,6.0883,6.136,6.2177,6.2373,6.2103,6.1675,6.0911,5.979,5.7967,5.6086,5.435,0.0,5.3445,5.3649,5.3525,5.3742,5.4282,5.5423,5.5597,5.5715,5.7367,5.8401,5.9364,6.1166,6.4151,6.7389,7.0019,7.3309,7.6285,7.7855,7.8902,7.9347,7.8413,7.762,7.686,7.5995,7.506,7.4697,7.5414,7.5563,7.5824,7.6643,7.6532,7.6345,7.6345,7.6122,7.6218,7.6929,7.7651,7.8204,7.8585,7.8517,7.8464,7.8464,7.8544,7.8674,7.8841,7.8879,7.8879,7.8841,7.8596,7.8383,7.8285,7.7957,7.7695,7.7547,7.7463,7.7372,7.7273,7.7273,7.7273,7.7273,7.7273,7.7248,7.7092,7.6929,7.6806,7.6643,7.6545,7.6541,7.6672,0.0,0.0,0.0,0.0,0.0,0.0,0.0,0.0,0.0,0.0,0.0,0.0,0.0,0.0,0.0,0.0,0.0,4.4178,4.6117,4.8459,5.0282,5.1467,5.2809,5.3587,5.3647,5.4184,5.4668,5.5125,5.651,5.7325,5.7564,5.8371,5.8959,5.9316,5.9222,5.9455,5.9935,6.0437,6.0568,6.0445,5.9995,5.9178,5.8046,5.6298,5.4493,0.0,5.1634,5.1264,5.133,5.139,5.1685,5.2158,5.307,5.3758,5.4664,5.6645,5.8361,6.021,6.282,6.5983,6.9216,7.2084,7.4845,7.7265,7.8798,7.9118,7.8716,7.7526,7.5982,7.4474,7.3398,7.2229,7.1754,7.2812,7.3219,7.3811,7.4922,7.507,7.507,7.507,7.4811,7.5014,7.6011,7.6291,7.6875,7.8044,7.8006,7.7986,7.7986,7.8062,7.8146,7.8257,7.8275,7.8312,7.8257,7.8062,7.7928,7.7754,7.7584,7.7433,7.7273,7.7273,7.7273,7.7273,7.7273,7.7273,7.7273,7.7273,7.7155,7.6902,7.6672,7.6442,7.6176,7.5934,7.5934,7.6108,0.0,0.0,0.0,0.0,0.0,0.0,0.0,0.0,0.0,0.0,0.0,0.0,0.0,0.0,0.0,0.0,0.0,0.0,4.4202,4.6035,4.7819,4.9517,5.0519,5.122,5.1708,5.1778,5.2376,5.3654,5.4395,5.5196,5.5959,5.669,5.7074,5.7108,5.6883,5.6822,5.6891,5.7455,5.77,5.7633,5.7534,5.6918,5.5961,5.4459,5.2893,5.1401,5.096,5.039,4.9806,4.9658,5.0045,5.0586,5.0916,5.2444,5.4531,5.6593,5.8865,6.1507,6.5049,6.7996,7.0839,7.422,7.6058,7.75,7.9055,7.8398,7.7154,7.6014,7.3632,7.1442,7.03,6.8783,6.8178,6.9734,7.066,7.1762,7.334,7.3597,7.3634,7.3634,7.301,7.3193,7.4771,7.4955,7.5712,7.7443,7.7554,7.7554,7.7554,7.7554,7.7703,7.7957,7.7842,7.7842,7.7986,7.7703,7.7493,7.7273,7.7273,7.7273,7.7273,7.7273,7.7273,7.7273,7.7273,7.731,7.7273,7.7273,7.6998,7.6512,7.6273,7.5864,7.5442,7.519,7.5226,7.5585,0.0,0.0,0.0,0.0,0.0,0.0,0.0,0.0,0.0,0.0,0.0,0.0,0.0,0.0,0.0,0.0,0.0,0.0,4.1989,4.3623,4.4914,4.5554,4.6473,4.7352,4.8127,4.8576,4.9257,5.0143,5.1493,5.2255,5.2493,5.3221,5.3879,5.4402,5.4247,5.4397,5.4752,5.4664,5.4633,5.46,5.4296,5.3856,5.3345,5.2905,5.1949,5.0841,5.0905,5.1083,5.1233,5.0945,5.1695,5.2854,5.3324,5.4592,5.6232,5.7713,6.0174,6.2991,6.5837,6.86,7.127,7.3722,7.5065,7.5967,7.673,7.6105,7.4878,7.3178,7.0745,6.8641,6.7647,6.615,6.5794,6.7971,6.8972,7.0073,7.1688,7.2422,7.2826,7.2826,7.3156,7.378,7.4808,7.5432,7.624,7.7298,7.7402,7.7402,7.7402,7.7402,7.7433,7.7487,7.7426,7.7426,7.7487,7.7396,7.7372,7.7273,7.7273,7.7273,7.7273,7.7273,7.7273,7.7273,7.7273,7.7248,7.7155,7.7155,7.6737,7.6106,7.576,7.5407,7.5042,7.4819,7.4968,7.537,0.0,0.0,0.0,0.0,0.0,0.0,0.0,0.0,0.0,0.0,0.0,0.0,0.0,0.0,0.0,0.0,0.0,0.0,0.0,4.1789,4.2603,4.3208,4.3862,4.4611,4.5421,4.5787,4.6289,4.6987,4.8186,4.8768,4.8802,4.9551,5.027,5.0994,5.0779,5.0966,5.1485,5.106,5.1095,0.0,0.0,5.1061,5.1025,5.1156,5.0735,5.0214,5.0971,5.2396,5.3926,5.428,5.4587,5.5089,5.5944,5.7351,5.893,6.0066,6.2458,6.5216,6.727,6.9453,7.1593,7.3479,7.3948,7.4115,7.4727,7.3536,7.1803,7.0018,6.767,6.5657,6.4772,6.4009,6.427,6.669,6.8394,6.9889,7.1109,7.2312,7.2899,7.2532,7.3193,7.4001,7.4845,7.5616,7.6423,7.7237,7.7273,7.7273,7.7273,7.7273,7.7273,7.7273,7.7273,7.7273,7.7273,7.7273,7.7273,7.7273,7.7273,7.7273,7.7273,7.7273,7.7273,7.7273,7.7273,7.7248,7.7092,7.7029,7.6541,7.5795,7.5335,7.4896,7.4479,7.4287,7.4441,7.4857,0.0,0.0,0.0,0.0,0.0,0.0,0.0,0.0,0.0,0.0,0.0,0.0,0.0,0.0,0.0,0.0,0.0,0.0,0.0,0.0,4.0782,4.1681,4.2042,4.2573,4.3355,4.3355,4.3674,4.431,4.4925,4.5263,4.5263,4.5906,4.665,4.7432,4.7099,4.7352,4.7961,4.7408,4.7703,4.8428,4.8292,4.8528,4.9061,0.0,0.0,4.974,5.1402,5.3985,5.6788,5.8202,5.7995,5.7395,5.8652,6.0256,6.1885,6.2792,6.4942,6.7319,6.8715,7.0173,7.1683,7.3051,7.2636,7.2057,7.2642,7.0688,6.8364,6.6765,6.452,6.264,6.194,6.2053,6.3074,6.554,6.8065,7.0017,7.0971,7.2504,7.3237,7.2569,7.3193,7.4001,7.4845,7.5616,7.6423,7.7237,7.7273,7.7273,7.7273,7.7273,7.7273,7.7273,7.7273,7.7273,7.7273,7.7273,7.7273,7.7273,7.7273,7.7273,7.7273,7.7273,7.7273,7.7273,7.7273,7.7217,7.7061,7.6834,7.6273,7.5513,7.4898,7.4332,7.3891,7.3657,7.3896,7.4364,0.0,0.0,0.0,0.0,0.0,0.0,0.0,0.0,0.0,0.0,0.0,0.0,0.0,0.0,0.0,0.0,0.0,0.0,0.0,0.0,0.0,3.9694,4.0019,4.065,4.1602,4.1636,4.1974,4.2692,4.2828,4.2895,4.2895,4.2997,4.3809,4.5162,4.4812,4.5313,4.6364,4.5893,4.5996,4.655,4.6349,4.6742,4.7535,0.0,0.0,0.0,5.2956,5.5127,5.6994,5.9641,6.0389,6.0451,6.1609,6.2625,6.3555,6.4297,6.5777,6.746,6.8815,6.985,7.0701,7.1443,7.1024,7.0201,6.957,6.7559,6.54,6.3776,6.1576,5.9917,5.988,5.9934,6.0837,6.3475,6.596,6.8159,6.9913,7.1552,7.2534,7.2504,7.3193,7.4001,7.4845,7.5616,7.6423,7.7237,7.7273,7.7273,7.7273,7.7273,7.7273,7.7273,7.7273,7.7273,7.7273,7.7273,7.7273,7.7273,7.7273,7.7273,7.7273,7.7273,7.7273,7.7273,7.7273,7.7118,7.6834,7.6676,7.5969,7.4898,7.4296,7.3786,7.3415,7.3211,7.3582,7.4255,0.0,0.0,0.0,0.0,0.0,0.0,0.0,0.0,0.0,0.0,3.9881,3.9957,0.0,0.0,0.0,0.0,0.0,0.0,0.0,0.0,0.0,0.0,0.0,0.0,4.0526,4.0526,4.0923,4.1745,0.0,4.1914,4.2286,4.2286,4.2895,4.3978,4.3726,4.416,4.4987,4.4502,4.4815,4.5636,4.5173,4.5719,0.0,0.0,0.0,0.0,5.3341,5.5299,5.735,5.9844,6.1054,6.1894,6.403,6.5144,6.5806,6.6296,6.7114,6.8,6.8629,6.9258,6.9695,6.9386,6.843,6.7259,6.5986,6.3896,6.1805,6.021,5.8804,5.789,5.7911,5.8522,5.9877,6.2421,6.507,6.7295,6.8699,7.0777,7.2057,7.1793,7.2907,7.4001,7.4845,7.5616,7.6423,7.7237,7.7273,7.7273,7.7273,7.7273,7.7279,7.7217,7.7217,7.7155,7.7024,7.7024,7.7024,7.7024,7.7024,7.7087,7.7217,7.7217,7.7248,7.7273,7.7273,7.7186,7.6966,7.6712,7.6003,7.5009,7.4335,7.3667,7.3129,7.2922,7.3135,7.3627,0.0,0.0,0.0,0.0,0.0,0.0,0.0,4.0534,4.1023,4.0825,4.139,4.1621,4.124,4.1398,0.0,0.0,0.0,0.0,0.0,0.0,0.0,0.0,0.0,0.0,3.9964,0.0,0.0,4.1388,4.1388,0.0,0.0,0.0,0.0,0.0,4.3271,4.3536,4.4126,4.3687,4.4212,0.0,0.0,4.5321,0.0,0.0,0.0,0.0,0.0,5.5124,5.7362,5.9302,6.0644,6.2023,6.4612,6.6071,6.6891,6.7402,6.7739,6.8013,6.8223,6.8672,6.876,6.7658,6.6262,6.4698,6.2996,6.0875,5.8822,5.7257,5.654,5.6164,5.6195,5.7246,5.8827,6.0974,6.3687,6.5887,6.6921,6.9394,7.098,7.0749,7.2285,7.3699,7.4659,7.5495,7.6301,7.7082,7.7155,7.7181,7.7273,7.7273,7.7248,7.7092,7.7061,7.6966,7.6773,7.6705,7.6672,7.6672,7.6737,7.6834,7.7029,7.7092,7.7186,7.7273,7.7273,7.7248,7.7061,7.6745,7.6072,7.5263,7.4449,7.3627,7.2922,7.2628,7.2671,7.2922,0.0,0.0,0.0,0.0,0.0,0.0,0.0,4.1398,4.2075,4.2347,4.3011,4.3527,4.3635,4.3041,0.0,0.0,0.0,0.0,0.0,0.0,0.0,0.0,0.0,0.0,0.0,0.0,0.0,4.2031,4.2031,0.0,0.0,0.0,0.0,0.0,0.0,4.3592,4.4236,4.3919,0.0,0.0,0.0,0.0,0.0,0.0,0.0,0.0,0.0,5.4741,5.6423,5.7995,5.9216,6.0325,6.1628,6.3176,6.4759,6.6001,6.631,6.6495,6.7652,6.811,6.8029,6.723,6.5918,6.4191,6.1947,5.9702,5.7629,5.6042,5.5211,5.4724,5.4845,5.5595,5.6613,5.7987,6.0379,6.2529,6.389,6.6416,6.8488,6.9441,7.1083,7.2717,7.4128,7.5097,7.5931,7.6607,7.668,7.6838,7.731,7.7273,7.7248,7.7092,7.6897,7.6773,7.6647,7.6445,7.6342,7.6342,7.6512,7.6676,7.6834,7.7029,7.7186,7.7273,7.7273,7.7248,7.7061,7.6745,7.6003,7.5045,7.4258,7.3426,7.2671,7.2202,7.2202,7.2416,0.0,0.0,0.0,0.0,0.0,0.0,0.0,4.2517,4.3717,4.3841,4.4799,4.5309,4.4962,4.4463,0.0,0.0,0.0,0.0,0.0,0.0,0.0,0.0,0.0,0.0,0.0,0.0,4.1314,4.2468,4.302,0.0,0.0,0.0,0.0,0.0,0.0,4.4637,4.4502,4.4682,0.0,0.0,0.0,0.0,0.0,0.0,0.0,0.0,0.0,0.0,5.4977,5.6245,5.7101,5.7822,5.8929,5.9698,6.0798,6.3934,6.5253,6.5897,6.691,6.7374,6.7243,6.5892,6.442,6.2612,5.9886,5.7838,5.6133,5.4632,5.4153,5.4045,5.4076,5.451,5.5213,5.6198,5.7834,5.9577,6.1188,6.3494,6.5576,6.7055,6.8817,7.0568,7.2131,7.3465,7.473,7.5963,7.6072,7.614,7.6339,7.6672,7.6806,7.6607,7.6409,7.614,7.569,7.5513,7.5407,7.5407,7.5584,7.5967,7.6439,7.6708,7.6998,7.7273,7.7273,7.7279,7.7217,7.687,7.6205,7.5371,7.4563,7.3592,7.2594,7.2159,7.1942,7.1907,0.0,0.0,0.0,0.0,0.0,0.0,4.0742,4.2671,4.414,4.4237,4.5632,4.6376,4.589,4.5701,4.5082,4.3814,0.0,0.0,0.0,0.0,0.0,0.0,0.0,0.0,0.0,0.0,4.1825,4.3277,4.4019,4.483,0.0,0.0,4.6515,4.6007,0.0,0.0,0.0,0.0,0.0,0.0,0.0,0.0,0.0,0.0,0.0,0.0,0.0,0.0,0.0,0.0,0.0,5.5702,5.654,5.6854,5.7723,6.1668,6.348,6.4454,6.5413,6.6035,6.6038,6.4349,6.299,6.1264,5.8254,5.6596,5.531,5.3822,5.3584,5.3617,5.3617,5.3849,5.4182,5.4795,5.5876,5.7129,5.8465,6.072,6.286,6.4618,6.6868,6.889,7.0364,7.2117,7.3582,7.4583,7.4762,7.4798,7.4655,7.5187,7.5648,7.6038,7.5865,7.5442,7.4824,7.4563,7.4446,7.4484,7.475,7.5299,7.5965,7.6412,7.6838,7.7248,7.7273,7.7273,7.7243,7.6902,7.6342,7.562,7.4675,7.3632,7.2559,7.2038,7.1722,7.1546,0.0,0.0,0.0,0.0,0.0,0.0,0.0,4.1441,4.2839,4.3052,4.514,4.6617,4.6585,4.6746,4.6385,4.5082,0.0,0.0,0.0,0.0,0.0,0.0,0.0,0.0,0.0,0.0,4.2631,4.4685,4.487,4.5477,4.6481,4.6693,4.6786,4.6752,0.0,0.0,0.0,0.0,0.0,0.0,0.0,0.0,0.0,0.0,0.0,0.0,0.0,0.0,0.0,0.0,0.0,0.0,0.0,5.5044,5.6208,5.9249,6.0665,6.1526,6.2856,6.3937,6.4275,6.2787,6.1873,6.052,5.7509,5.6258,5.531,5.3822,5.3518,5.3518,5.3518,5.3518,5.3551,5.3684,5.4496,5.5274,5.5598,5.8122,6.0569,6.2242,6.5502,6.8046,6.924,7.1452,7.266,7.2258,7.263,7.266,7.2295,7.263,7.3633,7.5335,7.5191,7.4824,7.4216,7.3826,7.3587,7.3587,7.422,7.4824,7.5442,7.6244,7.6773,7.7124,7.7248,7.7273,7.7243,7.6773,7.6278,7.5584,7.4373,7.3351,7.2517,7.1864,7.1501,7.1312,0.0,0.0,0.0,0.0,0.0,0.0,0.0,4.0919,4.2523,4.2929,4.4776,4.6081,4.6175,4.5898,4.5499,4.4989,0.0,0.0,0.0,0.0,0.0,0.0,0.0,0.0,0.0,0.0,4.2747,4.435,4.5063,4.6003,4.7105,4.7827,4.7946,4.7564,4.7297,4.7056,0.0,0.0,0.0,0.0,0.0,0.0,5.2082,0.0,0.0,0.0,0.0,0.0,0.0,0.0,0.0,0.0,0.0,0.0,0.0,5.6224,5.829,6.0273,6.1115,6.2212,6.2854,6.1873,6.0689,5.9235,5.7239,5.5852,5.4668,5.3687,5.3518,5.3518,5.3518,5.3518,5.3484,5.3551,5.3888,5.4565,5.5723,5.7293,5.9114,6.1189,6.4384,6.6925,6.8343,6.9623,7.0496,7.0932,7.1057,7.1092,7.0967,7.1215,7.2096,7.3783,7.4125,7.3983,7.338,7.3094,7.297,7.297,7.3467,7.4142,7.5044,7.569,7.6275,7.6741,7.7061,7.7155,7.7155,7.6777,7.6208,7.5584,7.4373,7.3351,7.2517,7.1864,7.1457,7.1312,0.0,0.0,0.0,0.0,0.0,0.0,0.0,3.9594,4.1052,4.199,4.3817,4.5175,4.5714,4.5794,0.0,4.554,0.0,0.0,0.0,0.0,0.0,0.0,0.0,0.0,0.0,4.198,4.317,4.4525,4.5469,4.6482,4.7658,4.8251,4.8471,4.825,4.7916,4.774,0.0,0.0,0.0,0.0,0.0,0.0,5.2469,0.0,0.0,0.0,0.0,0.0,0.0,0.0,0.0,0.0,0.0,0.0,0.0,0.0,5.603,5.7936,5.8955,5.9926,6.052,5.9776,5.8896,5.778,5.6325,5.5243,5.4397,5.3653,5.3518,5.3518,5.3518,5.3518,5.3518,5.3518,5.3822,5.4466,5.5687,5.7258,5.9313,6.2264,6.453,6.6426,6.7708,6.8451,6.8966,6.9295,6.9488,6.9522,6.9329,6.9611,7.0419,7.1782,7.2589,7.2864,7.2628,7.2416,7.2253,7.2296,7.2804,7.3432,7.4223,7.5009,7.5655,7.6176,7.6508,7.6705,0.0,7.6309,7.5865,7.5227,7.4026,7.3101,7.2424,7.1732,7.1412,7.1312,0.0,0.0,0.0,0.0,0.0,0.0,0.0,0.0,0.0,0.0,0.0,4.4031,4.5114,4.606,0.0,0.0,0.0,0.0,0.0,0.0,0.0,0.0,0.0,0.0,0.0,4.2649,4.3814,4.5049,4.5898,4.6881,4.7935,4.8065,4.8324,4.8704,4.7998,4.8158,0.0,0.0,0.0,0.0,5.1185,5.1657,0.0,0.0,0.0,0.0,0.0,0.0,0.0,0.0,0.0,0.0,0.0,0.0,0.0,0.0,0.0,0.0,0.0,5.7281,5.7577,5.69,5.6697,5.6292,5.4905,5.4566,0.0,5.3653,5.3518,5.3518,5.3518,5.3518,5.3518,5.3518,5.4059,5.4803,5.5615,5.7857,6.086,6.463,6.5629,6.6337,6.7257,6.7883,6.8012,6.7503,6.7876,6.7978,6.7503,6.791,6.8625,6.9543,7.069,7.148,7.1985,7.1732,7.16,7.16,7.2262,7.2735,7.3195,7.4258,7.4934,7.5335,7.5761,7.6038,7.6174,7.5584,7.5154,7.4638,7.3392,7.2644,7.2245,7.158,7.1312,7.1312,0.0,0.0,0.0,0.0,0.0,0.0,0.0,0.0,0.0,0.0,0.0,4.2862,4.3523,4.4479,0.0,0.0,0.0,0.0,0.0,0.0,0.0,0.0,0.0,0.0,0.0,4.2517,4.3451,4.439,4.5164,4.6078,4.7067,4.7271,4.7638,4.8097,4.8219,4.8536,0.0,0.0,0.0,0.0,5.1185,5.1657,0.0,0.0,0.0,0.0,5.1088,5.1221,0.0,0.0,0.0,0.0,0.0,0.0,0.0,0.0,5.3619,5.3822,5.4262,0.0,5.619,5.6021,5.5547,5.5006,0.0,5.416,5.3721,5.3551,5.3518,5.3518,5.3518,5.3518,5.3518,5.3518,5.3653,5.4228,5.5547,5.8663,6.1579,6.3651,6.504,6.5888,6.6098,6.6769,6.71,6.6938,6.7066,6.71,6.6938,6.7066,6.7506,6.8303,6.8591,6.9705,7.1688,7.1644,7.16,7.16,7.1951,7.2339,7.2735,7.3512,7.4022,7.4296,7.5009,7.5335,7.5335,7.5045,7.4787,7.4449,7.3148,7.2552,7.2245,7.158,7.1312,7.1312,0.0,0.0,0.0,0.0,0.0,0.0,0.0,0.0,0.0,0.0,0.0,0.0,0.0,0.0,0.0,0.0,0.0,0.0,0.0,0.0,0.0,0.0,0.0,4.1753,4.1948,4.2968,4.3737,4.4188,4.5208,4.5949,4.6445,4.662,4.71,4.7704,4.8356,4.8801,0.0,0.0,0.0,0.0,5.1185,0.0,0.0,0.0,0.0,0.0,5.0202,5.0405,0.0,5.071,5.0913,5.1252,0.0,0.0,0.0,0.0,5.2601,5.2668,5.3073,5.3923,5.4702,5.4702,5.4126,5.3551,5.3551,5.2976,5.2536,5.2875,5.2942,5.3078,5.345,5.3518,5.3518,5.3518,5.4093,5.5412,5.7915,6.0892,6.3125,6.3903,6.5019,6.5561,6.5222,6.5561,6.5797,6.5797,6.6102,6.6305,6.6305,6.6643,6.7151,6.7895,6.7895,6.8852,7.0958,7.0609,7.0778,7.1457,7.1382,7.1566,7.2133,7.2728,7.3101,7.3311,7.3834,7.4146,7.4223,7.4026,7.383,7.3552,7.2644,7.2167,7.1907,7.1491,7.1312,7.1312,0.0,0.0,0.0,0.0,0.0,0.0,0.0,0.0,0.0,0.0,0.0,0.0,0.0,0.0,0.0,0.0,0.0,0.0,0.0,0.0,0.0,0.0,0.0,4.2366,4.2622,4.3748,4.4353,4.4347,4.5518,4.608,4.6104,4.6247,4.6778,4.7535,4.8358,4.8801,0.0,0.0,0.0,5.1048,5.1151,0.0,0.0,0.0,0.0,0.0,0.0,0.0,0.0,4.9932,5.0338,5.0879,5.1014,0.0,0.0,0.0,0.0,0.0,5.2477,5.3067,5.3482,5.3517,5.2942,5.2333,5.23,5.1725,5.142,5.2197,5.2333,5.2603,5.3449,5.3618,5.3652,5.3787,5.5178,5.7384,6.0676,6.3012,6.443,6.4572,6.5169,6.5297,6.4688,6.4654,6.4613,6.4613,6.5256,6.5696,6.5696,6.6406,6.7117,6.7726,6.7726,6.8402,6.9823,6.935,6.9722,7.0973,7.0473,7.0673,7.1386,7.1824,7.2193,7.2475,7.2728,7.2901,7.3066,7.286,7.2728,7.2517,7.2115,7.181,7.1556,7.1367,7.1312,7.1312,0.0,0.0,0.0,0.0,0.0,0.0,0.0,0.0,0.0,0.0,0.0,0.0,0.0,0.0,0.0,0.0,0.0,0.0,0.0,0.0,0.0,4.6136,4.42,4.3281,4.3682,4.4464,4.4947,4.5117,4.5741,4.6158,4.6428,4.6428,4.7016,4.7981,4.82,4.8517,4.8933,0.0,0.0,5.0304,5.0947,0.0,0.0,0.0,0.0,0.0,0.0,0.0,0.0,4.9187,4.9255,4.9458,5.0067,0.0,0.0,0.0,0.0,0.0,5.2104,5.2754,5.3384,5.3613,5.3107,5.2498,5.2333,5.1725,5.1452,5.2362,5.253,5.2866,5.3907,5.4108,5.4346,5.5161,5.712,5.8978,6.0183,6.2167,6.3734,6.435,6.4755,6.4964,6.4862,6.4701,6.4613,6.4613,6.5256,6.5696,6.5696,6.6406,6.688,6.6981,6.6981,6.7387,6.8233,6.8808,6.9214,6.9451,6.9359,6.9698,7.0419,7.0682,7.1119,7.1776,7.221,7.2424,7.2424,7.2382,7.2382,7.2296,7.182,7.1644,7.1556,7.1367,7.1312,7.1312,0.0,0.0,0.0,0.0,0.0,0.0,0.0,0.0,0.0,0.0,0.0,0.0,0.0,0.0,0.0,0.0,0.0,0.0,0.0,0.0,0.0,4.7275,4.5928,4.4963,4.4471,4.5403,4.6028,4.6338,4.6702,4.7012,4.7227,4.7067,4.7393,4.8142,4.81,4.8357,4.8868,5.001,5.0344,5.0166,0.0,0.0,0.0,0.0,0.0,0.0,0.0,0.0,0.0,0.0,4.9046,4.9052,4.9483,0.0,0.0,0.0,0.0,0.0,5.1923,5.2479,5.2875,5.3255,5.2853,5.223,5.1629,5.1256,5.1191,5.1975,5.2516,5.3188,5.4164,5.4773,5.5726,5.7446,5.9004,6.0357,6.1537,6.3233,6.4228,6.412,6.4439,6.4478,6.3942,6.3673,6.3515,6.3396,6.4072,6.4512,6.4512,6.5595,6.6203,6.6203,6.6609,6.6981,6.732,6.7692,6.8267,6.9079,6.8673,6.9079,7.0195,7.0328,7.0744,7.1457,7.1678,7.1766,7.1766,7.1766,7.1766,7.1722,7.1501,7.1457,7.1412,7.1356,7.1312,7.1312,0.0,0.0,0.0,0.0,0.0,0.0,0.0,0.0,0.0,0.0,0.0,0.0,0.0,0.0,0.0,0.0,0.0,0.0,0.0,0.0,4.7906,4.7906,4.753,4.6776,4.5648,4.6603,4.7276,4.7699,4.7974,4.8188,4.8257,4.7892,4.797,4.8367,4.8065,4.8228,4.8772,4.9577,4.9875,4.9895,0.0,0.0,0.0,0.0,0.0,0.0,0.0,0.0,0.0,0.0,0.0,0.0,0.0,0.0,0.0,5.0114,5.0425,5.0752,5.1838,5.2307,5.2582,5.2775,5.2466,5.1954,5.136,5.103,5.1206,5.2248,5.2891,5.3632,5.4814,5.5924,5.7359,5.9622,6.0809,6.1897,6.3267,6.4532,6.4953,6.3938,6.4206,6.4045,6.2908,6.2745,6.2649,6.242,6.3091,6.3531,6.3531,6.4715,6.5493,6.5662,6.6237,6.6643,6.6812,6.6812,6.7387,6.8571,6.7929,6.8335,6.9654,6.9857,7.0331,7.1075,7.1244,7.1312,7.1312,7.1312,7.1312,7.1312,7.1312,7.1312,7.1312,7.1356,7.1401,7.1401,0.0,0.0,0.0,0.0,0.0,0.0,0.0,0.0,0.0,0.0,0.0,0.0,0.0,0.0,0.0,0.0,0.0,0.0,0.0,0.0,4.7906,4.7906,4.8511,4.8385,4.7429,4.8202,4.8817,4.9161,4.9554,4.9613,4.9373,4.8854,4.8715,4.8936,4.8094,4.8033,4.8582,4.9513,4.9571,4.9154,5.0051,0.0,0.0,0.0,0.0,0.0,0.0,0.0,0.0,0.0,0.0,0.0,0.0,0.0,5.0102,5.0474,5.0776,5.1061,5.1672,5.2394,5.2838,5.2342,5.2109,5.2039,5.2381,5.1824,5.1933,5.427,5.4231,5.4351,5.6269,5.7775,5.9209,6.0912,6.254,6.3885,6.471,6.5327,6.5226,6.4117,6.4078,6.3615,6.2272,6.2514,6.2649,6.242,6.3091,6.3531,6.3531,6.4241,6.4986,6.5662,6.573,6.6102,6.6812,6.6812,6.688,6.6981,6.6914,6.732,6.8098,6.8842,6.9586,7.0297,7.1007,7.1312,7.1312,7.1312,7.1312,7.1312,7.1312,7.1312,7.1312,7.1546,7.1556,7.16,0.0,0.0,0.0,0.0,0.0,0.0,0.0,0.0,0.0,0.0,0.0,0.0,0.0,0.0,0.0,0.0,0.0,0.0,0.0,4.7665,4.8075,4.8578,4.8849,4.8852,4.8486,4.9229,4.9843,5.0357,5.1054,5.1026,5.0326,4.9606,4.9091,4.8777,4.8032,4.8,4.8515,4.888,4.9005,4.9049,4.9687,4.9859,0.0,0.0,0.0,0.0,0.0,0.0,0.0,0.0,5.0369,5.0124,4.9833,4.9742,4.98,4.9831,5.0346,5.095,5.144,5.2216,5.2806,5.2526,5.2377,5.2419,5.2662,5.3235,5.3971,5.5215,5.6053,5.6899,5.7817,5.8657,5.9708,6.1292,6.2558,6.3654,6.4448,6.4668,6.444,6.3721,6.3355,6.2927,6.2356,6.2224,6.2221,6.2386,6.2651,6.2821,6.2821,6.3531,6.4038,6.4343,6.4783,6.5155,6.5425,6.5425,6.5425,6.5459,6.6373,6.7184,6.7895,6.8233,6.8774,6.9553,7.0297,7.0601,7.0635,7.1109,7.1312,7.1312,7.1312,7.1312,7.1312,7.1512,7.16,7.1644,0.0,0.0,0.0,0.0,0.0,0.0,0.0,0.0,0.0,0.0,0.0,0.0,0.0,0.0,0.0,0.0,0.0,0.0,4.6413,4.7158,4.7902,4.8612,4.8883,4.9018,4.9018,4.9729,5.0441,5.1055,5.183,5.1816,5.1074,5.0012,4.9287,4.886,4.8167,4.813,4.8578,4.8578,4.8736,4.9049,4.9471,4.9767,0.0,0.0,0.0,0.0,0.0,0.0,0.0,0.0,5.0682,5.0444,4.979,4.9619,4.9639,4.9614,5.0063,5.0751,5.1355,5.1981,5.2521,5.2733,5.2988,5.3276,5.3568,5.4507,5.5625,5.6644,5.7989,5.9059,5.9258,5.9682,6.0484,6.205,6.294,6.3703,6.4503,6.4416,6.3993,6.3268,6.2797,6.2292,6.174,6.1716,6.1817,6.2048,6.2245,6.2381,6.2381,6.2888,6.326,6.3497,6.4005,6.4377,6.4613,6.4613,6.4613,6.4613,6.5628,6.6508,6.7218,6.7455,6.7996,6.8774,6.9519,6.9958,7.0229,7.0737,7.1109,7.1312,7.1312,7.1312,7.1356,7.1634,7.1732,7.1776,0.0,0.0,0.0,0.0,0.0,0.0,0.0,0.0,0.0,0.0,0.0,0.0,0.0,0.0,0.0,0.0,0.0,0.0,4.5703,4.638,4.7124,4.7872,4.8612,4.8984,4.9018,4.9729,5.0473,5.1185,5.1798,5.1866,5.1458,4.9993,4.9293,4.926,4.8528,4.8453,4.8801,4.8801,4.8863,4.9049,4.935,4.9649,4.9965,0.0,0.0,0.0,0.0,0.0,0.0,0.0,5.0807,5.064,4.9826,4.968,4.9816,4.9951,5.0061,5.0431,5.1505,5.181,5.205,5.2962,5.3812,5.4598,5.5235,5.5643,5.6479,5.8861,5.998,6.0521,6.0593,6.0943,6.1704,6.3308,6.3873,6.4347,6.5154,6.4858,6.4118,6.2832,6.247,6.1668,6.0255,6.0987,6.1495,6.1298,6.1975,6.2381,6.2381,6.2381,6.2719,6.3463,6.3497,6.3835,6.4546,6.458,6.458,6.458,6.458,6.4952,6.5696,6.644,6.7184,6.7895,6.8741,6.9485,7.0161,7.0161,7.0635,7.1312,7.1312,7.1312,7.1356,7.181,7.1985,7.2072,0.0,0.0,0.0,0.0,0.0,0.0,0.0,0.0,0.0,0.0,0.0,0.0,0.0,0.0,0.0,0.0,0.0,0.0,4.6447,4.6177,4.6583,4.7838,4.8139,4.8477,4.8984,4.9729,5.0473,5.1185,5.1389,5.1155,5.0518,4.9985,4.9451,4.8914,4.8552,4.8547,4.8801,4.8801,4.8863,4.9049,4.9471,4.9732,4.9994,0.0,0.0,0.0,0.0,0.0,0.0,0.0,0.0,0.0,4.9575,4.922,4.9176,4.8842,4.9143,4.9862,5.081,5.1532,5.2155,5.2983,5.3812,5.462,5.5346,5.6849,5.8687,6.0907,6.1071,6.0854,6.0854,6.1142,6.1492,6.1967,6.2705,6.3282,6.3503,6.3179,6.264,6.1939,6.1162,6.0515,6.0151,6.003,6.0374,6.1231,6.1501,6.1637,6.1637,6.1637,6.1467,6.1129,6.167,6.2076,6.2279,6.2787,6.3057,6.3057,6.3057,6.37,6.4918,6.5155,6.5358,6.5662,6.6948,6.7624,6.7929,6.9519,7.0635,7.1312,7.1312,7.1312,7.1356,7.1634,7.1688,7.1776,0.0,0.0,0.0,0.0,0.0,0.0,0.0,0.0,0.0,0.0,4.8342,4.8511,0.0,0.0,0.0,0.0,0.0,0.0,0.0,4.5771,4.6244,4.7428,4.7736,4.8274,4.8984,4.9424,4.9864,5.0338,5.0642,5.0541,5.0067,4.9736,4.9302,4.8863,4.8736,4.8601,4.8425,4.8425,4.8318,4.8169,4.8494,4.8694,4.889,0.0,0.0,0.0,0.0,0.0,0.0,0.0,0.0,0.0,4.9019,4.866,4.8628,4.8334,4.8832,4.9658,5.0562,5.1389,5.227,5.3408,5.4289,5.5244,5.6712,5.833,6.0079,6.1959,6.1969,6.1615,6.1563,6.1719,6.1762,6.1432,6.1898,6.2218,6.1887,6.15,6.1081,6.0608,5.9673,5.9117,5.9219,5.9004,5.9285,6.0317,6.0655,6.0825,6.0825,6.0825,6.0588,6.0114,6.0554,6.0825,6.0825,6.1264,6.1467,6.1501,6.1806,6.2415,6.3328,6.3903,6.4343,6.4681,6.617,6.6812,6.6981,6.9248,7.0466,7.0906,7.121,7.1312,7.1312,7.1512,7.16,7.1644,0.0,0.0,0.0,0.0,0.0,0.0,0.0,0.0,0.0,0.0,4.9018,4.8984,0.0,0.0,0.0,0.0,0.0,0.0,0.0,0.0,4.6041,4.6752,4.7631,4.8376,4.8984,4.9086,4.9086,4.9018,4.9661,4.9999,4.9965,4.9323,4.9018,4.9018,4.8951,4.8545,4.7906,4.7804,4.7428,4.6815,4.6961,4.7072,4.7238,4.7823,0.0,0.0,0.0,0.0,0.0,0.0,0.0,0.0,4.8344,4.8168,4.8207,4.8248,4.893,4.9794,5.0582,5.1426,5.2491,5.4032,5.506,5.6308,5.8694,5.9795,6.0664,6.2105,6.2409,6.2358,6.223,6.2307,6.2153,6.1432,6.141,6.1227,6.0493,6.004,5.9631,5.9168,5.8255,5.772,5.7803,5.7978,5.83,5.8863,5.9573,6.0013,6.0013,6.0013,5.9979,5.9911,5.9945,6.0013,6.0013,6.008,6.0114,6.0114,6.0926,6.1298,6.1366,6.2787,6.3802,6.458,6.5933,6.6609,6.6981,6.9045,6.9992,7.0263,7.0939,7.1244,7.1312,7.1501,7.1556,7.16,0.0,0.0,0.0,0.0,0.0,0.0,0.0,0.0,0.0,0.0,0.0,0.0,0.0,0.0,0.0,0.0,0.0,0.0,0.0,0.0,4.6041,4.6752,4.8612,4.9424,4.9018,4.956,4.9593,4.9018,4.9154,4.9255,4.9221,4.9086,4.9018,4.8984,4.8409,4.8041,4.7838,4.7293,4.6955,4.6815,4.6961,4.7014,4.7072,4.747,4.7803,0.0,0.0,0.0,0.0,0.0,0.0,0.0,4.8016,4.7927,4.8052,4.8187,4.8871,4.9794,5.0582,5.1867,5.3188,5.4142,5.5464,5.7005,5.8781,5.9331,5.9735,6.0664,6.0885,6.0885,6.0836,6.086,6.0811,6.0628,6.0652,6.0603,6.0419,6.004,5.9657,5.9303,5.8343,5.7573,5.724,5.7295,5.7556,5.8121,5.8829,5.9268,5.9268,5.9268,5.8964,5.8389,5.893,5.9268,5.9268,5.981,6.0114,6.0114,6.0926,6.1298,6.1332,6.2212,6.3057,6.3768,6.4072,6.5222,6.6846,6.7354,6.8605,7.0195,7.0364,7.0804,7.1312,7.1356,7.1356,7.1401,0.0,0.0,0.0,0.0,0.0,0.0,0.0,0.0,0.0,0.0,0.0,0.0,0.0,0.0,0.0,0.0,0.0,0.0,0.0,0.0,0.0,4.7293,4.8781,4.939,4.9018,4.9419,4.945,4.9077,4.9168,4.9172,4.9018,4.9018,4.8815,4.8477,4.8041,4.75,4.6819,4.6447,4.6075,4.5766,4.5823,4.5846,4.5909,4.6101,4.6323,4.6569,4.6829,0.0,0.0,0.0,0.0,0.0,0.0,0.0,4.7809,4.8032,4.9029,5.0191,5.0672,5.227,5.4069,5.5244,5.6455,5.7593,5.8437,5.8621,5.8731,5.9171,5.9869,6.0419,6.0419,6.0419,6.0272,5.9905,5.9832,5.9661,5.9247,5.8933,5.8584,5.8079,5.7356,5.6802,5.6472,5.6399,5.6577,5.6977,5.7688,5.8022,5.7949,5.8287,5.8152,5.7408,5.8084,5.8321,5.7949,5.8693,5.9032,5.9066,6.0182,6.1095,6.1839,6.2212,6.2618,6.299,6.3362,6.4377,6.5797,6.6508,6.7963,6.9688,7.006,7.0635,7.1312,7.1312,7.1312,7.1312,0.0,0.0,0.0,0.0,0.0,0.0,0.0,0.0,0.0,0.0,0.0,0.0,0.0,0.0,0.0,0.0,0.0,0.0,0.0,0.0,0.0,0.0,4.8815,4.912,4.9049,4.9304,4.9328,4.9086,4.9402,4.9342,4.8938,4.9012,4.8711,4.8075,4.7804,4.7056,4.5872,4.5635,4.5162,4.4615,4.4615,4.4615,4.4615,4.472,4.4858,4.4961,4.5203,4.5389,4.5598,4.593,0.0,0.0,0.0,0.0,4.7472,4.7809,4.907,5.0419,5.0705,5.2653,5.495,5.6455,5.7409,5.7997,5.7997,5.7997,5.7997,5.7997,5.9061,5.9979,5.9979,5.9979,5.9758,5.9074,5.8964,5.8721,5.7907,5.7655,5.7313,5.6644,5.6265,5.5912,5.564,5.5593,5.5647,5.5791,5.6505,5.6843,5.663,5.7171,5.7239,5.663,5.7205,5.7239,5.663,5.734,5.7712,5.7712,5.9336,6.0892,6.2381,6.2381,6.2381,6.2415,6.3057,6.3802,6.4681,6.5933,6.7421,6.8977,6.9722,7.0466,7.1142,7.1278,7.1312,7.1312,0.0,0.0,0.0,0.0,0.0,0.0,0.0,0.0,0.0,0.0,4.7906,4.7665,0.0,0.0,0.0,0.0,0.0,0.0,0.0,0.0,0.0,0.0,4.956,4.9723,4.9168,4.9998,4.9842,4.8689,4.9487,4.9423,4.8665,4.9014,4.9073,4.8815,4.753,4.6819,4.6549,4.5292,4.4716,4.4615,4.4615,4.4615,4.4615,4.4643,4.4692,4.4831,4.4858,4.5049,4.5257,4.531,4.5598,0.0,0.0,0.0,4.7062,4.745,4.8421,4.9565,5.0419,5.2978,5.5647,5.6565,5.7409,5.7997,5.7997,5.7997,5.7997,5.7997,5.818,5.8327,5.8327,5.8327,5.829,5.818,5.8143,5.806,5.7834,5.7559,5.7213,5.6582,5.6063,5.5531,5.4911,5.5221,5.5309,5.4975,5.5689,5.6061,5.5852,5.5953,5.5953,5.5852,5.5953,5.5953,5.5852,5.6596,5.6934,5.6968,5.9099,6.0892,6.2381,6.2381,6.2381,6.2381,6.2482,6.3328,6.4613,6.4816,6.6136,6.8132,6.8944,6.9688,7.0398,7.1075,7.1312,7.1312,0.0,0.0,0.0,0.0,0.0,0.0,0.0,0.0,0.0,0.0,0.0,4.7158,0.0,0.0,0.0,0.0,0.0,0.0,0.0,0.0,0.0,0.0,4.9086,4.9385,4.9199,4.9428,4.9344,4.8916,4.9062,4.9144,4.9166,4.9199,4.8998,4.8647,4.7878,4.7068,4.6253,4.5523,4.4959,4.4615,4.4615,4.4615,4.4547,4.4079,4.3938,4.3986,4.3545,4.3729,4.4211,4.4319,4.478,4.5415,4.5778,0.0,0.0,0.0,4.7991,4.9349,5.138,5.3066,5.4656,5.6381,5.7079,5.7446,5.7886,5.7997,5.7997,5.7997,5.7997,5.7997,5.7997,5.7997,5.7997,5.7997,5.7997,5.7927,5.7739,5.751,5.7138,5.6366,5.6014,5.5525,5.4807,5.4966,5.4851,5.4393,5.5042,5.5349,5.5074,5.548,5.5513,5.5108,5.548,5.5513,5.5108,5.6224,5.7205,5.8051,5.9438,6.0689,6.1806,6.2212,6.2381,6.2381,6.2381,6.3226,6.4613,6.4613,6.5899,6.7996,6.8808,6.9553,7.0297,7.1041,7.1312,7.1312,0.0,0.0,0.0,0.0,0.0,0.0,0.0,0.0,0.0,0.0,0.0,0.0,0.0,0.0,0.0,0.0,0.0,0.0,0.0,0.0,0.0,0.0,0.0,4.8907,4.926,4.8947,4.8834,4.9025,4.8776,4.8931,4.9468,4.946,4.9318,4.9022,4.847,4.7476,4.6221,4.5914,4.532,4.4581,4.4378,4.4282,4.4215,4.3436,4.3132,4.3064,4.2726,4.2929,4.3436,4.381,4.4388,4.5022,4.5336,4.5717,0.0,0.0,0.0,4.9213,5.1441,5.2584,5.3586,5.5405,5.6198,5.6712,5.7519,5.7703,5.774,5.796,5.7997,5.7997,5.7997,5.7997,5.7997,5.7997,5.7997,5.7904,5.7667,5.7461,5.7087,5.6174,5.5957,5.5525,5.4811,5.4686,5.4465,5.3948,5.4427,5.4634,5.4364,5.4837,5.4905,5.4329,5.4871,5.4871,5.4329,5.5784,5.7273,5.8727,5.9471,6.0216,6.1028,6.1772,6.211,6.211,6.2313,6.3226,6.4613,6.4613,6.5797,6.7726,6.8707,6.9451,7.0026,7.0973,7.1312,7.1312,0.0,0.0,0.0,0.0,0.0,0.0,0.0,0.0,0.0,0.0,0.0,0.0,4.6786,4.6143,4.5399,4.4682,0.0,0.0,0.0,0.0,0.0,0.0,0.0,0.0,4.9471,4.9189,4.8846,4.8539,4.8912,4.9086,4.9146,4.9831,5.0388,5.0805,4.9249,4.8037,4.7079,4.6255,4.5399,4.4547,4.3775,4.3443,4.3375,4.2625,4.2354,4.2422,4.3132,4.3375,4.3511,4.431,4.4692,4.4831,4.4995,4.531,4.5727,0.0,0.0,0.0,4.9258,5.1161,5.306,5.3329,5.4546,5.5868,5.6675,5.6859,5.7079,5.785,5.7997,5.7997,5.7997,5.7997,5.7997,5.7997,5.7997,5.7904,5.7667,5.7461,5.7087,5.6174,5.5872,5.5378,5.4589,5.4335,5.411,5.375,5.3751,5.3719,5.3551,5.3585,5.3619,5.3551,5.3585,5.3619,5.3551,5.504,5.6494,5.7949,5.8693,5.9471,6.0182,6.0994,6.1366,6.14,6.2076,6.3226,6.4613,6.4613,6.5493,6.7015,6.8504,6.9113,6.9316,7.077,7.1312,7.1312,0.0,0.0,0.0,0.0,0.0,0.0,0.0,0.0,0.0,0.0,0.0,0.0,0.0,4.6143,4.5399,4.4682,4.4615,0.0,0.0,0.0,0.0,0.0,0.0,0.0,4.9471,4.8672,4.8344,4.8624,4.8032,4.8115,4.8847,4.9543,5.0235,5.0862,5.0196,4.9028,4.7631,4.714,4.6122,4.4824,4.4552,4.4096,4.3539,4.3301,4.2807,4.232,4.2591,4.2997,4.3443,4.3741,4.4202,4.4726,4.4831,4.5049,4.5336,4.603,4.6826,4.7734,4.8649,4.9683,5.093,5.2636,5.3485,5.4312,5.5721,5.6522,5.7007,5.7302,5.7847,5.8238,5.8133,5.8065,5.7997,5.7997,5.7997,5.795,5.7763,5.7607,5.7289,5.6582,5.6174,5.57,5.5018,5.462,5.4239,5.3915,5.3783,5.3617,5.3518,5.3518,5.3518,5.3518,5.3518,5.3721,5.4194,5.4735,5.5716,5.7205,5.7949,5.8693,5.9438,6.0182,6.0825,6.1332,6.1569,6.2787,6.4613,6.4613,6.5459,6.6981,6.8504,6.9113,6.9282,7.077,7.1312,7.1312,0.0,0.0,0.0,0.0,0.0,0.0,0.0,0.0,0.0,0.0,0.0,0.0,0.0,0.0,4.5484,4.4788,4.472,4.4692,4.4699,4.5145,0.0,0.0,0.0,0.0,4.9381,4.8552,4.8255,4.8624,4.7761,4.7846,4.8786,4.9536,5.0285,5.0996,5.1094,5.0005,4.8066,4.7803,4.6721,4.5123,4.4849,4.4392,4.3814,4.3576,4.3053,4.2513,4.2698,4.3078,4.3525,4.3707,4.4147,4.4615,4.4692,4.4858,4.5123,4.5794,4.6291,4.6825,4.7774,4.8424,4.9278,5.1158,5.1886,5.2593,5.4334,5.5272,5.5932,5.6485,5.7125,5.7537,5.7427,5.7338,5.7344,5.7556,5.7373,5.7217,5.7394,5.7337,5.717,5.6835,5.6474,5.595,5.5289,5.4776,5.4335,5.3915,5.3717,5.3584,5.3518,5.3518,5.3518,5.3518,5.3518,5.3754,5.4228,5.4465,5.5074,5.6055,5.707,5.778,5.8287,5.9302,6.0148,6.0926,6.1197,6.255,6.4613,6.4613,6.5459,6.6948,6.8199,6.8876,6.9248,7.05,7.1109,7.1312,0.0,0.0,0.0,0.0,0.0,0.0,0.0,0.0,0.0,4.7906,0.0,0.0,0.0,0.0,0.0,4.5091,4.5022,4.4968,4.4831,4.4803,0.0,0.0,0.0,0.0,4.9165,4.886,4.8612,4.8408,4.8185,4.837,4.888,4.9858,5.07,5.1405,5.1976,5.0867,4.8572,4.826,4.7125,4.5441,4.4716,4.4328,4.413,4.3443,4.3031,4.2945,4.3564,4.3749,4.3824,4.4406,4.4615,4.4615,4.4615,4.4776,4.5042,4.5468,4.5743,4.607,0.0,0.0,0.0,4.8772,4.961,5.0806,5.252,5.3115,5.376,5.5417,5.5834,5.5876,5.5843,5.5785,5.5999,5.6602,5.6088,5.5823,5.6479,5.6603,5.6708,5.6953,5.6714,5.6201,5.5348,5.4807,5.4271,5.375,5.3584,5.3518,5.3518,5.3518,5.3518,5.3518,5.3518,5.3518,5.3518,5.4194,5.4566,5.46,5.6055,5.6765,5.6867,5.8287,5.937,6.0114,6.0926,6.2516,6.4546,6.458,6.5459,6.6846,6.759,6.8402,6.918,6.9925,7.0669,7.1312,0.0,0.0,0.0,0.0,0.0,0.0,0.0,0.0,4.8714,0.0,0.0,0.0,4.7597,4.668,4.6048,4.6082,4.5593,4.5283,4.523,4.5123,4.5644,4.6893,4.6961,4.764,4.9165,4.8807,4.8508,4.8277,4.8063,4.7957,4.8061,4.9653,5.0508,5.0863,5.2098,5.1864,5.0496,4.9941,4.8998,4.7828,4.7643,4.707,4.6377,4.6595,4.5857,4.4733,4.5255,4.5022,4.4504,4.4603,4.4615,4.4615,4.4615,4.4692,4.4913,4.5096,4.5363,4.5675,4.607,0.0,0.0,0.0,0.0,0.0,5.0836,5.2286,5.3506,5.401,5.5209,5.6121,5.5897,5.5397,5.5038,5.5045,5.5354,5.5647,5.586,5.6373,5.6759,5.6708,5.6776,5.6608,5.6063,5.5164,5.446,5.4108,5.3684,5.3518,5.3518,5.3518,5.3518,5.3518,5.3518,5.3518,5.3518,5.3687,5.4059,5.46,5.5006,5.575,5.6799,5.7239,5.8118,5.937,6.0114,6.14,6.3091,6.4174,6.5155,6.6136,6.7387,6.8402,6.918,6.9925,7.0669,7.1312,0.0,0.0,0.0,0.0,0.0,0.0,4.956,4.9458,4.9357,0.0,0.0,0.0,4.7729,4.717,4.679,4.6847,4.6534,4.6142,4.5752,4.5624,4.6044,4.7204,4.7187,4.7817,4.9165,4.9145,4.8992,4.8633,4.8498,4.8552,4.8713,4.9919,5.0728,5.1234,5.2389,5.255,5.1981,5.1535,5.045,4.9088,4.9088,4.8632,4.8055,4.8361,4.7482,4.6135,4.6247,4.587,4.5307,4.5111,4.506,4.4993,4.4716,4.4637,4.472,4.4886,4.5049,4.523,4.5572,4.5844,4.6274,4.7216,0.0,0.0,4.943,5.0744,5.1838,5.227,5.3319,5.4064,5.3846,5.3715,5.3543,5.3414,5.4069,5.473,5.506,5.5794,5.6373,5.6566,5.6891,5.6881,5.6339,5.5402,5.4614,5.4203,5.375,5.3518,5.3518,5.3518,5.3518,5.3518,5.3518,5.3518,5.3518,5.3518,5.3721,5.4126,5.4431,5.504,5.5886,5.6528,5.7442,5.8592,5.9336,6.052,6.2009,6.3193,6.4478,6.5764,6.6643,6.7861,6.9147,6.9586,7.0398,7.1312,0.0,0.0,0.0,0.0,0.0,5.1146,5.0432,5.0297,0.0,0.0,4.8643,4.8082,4.7866,4.7851,4.7765,4.7547,4.7597,4.7258,4.6337,4.6274,4.6663,4.7644,4.7679,4.8175,4.9286,4.9737,4.9727,4.9269,4.922,4.9482,4.9989,5.0383,5.0993,0.0,5.2532,5.2892,5.2892,5.2784,5.1615,4.9885,4.9862,4.9698,4.9434,4.9323,4.8494,4.7315,4.688,4.6399,4.5964,4.5755,4.5703,4.5602,4.4925,4.4682,4.4643,4.472,4.4776,4.4831,4.5103,4.5336,4.5649,4.602,4.6483,0.0,4.8119,4.8789,4.9431,5.0175,5.061,5.0875,5.0721,5.1363,5.1932,5.1977,5.258,5.3314,5.4142,5.5023,5.5845,5.6406,5.6928,5.701,5.6393,5.5484,5.4769,5.4269,5.3783,5.3518,5.3518,5.3518,5.3518,5.3518,5.3518,5.3518,5.3518,5.3518,5.3518,5.3518,5.416,5.4499,5.4634,5.6055,5.707,5.7814,5.866,5.9844,6.1231,6.1975,6.3565,6.5561,6.5662,6.7083,6.9113,6.9113,7.0026,7.1312,5.3382,0.0,0.0,0.0,0.0,0.0,5.1747,5.1645,5.1576,5.1439,5.0543,4.9906,4.9983,4.9263,4.8665,4.8483,4.815,4.7666,4.6895,4.737,4.7875,4.8295,4.8765,4.9305,4.993,5.0165,5.0125,4.9688,4.9468,4.9297,4.9225,5.017,5.0407,5.0124,5.1552,5.2213,5.2213,5.2171,5.2212,5.2309,5.2073,5.1845,5.1622,5.1247,4.9983,4.8412,4.7731,4.6502,4.5275,4.5586,4.5703,4.5669,4.5534,4.506,4.4615,4.4643,4.4643,4.4665,4.4831,4.5022,4.5203,4.5624,4.602,0.0,4.6355,4.7155,4.7819,4.7551,4.8603,4.9561,4.9541,5.0195,5.0984,5.1705,5.1962,5.2407,5.3314,5.4693,5.5647,5.5772,5.6708,5.7188,5.6652,5.583,5.5044,5.4494,5.385,5.3518,5.3518,5.3518,5.3518,5.3518,5.3518,5.3518,5.3518,5.3518,5.3518,5.3518,5.3653,5.4025,5.4634,5.5513,5.6325,5.7103,5.8423,5.9505,6.0385,6.1197,6.2821,6.4884,6.5459,6.7083,6.9113,6.9113,7.0026,7.1312,5.3518,5.3618,5.3614,5.3372,0.0,0.0,0.0,0.0,5.2753,5.2283,5.1325,5.0693,5.0845,5.0161,4.9463,4.8857,4.9172,0.0,0.0,0.0,4.9186,4.9582,4.9821,5.0128,5.0439,5.0714,5.0753,5.0522,5.0354,5.0245,5.0192,5.0561,5.0541,5.0215,5.1022,5.1389,5.1426,5.183,5.2176,5.2517,5.2726,5.2672,5.2421,5.1982,5.0599,4.8766,4.8039,4.6749,4.5427,4.6065,4.6244,4.6177,4.5838,4.5466,4.506,4.4716,4.4615,4.4615,4.4665,4.4803,4.4968,4.523,4.5589,0.0,0.0,4.6229,4.65,4.6275,4.6716,4.713,4.713,4.813,4.9116,4.958,5.0714,5.1704,5.2186,5.4195,5.5596,5.5596,5.6682,5.7264,5.6871,5.5971,5.5044,5.4175,5.3718,5.3518,5.3518,5.3518,5.3518,5.3518,5.3518,5.3518,5.3518,5.3518,5.3518,5.3518,5.3518,5.3687,5.4093,5.5209,5.5919,5.6325,5.7814,5.9066,6.0148,6.0554,6.2245,6.4647,6.5019,6.6779,6.9113,6.9113,7.0026,7.1312,5.3078,5.3243,5.3507,5.3806,5.4221,0.0,0.0,0.0,5.4011,5.3152,5.2023,5.1321,5.141,5.0841,5.006,4.9154,5.0065,0.0,4.8987,4.9681,5.0335,5.0796,0.0,5.0884,5.1061,5.1398,5.1525,5.1424,5.1321,5.1324,5.1493,5.1025,5.0729,5.0582,5.0582,5.0582,5.0618,5.1426,5.1867,5.205,5.2752,5.2872,5.259,5.2257,5.0795,4.877,4.7717,4.6638,4.5805,4.6549,4.6786,4.6684,4.6109,4.5805,4.5568,4.4818,4.4615,4.4615,4.4615,4.4665,4.4776,4.494,4.523,4.5503,0.0,0.0,0.0,4.5333,4.512,4.4936,4.4979,4.6248,4.7341,4.7573,4.9442,5.099,5.118,5.3467,5.5162,5.5265,5.6403,5.7096,5.6768,5.5844,5.4861,5.3848,5.3618,5.3518,5.3518,5.3518,5.3518,5.3518,5.3518,5.3518,5.3518,5.3518,5.3518,5.3518,5.3518,5.3518,5.3551,5.504,5.5681,5.5818,5.7408,5.8863,6.0114,6.0419,6.2144,6.4613,6.4613,6.644,6.9113,6.9113,7.0026,7.1312,5.1455,5.1872,5.242,5.326,0.0,0.0,0.0,0.0,5.5801,5.5156,5.3655,5.2637,5.2526,5.1346,5.0317,4.9766,5.024,5.0342,4.9621,5.0511,5.1131,5.1239,5.1739,5.2042,5.2042,5.209,5.2137,5.2268,5.1791,5.1624,5.1731,5.1108,5.0398,4.9757,4.9757,4.9757,4.9794,5.0582,5.1353,5.205,5.2873,5.3017,5.2739,5.2338,5.0832,4.8579,4.6193,4.5505,4.5805,4.6549,4.6786,4.6786,4.6684,4.6244,4.5568,4.4818,4.4615,4.4615,4.4615,4.4615,4.4637,4.4776,4.4968,4.4952,4.4501,0.0,4.4396,4.3798,0.0,4.4701,4.4941,0.0,0.0,4.7865,4.8864,4.9865,5.0818,5.2402,5.3616,5.3958,5.5494,5.6334,5.5811,5.5155,5.4617,5.4205,5.3717,5.3518,5.3518,5.3518,5.3518,5.3518,5.3518,5.3518,5.3518,5.3518,5.3518,5.3518,5.3518,5.3518,5.3551,5.504,5.5681,5.5817,5.7949,5.9336,6.0216,6.1569,6.3091,6.4613,6.4613,6.644,6.9113,6.9113,7.0026,7.1312,5.1208,5.1694,5.223,5.2894,0.0,0.0,0.0,0.0,5.6385,5.5478,5.4709,5.3773,5.253,5.2361,5.166,5.0004,5.1002,5.1365,5.033,5.1213,5.1855,5.205,5.2363,5.2499,5.2454,5.2499,0.0,5.2522,5.2441,5.2206,5.181,0.0,5.1059,5.0288,5.0288,5.0288,5.0362,5.1132,5.1683,5.205,5.2894,5.3082,5.285,5.2371,5.0577,4.8076,4.6397,4.5465,4.5229,4.6413,4.6786,4.6786,4.6786,4.6583,4.6109,4.4953,4.4615,4.4615,4.4615,4.4615,4.4615,4.4699,4.4776,4.4811,4.4612,4.4353,4.4096,4.3811,0.0,0.0,0.0,0.0,0.0,0.0,4.7051,4.8066,4.8533,4.9674,5.1233,5.3327,5.4593,5.5033,5.4385,5.3748,5.3176,5.2775,5.2767,5.2807,5.2807,5.3247,5.3518,5.3518,5.3518,5.3518,5.3518,5.3518,5.3518,5.3518,5.3518,5.3518,5.3551,5.504,5.5681,5.5817,5.8051,5.9438,6.0216,6.1738,6.326,6.4647,6.5053,6.6812,6.9113,6.9113,7.0026,7.1312,5.0994,5.1416,5.1781,5.2507,5.3183,0.0,0.0,5.645,5.6642,5.5965,5.562,5.4838,5.3327,5.354,5.3025,5.1192,5.2031,5.2248,5.1357,5.1802,5.2221,5.2559,5.2649,5.2717,5.2702,5.2806,5.2828,0.0,5.2937,5.2767,5.2181,0.0,0.0,0.0,5.0912,5.0802,5.0839,5.1646,5.1977,5.205,5.2894,5.3082,5.2791,5.2038,5.0225,4.7934,4.6714,4.5582,4.484,4.607,4.6481,4.6481,4.6481,4.6481,4.6244,4.4987,4.4615,4.4615,4.4615,4.4615,4.4615,4.4615,4.4665,4.4748,4.4748,4.4415,4.4141,4.4141,4.381,0.0,0.0,0.0,4.4535,4.4613,0.0,4.6751,4.6804,4.7649,4.9238,5.1775,5.2946,5.3564,5.3447,5.2805,5.2183,5.1819,5.1917,5.2097,5.23,5.2841,5.3281,5.3484,5.3518,5.3518,5.3518,5.3518,5.3518,5.3518,5.3518,5.3518,5.3551,5.504,5.5681,5.5817,5.8254,5.9607,6.025,6.2212,6.3632,6.4681,6.5628,6.7151,6.8808,6.9011,6.9925,7.1041,5.0544,5.0551,5.0823,5.2028,5.2865,5.4098,5.6231,5.6593,5.6815,5.7242,5.6538,5.5896,5.571,5.4773,5.4112,5.3885,5.3139,5.2747,5.284,5.2126,5.1956,5.2457,5.2503,5.2663,5.2959,5.298,5.306,5.3203,5.3203,5.3167,5.313,0.0,0.0,0.0,5.1169,5.0802,5.0839,5.1646,5.1977,5.205,5.2894,5.2937,5.2472,5.1072,4.9689,4.8294,4.6815,4.5665,4.4884,4.5523,4.5737,0.0,0.0,4.5737,4.5602,4.4818,4.4615,4.4615,4.4615,4.4615,4.4615,4.4615,4.4615,4.4615,4.4615,4.4581,4.4581,4.4581,4.4575,4.4569,4.4708,4.4797,4.4879,4.5115,4.5822,0.0,0.0,4.7237,4.7966,4.8582,5.0171,5.1829,5.345,5.2741,5.2153,5.2004,5.1539,5.1555,5.2266,5.2334,5.2706,5.3484,5.3518,5.3518,5.3518,5.3518,5.3518,5.3518,5.3518,5.3518,5.3551,5.504,5.5681,5.5886,5.8795,6.008,6.0317,6.3294,6.4546,6.4749,6.6203,6.7252,6.803,6.8808,6.9586,7.0331,5.1035,5.1244,5.147,5.1958,5.245,5.3466,5.5623,5.6827,5.7368,5.6948,5.7521,5.7292,5.5462,5.6355,5.636,5.4471,5.4036,5.3591,5.3074,5.2287,5.2005,5.2364,5.2364,5.2467,5.2702,5.2828,5.2915,5.3082,5.3146,5.3203,5.3167,5.2931,0.0,0.0,5.2527,5.2417,5.2417,5.2674,5.2784,5.2821,5.3115,5.306,5.2769,5.1919,5.0709,4.9283,4.7988,4.6714,0.0,4.5801,4.5789,4.5703,4.5703,4.5703,4.5568,4.4818,4.4615,4.4615,0.0,0.0,4.4615,4.4615,4.4615,4.4615,4.4615,4.4615,4.4615,4.4615,4.4615,0.0,0.0,4.4699,4.4726,4.4776,4.5007,4.5205,0.0,4.5582,4.611,4.6938,4.8603,5.0098,5.1081,5.0695,5.0343,5.0161,5.036,5.0574,5.0811,5.1758,5.2435,5.2706,5.3213,5.3518,5.3518,5.3518,5.3518,5.3518,5.3518,5.3754,5.4262,5.5243,5.5987,5.6562,5.9032,6.0114,6.0283,6.2821,6.4174,6.4715,6.5696,6.6508,6.7354,6.8639,6.9553,7.0297,5.2029,5.2568,5.2774,5.2222,5.2661,5.3636,5.5346,5.6969,5.79,5.7574,5.8686,5.8835,5.712,5.7996,5.7994,5.6197,5.5385,5.4745,5.4165,5.301,5.2436,5.2642,5.2294,5.2186,5.2444,5.2522,5.2717,5.2915,5.306,5.3146,5.3203,5.3203,0.0,0.0,5.3203,5.3203,5.3203,5.3203,5.3203,5.3203,5.3203,5.3124,5.2937,5.2568,5.1503,5.0064,4.9021,4.7862,4.6653,4.6135,4.5869,4.5721,4.5427,4.5297,4.5196,4.475,4.4615,4.4615,4.4615,4.4615,0.0,4.4615,4.4615,0.0,4.4925,0.0,4.506,0.0,0.0,0.0,0.0,4.4784,4.4615,4.4615,0.0,4.4615,0.0,4.4665,4.5048,4.5992,4.7436,4.8637,4.9367,4.9179,4.8941,4.8821,4.9111,4.9424,4.9695,5.1116,5.2029,5.23,5.3078,5.3518,5.3518,5.3518,5.3518,5.3518,5.3518,5.389,5.4634,5.5378,5.6122,5.6934,5.9133,6.0114,6.0283,6.2584,6.3937,6.4681,6.5392,6.6136,6.6981,6.8199,6.9316,7.0297,5.3471,5.4362,5.4517,5.2852,5.3526,5.4598,5.5574,5.7042,5.8364,5.9148,5.9979,6.0419,6.0346,5.9566,5.8969,5.8774,5.7061,5.6031,5.6018,5.4226,5.3189,5.3302,5.2287,5.1844,5.2078,5.2126,5.2384,5.2761,5.2915,5.306,5.3203,5.3203,5.3203,5.3203,5.3203,5.3203,5.3203,5.3203,5.3203,5.3203,5.3203,5.3124,5.3017,5.285,5.196,5.0713,4.9983,4.9003,4.7788,4.6618,4.6101,4.5824,4.4976,4.4716,4.4716,4.4677,4.4677,4.4677,4.4643,4.4643,4.4643,4.4643,4.4677,0.0,0.0,0.0,4.594,0.0,0.0,0.0,0.0,0.0,0.0,4.4615,0.0,4.4615,4.4615,4.4615,4.4857,4.5568,4.6538,4.7484,4.8409,4.8216,4.8039,4.8039,4.7928,4.821,4.8917,5.0405,5.1522,5.2232,5.3078,5.3518,5.3518,5.3518,5.3518,5.3518,5.3518,5.3923,5.4668,5.5378,5.6122,5.6968,5.9167,6.0114,6.0283,6.2516,6.3903,6.4681,6.5358,6.6102,6.6914,6.7624,6.8876,7.0297,5.4508,5.5067,5.5294,5.4869,5.5045,5.5735,5.7152,5.8253,5.9208,6.0015,6.0786,6.086,5.9625,5.9821,5.9516,5.8165,5.7058,5.6403,5.6308,5.5003,5.3963,5.3338,5.261,5.2048,5.1658,5.1712,5.1946,5.2361,5.2694,5.2915,5.306,5.3146,5.3203,5.3203,5.3203,5.3203,5.3203,5.3203,5.3203,5.3203,5.3203,5.3203,5.3124,5.3017,5.2638,5.2091,5.0771,4.9841,4.9038,4.7815,4.7189,4.6846,4.6681,4.6499,4.634,4.5952,4.5864,4.5761,4.5321,4.5177,4.515,4.5042,4.5487,4.5849,0.0,0.0,0.0,0.0,0.0,0.0,0.0,0.0,0.0,4.4716,4.4615,4.4615,4.4615,4.4615,4.4682,4.4857,4.5591,4.6423,4.7194,4.7174,4.7115,4.7115,4.7627,4.7973,4.8142,5.0101,5.1286,5.1488,5.2807,5.3518,5.3518,5.3518,5.3518,5.3518,5.3518,5.416,5.5446,5.558,5.6393,5.7712,5.937,6.0114,6.0216,6.1975,6.3429,6.4613,6.4816,6.5662,6.6914,6.7624,6.8876,7.0229,5.5534,5.5885,5.6235,5.6565,5.6638,5.6932,5.785,5.9281,6.0419,6.086,6.163,6.1777,6.0872,6.0566,5.9992,5.904,5.7867,5.7184,5.7115,5.5922,5.4952,5.4345,5.2962,5.2085,5.175,5.1405,5.15,5.2018,5.2431,5.2761,5.298,5.3124,5.3203,5.3203,5.3203,5.3203,5.3203,5.3203,5.3203,5.3203,5.3203,5.3203,0.0,5.3103,5.3017,5.2791,5.1832,5.1082,5.0346,4.902,4.8287,4.7826,4.7438,4.7187,4.7056,4.6955,4.6714,4.6416,4.61,4.6048,4.6022,4.5943,4.6477,4.7024,4.7152,4.7392,4.7656,0.0,4.7526,4.7158,0.0,0.0,4.5466,4.4716,4.4615,4.4615,4.4615,4.4615,4.4615,4.4615,4.4987,4.55,4.6244,4.6312,4.6447,4.6786,4.7192,4.7564,4.7872,4.9695,5.0879,5.1217,5.2367,5.3145,5.3518,5.3518,5.3518,5.3518,5.3518,5.4296,5.5681,5.5681,5.6494,5.7983,5.9471,6.0114,6.0216,6.1738,6.326,6.4647,6.5324,6.6068,6.688,6.7286,6.8166,6.9282,5.6525,5.6795,5.7226,5.8033,5.8253,5.84,5.8584,6.0309,6.163,6.1741,6.2365,6.2768,6.2658,6.13,6.0382,6.0272,5.8877,5.7997,5.7997,5.6831,5.6002,5.5641,5.337,5.2039,5.1941,5.1169,5.107,5.1701,5.2137,5.2568,5.2937,5.3124,5.3203,5.3203,5.3203,5.3203,5.3203,5.3203,5.3203,5.3203,5.3203,5.3203,5.3203,5.3203,5.3124,5.3017,5.2872,5.2338,5.1469,5.0189,4.9443,4.886,4.7986,4.7632,4.7654,4.7948,4.7619,4.7195,4.7264,4.728,4.728,4.7194,4.7718,4.8325,4.8799,4.873,4.8778,4.9184,4.8629,4.8037,4.7936,0.0,0.0,4.4987,4.4818,4.4784,4.4886,4.4818,4.475,4.475,4.4682,0.0,4.5635,4.5602,4.5906,4.6718,4.6786,4.7124,4.7838,4.9289,5.0439,5.1151,5.1928,5.2706,5.3484,5.3518,5.3518,5.3518,5.3518,5.4296,5.5681,5.5681,5.6494,5.7983,5.9471,6.0114,6.0216,6.1873,6.3396,6.4884,6.6271,6.6812,6.6812,6.6812,6.7286,6.8098,5.7637,5.7753,5.8033,5.8854,5.9538,6.0419,6.1777,6.1741,6.1851,6.2511,6.2732,6.2548,6.1887,6.097,6.0126,5.9478,5.8547,5.7997,5.7997,5.7377,5.6581,5.5641,5.3757,5.2402,5.1695,5.0865,5.0694,5.114,5.1873,5.2371,5.2658,5.3039,5.3203,5.3203,5.3203,5.3203,5.3203,5.3203,5.3203,5.3203,5.3203,5.3203,5.3203,5.3203,5.3203,5.3124,5.3017,5.259,5.2018,5.1297,5.0726,5.0237,4.9966,4.979,4.968,4.9697,4.9674,4.9604,4.9293,4.9233,4.9162,4.8936,4.9369,4.978,4.9388,4.959,4.9833,4.9644,4.9278,4.8795,4.818,0.0,0.0,4.6346,4.5906,4.5703,4.6312,4.5872,4.55,4.55,4.4959,4.4886,4.5635,4.5128,4.5331,4.6684,4.6786,4.7124,4.7838,4.9289,5.0439,5.1151,5.1928,5.2706,0.0,0.0,5.3518,5.3518,5.3518,5.4296,5.5681,5.5681,5.6494,5.7983,5.9471,6.0114,6.0283,6.2415,6.4174,6.5595,6.6474,6.6812,6.6812,6.6812,6.7286,6.803,5.8574,5.8951,5.9391,5.9758,6.0823,6.1924,6.267,6.3209,6.3503,6.3466,6.3466,6.3135,6.2328,6.1117,6.0236,5.9869,5.8694,5.7997,5.7997,5.7559,5.7007,5.633,5.4583,5.3223,5.2345,5.1378,5.0921,5.0982,5.1676,5.2185,5.2613,5.2937,5.3124,5.3203,5.3203,5.3203,5.3203,5.3203,5.3203,5.3203,5.3203,5.3203,5.3203,5.3203,5.3203,5.3203,5.3124,5.2893,5.2522,5.1848,5.1192,5.0667,5.0453,5.0341,5.0328,5.0506,5.0531,5.0521,5.0458,5.0466,5.0488,5.0374,5.0797,5.1126,5.0754,5.0576,5.0425,5.0143,4.9679,4.9052,4.8154,4.7357,0.0,0.0,0.0,4.638,4.6752,4.6481,4.6143,4.5737,4.5399,4.5466,4.621,4.5602,4.5771,4.7259,4.7361,4.7699,4.8443,4.9154,5.0033,5.1151,0.0,0.0,5.3484,0.0,5.3518,5.3518,5.3518,5.4296,5.5681,5.5681,5.6731,5.8524,5.9641,6.0351,6.0892,6.3159,6.4715,6.5797,6.6948,6.7387,6.7421,6.7861,6.8233,6.8571,5.9441,6.0126,6.0713,6.0896,6.2108,6.3209,6.3539,6.4714,6.5191,6.4237,6.409,6.3759,6.2915,6.152,6.0603,6.0419,5.9098,5.818,5.7997,5.7607,5.7289,5.7036,5.5344,5.3985,5.3105,5.2015,5.1326,5.1035,5.1576,5.2126,5.2613,5.2872,5.3082,5.3203,5.3203,5.3203,5.3203,5.3203,5.3203,5.3203,5.3203,5.3167,5.3146,5.3146,5.3124,5.3103,5.3124,5.3082,5.285,5.2185,5.1525,5.091,5.0612,5.0509,5.0592,5.0982,5.1073,5.1107,5.1411,5.1606,5.1696,5.1673,5.1963,5.2186,5.197,5.1449,5.0937,5.0647,5.0028,4.927,4.8331,4.8003,0.0,0.0,0.0,0.0,0.0,4.7124,4.6752,4.6007,4.5805,4.594,4.6515,4.6177,4.6481,4.7804,4.7906,4.821,4.8951,4.9018,4.9695,0.0,5.1185,5.1961,5.3484,0.0,5.3518,5.3518,5.3653,5.4431,5.5681,5.6021,5.7205,5.9066,5.9979,6.0994,6.2144,6.3869,6.5121,6.6068,6.7387,6.7895,6.7996,6.8808,6.9214,6.9316,6.0309,6.0933,6.1704,6.2475,6.3356,6.4457,6.5925,6.6292,6.5852,6.431,6.409,6.3759,6.2915,6.1998,6.119,6.0456,5.9588,5.8804,5.8033,5.7607,5.7338,5.7188,5.5616,5.4323,5.3379,5.2438,5.1684,5.1166,5.1797,5.2257,5.2613,5.2872,5.3082,5.3203,5.3203,5.3203,0.0,5.3203,5.3203,5.3203,5.3203,5.3124,5.3039,5.3039,5.2937,5.285,5.2995,5.2915,5.2783,5.259,5.2066,5.1449,5.1061,5.0857,5.0857,5.1373,5.1788,5.2147,5.2696,5.2929,5.2993,5.2849,5.2791,5.2672,5.2408,5.2018,5.1601,5.1228,5.0363,4.9555,4.9127,4.8433,4.8105,0.0,0.0,0.0,0.0,4.824,4.753,4.6786,4.6109,4.5737,4.5805,4.6346,4.7022,4.7838,4.7906,4.821,4.8951,4.9018,0.0,5.1151,5.1185,5.1961,5.3484,5.3518,5.3518,5.3518,5.416,5.4905,5.575,5.707,5.8152,5.9099,6.0554,6.2381,6.4309,6.4512,6.5425,6.6779,6.759,6.7895,6.7996,6.8808,6.9519,7.0094,6.1851,6.2915,6.3943,6.4237,6.5007,6.5742,6.6402,6.6916,6.6806,6.5668,6.5118,6.4494,6.3686,6.2401,6.1484,6.1153,5.9942,5.9038,5.8767,5.8043,5.7559,5.7437,5.6505,5.5268,5.3886,5.3326,5.252,5.1424,5.1896,5.2257,5.259,5.2806,5.2995,0.0,0.0,5.3203,5.3203,5.3203,5.3146,5.3082,5.3082,5.2937,5.2783,5.2783,5.2694,5.2604,5.2702,5.2739,5.2658,5.2613,5.2137,5.1525,5.1114,5.0857,5.0749,5.1114,5.1576,5.2066,5.2613,5.2915,5.3082,5.3103,5.3039,5.2893,5.2783,5.2408,5.1946,5.1626,5.0659,4.9674,4.929,4.8839,4.868,4.8951,0.0,0.0,0.0,4.8748,4.8139,4.6921,4.6549,4.6177,4.5737,4.638,4.709,4.7838,4.8308,4.8714,4.8984,0.0,0.0,5.1151,0.0,5.1961,5.3484,5.3518,5.3518,5.3518,5.4262,5.5006,5.5749,5.7239,5.8795,6.0452,6.1501,6.2956,6.4613,6.4613,6.5459,6.6948,6.8132,6.8605,6.8774,6.9992,7.069,7.1026,6.3539,6.4677,6.5668,6.5668,6.6329,6.6843,6.6843,6.732,6.7504,6.6916,6.5962,6.5007,6.42,6.2805,6.1851,6.163,6.0566,5.9698,5.9221,5.854,5.8019,5.7691,5.7177,5.6222,5.4813,5.4333,5.3494,5.2256,5.2246,5.2421,5.2702,0.0,0.0,0.0,5.3203,5.3203,5.3124,5.3124,5.306,5.2872,5.285,5.2635,5.2384,5.2338,5.2208,5.2114,5.2278,5.2431,5.2499,5.2499,5.215,5.1576,5.1192,5.0857,5.064,5.0884,5.1322,5.1873,5.2408,5.2783,5.3039,5.3182,5.3124,5.306,5.3002,5.2658,5.2208,5.1725,5.0678,4.9762,4.9381,4.9107,4.9018,4.9018,0.0,0.0,0.0,4.9018,4.8545,4.7259,4.7124,4.6819,4.6109,4.6684,4.7428,4.8173,4.8917,4.9221,4.9018,0.0,0.0,0.0,0.0,0.0,5.3484,5.3518,5.3619,5.3822,5.4566,5.5412,5.6427,5.8118,5.9877,6.1637,6.2178,6.3226,6.4613,6.4613,6.5459,6.6981,6.8504,6.9113,6.9282,7.077,7.1412,7.16,6.5264,6.5925,6.6476,6.6476,6.7136,6.7687,6.7687,6.7687,6.7687,6.7687,6.6292,6.5007,6.42,6.3319,6.2475,6.1667,6.1557,6.0896,5.9294,5.9066,5.8652,5.7847,5.7534,5.7024,5.6188,5.5269,5.4447,5.3766,0.0,0.0,5.298,0.0,5.3203,5.3203,5.3203,5.3124,5.298,5.298,5.285,5.259,5.2454,5.2161,5.1799,5.1651,5.1525,5.1449,5.1725,5.197,5.2208,5.228,5.2078,5.1725,5.1322,5.0937,5.0612,5.0749,5.1166,5.1701,5.2268,5.268,5.3039,5.3182,5.3203,5.3146,5.3039,5.2893,5.2477,5.1424,5.053,4.9825,4.953,4.9199,4.9018,4.9018,0.0,0.0,0.0,4.9018,0.0,4.7973,4.7872,4.7597,4.6853,4.7462,4.8176,4.8951,4.9661,4.9763,4.9052,0.0,0.0,5.1151,5.1185,0.0,5.3484,5.3518,5.3856,5.46,5.5344,5.6461,5.7949,6.0216,6.167,6.2381,6.2381,6.3226,6.4613,6.4613,6.5459,6.6981,6.8504,6.9113,6.9282,7.077,7.1412,7.16,6.6109,6.6769,6.732,6.732,6.7504,6.7687,6.7687,6.7687,6.7687,6.7687,6.6292,6.5191,6.4971,6.3649,6.267,6.2438,6.1924,6.1153,6.0089,5.9454,5.877,5.7987,5.7786,5.729,5.651,5.5567,5.4719,5.3964,0.0,0.0,0.0,5.3124,5.3146,5.3082,5.3082,5.2937,5.2702,5.2613,5.2384,5.2042,5.1897,5.1551,5.1087,5.107,5.0991,5.0875,5.1166,5.1485,5.1736,5.198,5.1822,5.1546,5.1201,5.0721,5.0341,5.0481,5.0776,5.1166,5.1824,5.2361,5.2893,5.3676,5.3463,5.3148,5.3588,5.2806,5.1954,5.1776,5.1163,5.072,5.0967,5.0728,5.0338,4.983,4.9729,0.0,4.9086,0.0,4.8748,4.7973,4.7906,4.7631,4.6853,4.7462,4.8237,4.9135,4.9882,5.0362,5.0507,0.0,0.0,0.0,5.1961,0.0,5.3484,5.3518,5.3856,5.46,5.5344,5.7002,5.9438,6.0723,6.1704,6.2415,6.2922,6.37,6.4647,6.5121,6.5933,6.6914,6.7895,6.8605,6.9214,7.0195,7.1104,7.1898,6.6953,6.7357,6.7687,6.7687,6.7687,6.7687,6.7687,6.7687,6.7687,6.7687,6.6292,6.5301,6.5301,6.3796,6.278,6.278,6.2365,6.1704,6.0896,6.0126,5.9281,5.851,5.8074,5.7624,5.7134,5.6273,0.0,5.5057,5.3961,5.331,5.3082,5.3103,5.306,5.2915,5.2828,5.259,5.2278,5.2173,5.1824,5.1424,5.127,5.0902,5.0474,5.0418,5.0363,5.0363,5.0612,5.1175,5.1766,5.1957,5.2083,5.2121,5.1817,5.1318,5.0818,5.043,5.0537,5.0927,5.1831,5.251,5.3176,5.4241,5.4127,5.3804,5.4,5.3078,5.2201,5.2229,5.1696,5.1329,5.156,5.141,5.1048,5.0574,5.027,4.9932,4.9492,0.0,4.8849,0.0,4.8369,4.8361,4.8341,4.8749,4.9521,5.0727,5.1275,5.1794,0.0,0.0,5.1653,5.2398,5.2333,5.2807,5.389,5.3923,5.4431,5.5446,5.6731,5.8321,6.0148,6.1231,6.211,6.2854,6.3294,6.4072,6.5053,6.5493,6.6136,6.688,6.7709,6.8531,6.9277,7.011,7.1163,7.2115,6.7633,6.766,6.766,6.766,6.766,6.766,6.7633,6.766,6.766,6.766,6.6339,6.5349,6.5275,6.3844,6.2853,6.278,6.278,6.2475,6.163,6.086,6.0052,5.9221,5.8437,5.7997,5.7997,5.7226,5.6785,5.6712,5.5207,5.4106,5.335,5.3207,5.3076,5.2921,5.2585,5.2222,5.1822,5.1637,5.1218,5.0721,5.0585,5.0278,4.9849,4.9703,4.9737,4.9884,5.0086,5.1025,5.2161,5.2189,5.2654,5.3233,5.2949,5.2458,5.176,5.0645,5.0509,5.0982,5.229,5.3013,5.3664,5.4761,5.5027,5.4822,5.4138,5.3501,5.2984,5.27,5.2161,5.1765,5.1675,5.1515,5.132,5.1219,5.0608,5.0135,5.0033,4.9424,4.908,4.9267,4.9297,0.0,5.0905,5.1004,5.1714,5.3345,5.3449,5.3794,0.0,0.0,5.2115,5.2731,5.2635,5.3213,5.4668,5.4668,5.5378,5.6833,5.9032,6.0114,6.0186,6.1709,6.2826,6.3537,6.3565,6.4417,6.5737,6.573,6.617,6.688,6.7912,6.8787,6.9544,7.0465,7.1474,7.2373,6.719,6.7238,6.7294,6.7154,6.719,6.7097,6.6946,6.7069,6.719,6.719,6.6482,6.574,6.5144,6.4332,6.3452,6.2691,6.273,6.2475,6.163,6.086,6.0052,5.9221,5.8437,5.7997,5.7997,5.7226,5.6492,5.5868,5.55,5.5163,5.4891,5.472,5.449,5.4122,5.3266,5.258,5.2051,5.121,5.0585,5.0108,4.9965,4.9674,4.9346,4.935,4.935,4.9411,4.9708,5.0541,5.154,5.1801,5.2291,5.2747,5.2542,5.2188,5.1751,5.1623,5.1666,5.1968,5.2599,5.3191,5.3911,5.502,5.5121,5.459,5.3394,5.2834,5.2627,5.2946,5.2643,5.256,5.3071,5.3042,5.257,5.1388,5.1082,5.0541,4.9424,4.9178,4.9433,0.0,5.0506,5.1055,5.2023,5.2206,5.2799,0.0,0.0,5.4729,5.615,5.5479,5.4842,5.4529,5.4907,5.5246,5.5446,5.5446,5.5919,5.6833,5.9214,6.034,6.0374,6.2093,6.3256,6.3972,6.4393,6.5094,6.5936,6.6347,6.6643,6.688,6.7912,6.8837,6.9756,7.072,7.1813,7.2838,6.6523,6.6684,6.6714,6.6655,6.6625,6.6595,6.6506,6.6566,6.6655,6.6779,6.617,6.5658,6.5277,6.4712,6.4081,6.3447,6.2991,6.2496,6.2006,6.0921,6.0103,5.9663,5.8597,5.7997,5.7997,5.7556,5.6969,5.6161,5.6161,5.5874,5.5395,5.5212,5.4846,5.4378,5.3502,5.2819,5.2228,5.1141,5.0454,5.0099,4.9667,4.932,4.9107,4.9107,4.9138,4.9263,4.982,5.0738,5.1691,5.225,5.2809,5.3341,5.3249,5.2938,5.2654,5.275,5.2398,5.2165,5.2959,5.3497,5.407,5.5135,5.52,5.4781,5.3808,5.3345,5.3169,5.3361,5.3205,5.3143,5.3516,5.3551,5.3112,5.1928,5.1519,5.0939,4.982,4.9528,4.9804,5.0793,5.1222,5.2021,5.3484,5.4105,5.4825,5.592,5.6339,0.0,5.7646,5.7968,5.7419,5.5887,5.6269,5.6435,5.6224,5.6562,5.7105,5.7959,5.9704,6.0808,6.1334,6.2756,6.3965,6.5031,6.5211,6.5835,6.6691,6.6928,6.7014,6.7082,6.8171,6.9255,7.0306,7.1387,7.2435,7.3299,6.5596,6.594,6.6043,6.5981,6.5981,6.5949,6.5887,6.5949,6.6043,6.6166,6.5718,6.537,6.5344,6.4939,6.4533,6.4217,6.3312,6.2662,6.2536,6.1135,6.0285,6.0139,5.8833,5.8084,5.7973,5.7997,5.7666,5.6969,5.6969,5.6571,5.5738,5.546,5.5013,5.4454,5.3722,5.3067,5.2442,5.1382,5.0769,5.0456,4.978,4.9416,4.9323,4.9323,4.9385,4.961,5.0317,5.1219,5.2186,5.2835,5.3524,5.4141,5.4141,5.3913,5.3684,5.3684,5.2864,5.2204,5.3356,5.3862,5.4236,5.5019,5.5134,5.4926,5.4494,5.4143,5.3882,5.3717,5.3584,5.3518,5.3518,5.3518,5.3213,5.23,5.1785,5.1233,5.0382,0.0,5.0355,5.1431,5.2116,5.3301,5.5248,5.6322,5.7254,5.8178,5.8889,5.9213,5.9043,5.9995,5.9597,5.7452,5.7569,5.7557,5.7306,5.7915,5.8634,5.9463,6.0506,6.1519,6.2537,6.3514,6.4802,6.6225,6.5997,6.6514,6.7557,6.7346,6.7222,6.7373,6.8542,6.9751,7.0992,7.215,7.3077,7.3782,6.3886,6.4683,6.5242,6.4907,6.4873,6.4738,6.4463,6.4669,6.4873,6.4907,6.5329,6.5395,6.4715,6.4812,6.4615,6.3753,6.3526,6.33,6.2983,6.166,6.0565,5.9874,5.9188,5.8529,5.7834,5.795,5.7923,5.7813,5.7813,5.7624,5.7242,5.6876,5.6391,5.5727,5.4355,5.3454,5.2929,5.1831,5.1272,5.108,5.0945,5.0879,5.0879,5.0879,5.0879,5.0911,5.1206,5.1845,5.2556,5.2753,5.3267,5.3749,5.3749,5.3651,5.3517,5.3517,5.3382,5.3346,5.3808,5.4195,5.4416,5.4394,5.4362,5.4269,5.3915,5.3783,5.3717,5.3551,5.3484,5.3518,5.3518,5.3518,5.3044,5.1623,5.1446,5.106,4.9816,0.0,5.1603,5.2691,5.4622,5.6295,5.7415,5.851,5.9227,5.9491,5.9636,5.9921,6.0422,6.0755,6.0777,6.0539,6.0428,6.0128,5.9573,5.9708,5.9922,6.0245,6.1515,6.2398,6.2962,6.4182,6.5583,6.7024,6.6448,6.6903,6.7999,6.7597,6.7469,6.7578,6.8911,7.0232,7.1581,7.2616,7.3617,7.4364,6.3379,6.3973,6.4288,6.4111,6.4075,6.4003,6.3858,6.3967,6.4076,6.4182,6.4463,6.4598,6.4314,6.4577,6.4566,6.4051,6.3825,6.3563,6.3168,6.1888,6.0763,5.9934,5.9512,5.8992,5.8469,5.8077,5.7927,5.7997,5.7927,5.7763,5.7461,5.7061,5.6537,5.5844,5.4909,5.4129,5.3528,5.252,5.1989,5.1758,5.1386,5.1185,5.1185,5.1185,5.1185,5.1251,5.1754,5.216,5.2533,5.3006,5.3346,5.3584,5.3584,5.3551,5.3518,5.3518,5.3551,5.3617,5.3783,5.4045,5.4175,5.3979,5.3913,5.3848,5.3617,5.3584,5.3584,5.3484,5.3518,5.3518,5.3518,5.3518,5.3179,5.2093,5.2181,0.0,5.1316,5.2066,5.3203,5.4819,5.6142,5.7505,5.8942,5.9958,6.0646,6.0772,6.1601,6.2167,6.2214,6.2926,6.3092,6.2554,6.136,6.0765,6.0757,6.0317,6.0469,6.1248,6.2111,6.31,6.4076,6.5428,6.6654,6.7651,6.7517,6.7738,6.8241,6.7839,6.7719,6.7948,6.9311,7.0812,7.2367,7.3364,7.422,7.4786,6.2861,6.3314,6.3452,6.3414,6.3377,6.3377,6.334,6.3377,6.3417,6.3531,6.3641,6.375,6.393,6.4182,6.4323,6.4217,6.3938,6.3518,6.2962,6.202,6.1036,6.0042,5.9553,5.9279,5.9103,5.8397,5.809,5.8244,5.793,5.7655,5.7388,5.6984,5.6402,5.5735,5.5234,5.4652,5.4011,5.3203,5.2769,5.2536,5.1961,5.1758,5.1758,5.1758,5.1758,5.1826,5.2367,5.257,5.2672,5.3281,5.3518,5.3518,5.3518,5.3619,5.3754,5.3754,5.3957,5.4126,5.3956,5.4022,5.4123,5.416,5.416,5.416,5.4025,5.4025,5.4025,5.4025,5.4025,5.4025,5.4025,5.389,5.3585,5.297,0.0,5.2984,5.2735,5.3577,5.483,5.6438,5.7531,5.8721,6.0161,6.1151,6.1862,6.2144,6.3356,6.4009,6.3784,6.4794,6.4905,6.3892,6.2081,6.1265,6.1646,6.0998,6.1155,6.2146,6.2912,6.3939,6.5226,6.6645,6.7695,6.8378,6.8399,6.8421,6.8435,6.8083,6.8083,6.8427,6.964,7.1301,7.3079,7.3828,7.4583,7.5155,6.1715,6.2446,6.3,6.277,6.277,6.2693,6.2498,6.2654,6.277,6.277,6.3114,6.334,6.334,6.3563,6.3639,6.3673,6.3641,6.3222,6.2245,6.2256,6.1606,6.0001,5.9242,5.9042,5.946,5.899,5.8787,5.8944,5.8176,5.7655,5.7388,5.6984,5.6456,5.5844,5.5229,5.4679,5.4173,5.3781,5.355,5.3416,5.3348,5.3348,5.3348,5.3348,5.3348,5.3348,5.3382,5.3416,5.3416,5.3484,5.3518,5.3518,5.3518,5.3957,5.4499,5.4499,5.5006,5.5378,5.4736,5.4533,5.4702,5.5378,5.5547,5.5547,5.5547,5.5547,5.5547,5.5547,5.5547,5.5547,5.5547,5.4972,5.433,5.3718,0.0,0.0,5.277,5.4613,5.6213,5.6714,5.9222,6.1,6.1286,6.2155,6.3037,6.3833,6.4016,6.4369,6.4945,6.5311,6.512,6.4393,6.3353,6.2749,6.2586,6.2363,6.2479,6.2931,6.4223,6.5264,6.6071,6.7394,6.8447,6.9196,6.8646,6.8495,6.8667,6.8435,6.859,6.9008,6.9778,7.151,7.3552,7.3624,7.4498,7.5513,6.199,6.2373,6.2615,6.2537,6.2498,6.2498,6.242,6.2459,6.2498,6.2498,6.2654,6.2731,6.2731,6.2923,6.3038,6.3038,6.3152,6.3015,6.2514,6.2669,6.2289,6.1247,6.0215,5.9947,6.056,5.96,5.9299,5.9602,5.9235,5.8965,5.8725,5.8224,5.7697,5.7176,5.6178,5.5473,5.4892,5.4185,5.3751,5.3518,5.3518,5.3518,5.3518,5.3518,5.3518,5.3518,5.3518,5.3518,5.3518,5.3518,5.3518,5.3585,5.4025,5.4363,5.4668,5.5141,5.548,5.575,5.5919,5.5615,5.5344,5.5614,5.5681,5.5681,5.5681,5.5681,5.5681,5.5681,5.5681,5.5681,5.5681,5.548,5.5279,5.5247,0.0,5.5482,5.5914,5.7078,5.8267,5.9273,6.0544,6.159,6.2192,6.3074,6.3723,6.4053,6.5007,6.5653,6.5786,6.5989,6.6002,6.5783,6.4986,6.3939,6.2727,6.2498,6.2775,6.349,6.4415,6.5357,6.6461,6.7833,6.871,6.9133,6.9141,6.9061,6.8895,6.8819,6.9008,6.9452,7.02,7.1593,7.3293,7.3897,7.4606,7.5248,6.2279,6.2381,6.2381,6.2381,6.2381,6.2381,6.2381,6.2381,6.2381,6.2381,6.2381,6.2381,6.2381,6.2498,6.261,6.261,6.2731,6.277,6.2615,6.2731,6.2573,6.2057,6.0901,6.0547,6.1204,6.0046,5.97,6.0186,5.988,5.9667,5.9536,5.9012,5.8501,5.7968,5.7013,5.6302,5.5681,5.5002,5.4362,5.3856,5.3856,5.3721,5.3518,5.3518,5.3518,5.3518,5.3518,5.3518,5.3518,5.3518,5.3653,5.3923,5.4431,5.4905,5.5446,5.619,5.6393,5.6494,5.7002,5.6799,5.6393,5.6393,5.6393,5.6393,5.6393,5.6393,5.6393,5.6393,5.6393,5.6393,5.6393,5.6224,5.616,5.6508,5.6609,5.6932,5.7785,5.8621,5.9578,6.0781,6.1423,6.2128,6.311,6.3759,6.431,6.4824,6.5888,6.6533,6.6591,6.6881,6.6937,6.6741,6.6319,6.5327,6.376,6.3373,6.3526,6.4155,6.4868,6.5783,6.6867,6.8183,6.8929,6.9211,6.9494,6.9452,6.9194,6.9194,6.9416,6.9849,7.0545,7.1644,7.3021,7.4009,7.4683,7.5086,6.2381,6.2381,6.2381,6.2381,6.2381,6.2381,6.2381,6.2381,6.2381,6.2381,6.2381,6.2381,6.2381,6.2381,6.2415,6.2415,6.2415,6.2381,6.2381,6.2381,6.2314,6.2096,6.1014,6.0666,6.1198,6.0306,6.0046,6.0494,5.9897,5.9536,5.9439,5.9075,5.8594,5.8003,5.7631,5.7161,5.6472,5.6303,5.5587,5.46,5.46,5.416,5.3518,5.3518,5.3518,5.3518,5.3518,5.3518,5.3518,5.3518,5.3991,5.46,5.46,5.5649,5.6968,5.7679,5.7915,5.7881,5.7881,5.7881,5.7881,5.7881,5.7881,5.7915,5.7915,5.7915,5.7915,5.7915,5.7915,5.7881,5.7881,5.7306,5.6906,5.7259,5.685,5.6838,5.7701,5.885,5.9931,6.072,6.1766,6.2866,6.3991,6.409,6.4787,6.6366,6.6512,6.6826,6.7497,6.7956,6.7885,6.7163,6.7259,6.6952,6.611,6.5304,6.4903,6.4903,6.5852,6.6632,6.7361,6.847,6.9231,6.9598,6.9598,6.9598,6.9598,6.9598,6.9813,7.0237,7.0781,7.1676,7.2826,7.3978,7.4683,7.5155,6.2381,6.2381,6.2381,6.2381,6.2381,6.2381,6.2381,6.2381,6.2381,6.2381,6.2381,6.2381,6.2381,6.2854,6.3193,6.3193,6.3193,6.2956,6.2415,6.2381,6.2358,6.2314,6.1705,6.139,6.1432,6.0952,6.0742,6.0869,6.0719,6.0612,6.0518,5.9951,5.946,5.898,5.8037,5.743,5.709,5.6337,5.579,5.5378,5.5378,5.5243,5.504,5.504,5.504,5.504,5.504,5.504,5.504,5.504,5.5209,5.5547,5.6596,5.7915,5.9066,5.8761,5.8693,5.8558,5.8017,5.7881,5.7881,5.7881,5.8287,5.8693,5.8693,5.9066,5.9302,5.8795,5.8693,5.8524,5.7983,5.7712,5.7891,5.876,5.9011,5.9562,6.0852,6.1769,6.2308,6.2393,6.3412,6.4071,6.4101,6.5118,6.5962,6.6476,6.754,6.8284,6.8477,6.9051,6.9361,6.9353,6.903,6.861,6.8159,6.6131,6.5301,6.5685,6.5963,6.6662,6.7655,6.8447,6.9083,6.9634,7.0026,7.0096,7.0026,7.0131,7.0096,7.0062,7.0443,7.0855,7.1444,7.2597,7.3425,7.4157,6.2381,6.2381,6.2381,6.2381,6.2381,6.2381,6.2381,6.2381,6.2381,6.2381,6.2381,6.2516,6.2787,6.3226,6.3632,6.3903,6.3937,6.3632,6.2888,6.2854,6.2685,6.2415,6.2174,6.1907,6.1595,6.1363,6.1165,6.0932,6.1122,6.1041,6.0722,6.0195,5.9746,5.9383,5.8462,5.7946,5.7667,5.7084,5.6604,5.6156,5.6156,5.5987,5.5681,5.5681,5.5681,5.5681,5.5681,5.5681,5.5681,5.5681,5.6089,5.6833,5.8287,5.937,6.0013,5.9573,5.9438,5.9336,5.8896,5.8761,5.8761,5.8761,5.8896,5.9099,5.937,5.9776,5.9979,5.9539,5.9438,5.9302,5.8863,5.8761,5.9007,5.9814,6.0244,6.0912,6.2118,6.2843,6.3321,6.3473,6.4238,6.4767,6.4862,6.5757,6.668,6.7393,6.8348,6.9045,6.9376,7.0006,7.0435,7.0514,7.0306,6.9941,6.9453,6.7652,6.6632,6.65,6.6343,6.6787,6.7678,6.8319,6.897,6.9634,7.0201,7.0444,7.041,7.034,7.0096,6.9778,7.0026,7.0096,7.0272,7.1605,7.2498,7.315,6.2381,6.2381,6.2381,6.2381,6.2381,6.2381,6.2381,6.2381,6.2381,6.2381,6.2448,6.2753,6.3429,6.3632,6.3971,6.4647,6.4681,6.4377,6.3666,6.3565,6.3193,6.2516,6.2415,6.2237,6.1866,6.1629,6.1328,6.0937,6.1198,6.0941,6.0269,5.9846,5.9518,5.9183,5.8806,5.8456,5.8171,5.8171,5.769,5.69,5.69,5.6494,5.5919,5.5919,5.5919,5.5919,5.5919,5.5919,5.5919,5.5952,5.6934,5.8321,5.9742,6.025,6.0283,6.0216,6.0216,6.0182,6.0114,6.0114,6.0114,6.0182,5.9708,5.9404,6.0047,6.025,6.0283,6.0216,6.0216,6.0182,6.0114,6.0114,6.019,6.0479,6.085,6.1357,6.216,6.2861,6.3525,6.4092,6.4512,6.5093,6.5915,6.619,6.7048,6.8761,6.8972,6.9376,7.0146,7.0849,7.1143,7.096,7.1127,7.0911,7.0166,6.9417,6.8435,6.7263,6.6972,6.7063,6.7516,6.8123,6.8857,6.9634,7.0237,7.0616,7.0718,7.0341,6.9956,6.9525,6.9489,6.9379,6.9376,7.0771,7.1588,7.2148,6.2381,6.2381,6.2381,6.2381,6.2381,6.2381,6.2381,6.2381,6.2381,6.2381,6.2888,6.3328,6.3497,6.4546,6.529,6.5425,6.5459,6.5155,6.441,6.3835,6.3429,6.3294,6.2719,6.2352,6.2261,6.1937,6.1519,6.1154,6.0601,6.0289,6.0116,5.9219,5.8632,5.8421,5.8171,5.8027,5.7954,5.7954,5.785,5.7645,5.7645,5.7577,5.7408,5.7408,5.7408,5.7408,5.7408,5.7408,5.7509,5.8084,5.8896,5.9776,6.0757,6.1434,6.1772,6.1197,6.1028,6.0892,6.0283,6.0114,6.025,6.0892,6.0926,6.0858,6.0994,6.1501,6.1738,6.1163,6.1028,6.0858,6.0216,6.0114,6.0359,6.1193,6.1708,6.232,6.3518,6.428,6.4728,6.466,6.552,6.5996,6.5848,6.6674,6.7671,6.8798,6.9486,7.0183,7.0991,7.1806,7.2123,7.1977,7.1799,7.1304,7.0577,6.9671,6.8705,6.7678,6.7304,6.7263,6.7516,6.8123,6.8857,6.9634,7.0374,7.0613,7.0548,7.0236,6.9635,6.8895,6.8743,6.8551,6.8431,6.8917,6.9631,7.0507,6.2381,6.2381,6.2381,6.2381,6.2381,6.2381,6.2381,6.2381,6.2381,6.2381,6.3057,6.3632,6.4005,6.5019,6.5831,6.6203,6.6203,6.5899,6.5155,6.4749,6.441,6.4038,6.3328,6.2922,6.2922,6.2373,6.1858,6.1334,6.069,6.0213,5.9869,5.8832,5.8312,5.8171,5.7991,5.7881,5.7881,5.7881,5.7881,5.7881,5.7881,5.7881,5.7881,5.7881,5.7881,5.7881,5.7881,5.8118,5.8524,5.9302,6.0047,6.0825,6.1569,6.2076,6.2313,6.1941,6.1806,6.1738,6.1298,6.1197,6.1298,6.1704,6.1806,6.1806,6.1806,6.211,6.2279,6.1907,6.211,6.2245,6.1806,6.2009,6.2318,6.2503,6.2893,6.3383,6.375,6.4567,6.5037,6.4873,6.5609,6.6181,6.6229,6.7206,6.83,6.9385,7.022,7.1027,7.1835,7.2275,7.2467,7.2416,7.2144,7.1749,7.111,7.027,6.9344,6.8358,6.7557,6.7263,6.7387,6.7999,6.8667,6.9342,7.0026,7.0305,7.0306,6.9885,6.927,6.8513,6.8241,6.7959,6.7719,6.8004,6.8853,6.9998,6.2381,6.2381,6.2381,6.2381,6.2381,6.2381,6.2381,6.2381,6.2381,6.2381,6.3057,6.3802,6.4512,6.5358,6.6136,6.6779,6.6812,6.6542,6.5933,6.5764,6.5425,6.4816,6.4106,6.3632,6.3531,6.2888,6.229,6.1664,6.1068,6.0498,5.9848,5.8819,5.8339,5.8339,5.8022,5.7881,5.7881,5.7881,5.7881,5.7881,5.7881,5.7881,5.7915,5.8017,5.8084,5.8084,5.822,5.866,5.9302,6.0047,6.0757,6.1434,6.2144,6.2381,6.2381,6.2381,6.2381,6.2381,6.2381,6.2381,6.2381,6.2381,6.2381,6.2381,6.2381,6.2381,6.2415,6.255,6.3097,6.3605,6.3706,6.4288,6.4532,6.3922,6.422,6.4366,6.3976,6.4671,6.5196,6.5263,6.5835,6.6447,6.7053,6.7905,6.8961,7.0229,7.0917,7.1651,7.2459,7.2496,7.2496,7.2496,7.2387,7.2054,7.1562,7.0811,7.0026,6.9083,6.7965,6.7387,6.7263,6.7759,6.8319,6.8932,6.9489,6.9849,7.0026,6.9489,6.897,6.8358,6.7965,6.7597,6.7304,6.7638,6.8679,6.9967,6.2381,6.2381,6.2381,6.2381,6.2381,6.2381,6.2381,6.2381,6.2381,6.2381,6.3057,6.3802,6.4512,6.5831,6.6711,6.6812,6.6812,6.6779,6.6677,6.6034,6.5662,6.5561,6.485,6.4174,6.3531,6.3429,6.299,6.2285,6.1579,6.1172,6.1037,5.9577,5.89,5.8866,5.8186,5.7881,5.7881,5.7881,5.7881,5.7881,5.7881,5.7881,5.7949,5.8626,5.8863,5.893,5.9573,5.9877,6.008,6.0858,6.1231,6.1434,6.2144,6.2381,6.2381,6.2381,6.2381,6.2381,6.2381,6.2381,6.2381,6.2381,6.2381,6.2381,6.2381,6.2381,6.2584,6.3226,6.3549,6.3945,6.4591,6.4954,6.5181,6.5079,6.5084,6.5172,6.542,6.5758,6.6166,6.6672,6.7502,6.8223,6.8717,6.9157,6.9879,7.1073,7.1248,7.1651,7.2459,7.2496,7.2496,7.2496,7.2387,7.2151,7.1749,7.1045,7.027,6.9525,6.8819,6.8123,6.7469,6.7516,6.7919,6.8513,6.8932,6.9231,6.9416,6.9342,6.897,6.8358,6.8123,6.7799,6.7469,6.7516,6.8473,6.973,6.2381,6.2719,6.3024,6.3024,6.3362,6.3497,6.3091,6.3024,6.2854,6.2448,6.3396,6.4241,6.4546,6.5933,6.6812,6.6812,6.6812,6.6812,6.6812,6.6508,6.6305,6.6305,6.5595,6.4884,6.414,6.3734,6.3159,6.2381,6.167,6.1298,6.1298,6.0148,5.9607,5.9607,5.9268,5.9133,5.9133,5.9133,5.9133,5.9133,5.9133,5.9133,5.9167,5.9505,5.9607,5.9674,5.9979,6.0385,6.0825,6.1197,6.1569,6.1975,6.2279,6.2381,6.2381,6.2381,6.2381,6.2381,6.2381,6.2381,6.2381,6.2381,6.2381,6.2516,6.2922,6.3024,6.3125,6.3463,6.4335,6.5181,6.5607,6.6251,6.6548,6.6136,6.6147,6.6131,6.5911,6.6142,6.6516,6.7094,6.772,6.8353,6.892,6.9685,7.0478,7.1256,7.1725,7.2129,7.2496,7.2496,7.2496,7.2496,7.2438,7.2292,7.2091,7.1463,7.0878,7.0303,6.9562,6.8667,6.7678,6.7799,6.7999,6.8241,6.8667,6.9008,6.9305,6.9305,6.9157,6.8895,6.8551,6.8162,6.7874,6.8286,6.9145,7.0175]}]]